[[{"header":{"parameterUnit":"m.s-1","parameterCategory":1,"la1":30.6,"la2":29.2853,"lo1":-89.7004,"lo2":-87.6739,"dy":0.0162,"dx":0.0183,"nx":112,"ny":82,"refTime":"2023-07-24T06:00:00:Z","depth":0,"parameterNumber":2,"parameterNumberName":"U-component_of_WINDS"},"data":[0.0,0.0,0.0,0.0,0.0,0.0,0.0,0.0,0.0,0.0,0.0,0.0,0.0,0.0,0.0,0.0,0.0,0.0,0.0,0.0,0.0,0.0,0.0,0.0,0.0,0.0,0.0,0.0,0.0,0.0,0.0,0.0,0.0,0.0,0.0,0.0,0.0,0.0,0.0,0.0,0.0,0.0,0.0,0.0,0.0,0.0,0.0,0.0,0.0,0.0,0.0,0.0,0.0,0.0,0.0,0.0,0.0,0.0,0.0,0.0,0.0,0.0,0.0,0.0,0.0,0.0,0.0,0.0,0.0,0.0,0.0,0.0,0.0,0.0,0.0,0.0,0.0,0.0,0.0,0.0,0.0,0.0,0.0,0.0,0.0,0.0,0.0,0.0,0.0,0.0,0.0,-2.9384,-2.9926,-2.9935,-2.9102,-2.8481,-2.7829,-2.7043,0.0,0.0,0.0,0.0,0.0,0.0,0.0,0.0,0.0,0.0,0.0,0.0,0.0,0.0,0.0,0.0,0.0,0.0,0.0,0.0,0.0,0.0,0.0,0.0,0.0,0.0,0.0,0.0,0.0,0.0,0.0,0.0,0.0,0.0,0.0,0.0,0.0,0.0,0.0,0.0,0.0,0.0,0.0,0.0,0.0,0.0,0.0,0.0,0.0,0.0,0.0,0.0,0.0,0.0,0.0,0.0,0.0,0.0,0.0,0.0,0.0,0.0,0.0,0.0,0.0,0.0,0.0,0.0,0.0,0.0,0.0,0.0,0.0,0.0,0.0,0.0,0.0,0.0,0.0,0.0,0.0,0.0,0.0,0.0,0.0,0.0,0.0,0.0,0.0,0.0,0.0,0.0,0.0,0.0,0.0,0.0,0.0,0.0,0.0,0.0,0.0,0.0,0.0,0.0,-2.8826,-2.9339,-3.0377,-3.0524,-2.9284,-2.954,-2.8803,-2.6557,0.0,0.0,0.0,0.0,0.0,0.0,0.0,0.0,0.0,0.0,0.0,0.0,0.0,0.0,0.0,0.0,0.0,0.0,0.0,0.0,0.0,0.0,0.0,0.0,0.0,0.0,0.0,0.0,0.0,0.0,0.0,0.0,0.0,0.0,0.0,0.0,0.0,0.0,0.0,0.0,0.0,0.0,0.0,0.0,0.0,0.0,0.0,0.0,0.0,0.0,0.0,0.0,0.0,0.0,0.0,0.0,0.0,0.0,0.0,0.0,0.0,0.0,0.0,0.0,0.0,0.0,0.0,0.0,0.0,0.0,0.0,0.0,0.0,0.0,0.0,0.0,0.0,0.0,0.0,0.0,0.0,0.0,0.0,0.0,0.0,0.0,0.0,0.0,0.0,0.0,0.0,0.0,0.0,0.0,0.0,0.0,0.0,0.0,0.0,0.0,0.0,0.0,0.0,-2.8599,-2.9225,-2.9827,-3.0679,-3.096,-3.0332,-3.0176,-2.9597,-2.842,-2.7253,0.0,0.0,0.0,0.0,0.0,0.0,0.0,0.0,0.0,0.0,0.0,0.0,0.0,0.0,0.0,0.0,0.0,0.0,0.0,0.0,0.0,0.0,0.0,0.0,0.0,0.0,0.0,0.0,0.0,0.0,0.0,0.0,0.0,0.0,0.0,0.0,0.0,0.0,0.0,0.0,0.0,0.0,0.0,0.0,0.0,0.0,0.0,0.0,0.0,0.0,0.0,0.0,0.0,0.0,0.0,0.0,0.0,0.0,0.0,0.0,0.0,0.0,0.0,0.0,0.0,0.0,0.0,0.0,0.0,0.0,0.0,0.0,0.0,0.0,0.0,0.0,0.0,0.0,0.0,0.0,0.0,0.0,0.0,0.0,0.0,0.0,0.0,0.0,0.0,0.0,0.0,0.0,0.0,0.0,0.0,0.0,0.0,0.0,0.0,0.0,0.0,0.0,-2.9248,-2.9783,-3.0251,-3.0838,-3.1151,-3.0995,-3.0605,-3.022,-2.9938,-2.8417,0.0,0.0,0.0,0.0,0.0,0.0,0.0,0.0,0.0,0.0,0.0,0.0,0.0,0.0,0.0,0.0,0.0,0.0,0.0,0.0,0.0,0.0,0.0,0.0,0.0,0.0,0.0,0.0,0.0,0.0,0.0,0.0,0.0,0.0,0.0,0.0,0.0,0.0,0.0,0.0,0.0,0.0,0.0,0.0,0.0,0.0,0.0,0.0,0.0,0.0,0.0,0.0,0.0,0.0,0.0,0.0,0.0,0.0,0.0,0.0,0.0,0.0,0.0,0.0,0.0,0.0,0.0,0.0,0.0,0.0,0.0,0.0,0.0,0.0,0.0,0.0,0.0,0.0,0.0,0.0,0.0,0.0,0.0,0.0,0.0,0.0,0.0,0.0,0.0,0.0,0.0,0.0,0.0,0.0,0.0,0.0,0.0,0.0,0.0,0.0,0.0,0.0,-2.9848,-3.0251,-3.0309,-3.0838,-3.0975,-3.0414,-3.0828,-3.0625,-2.9433,-2.9051,0.0,0.0,0.0,0.0,0.0,0.0,0.0,0.0,0.0,0.0,0.0,0.0,0.0,0.0,0.0,0.0,0.0,0.0,0.0,0.0,0.0,0.0,0.0,0.0,0.0,0.0,0.0,0.0,0.0,0.0,0.0,0.0,0.0,0.0,0.0,0.0,0.0,0.0,0.0,0.0,0.0,0.0,0.0,0.0,0.0,0.0,0.0,0.0,0.0,0.0,0.0,0.0,0.0,0.0,0.0,0.0,0.0,0.0,0.0,0.0,0.0,0.0,0.0,0.0,0.0,0.0,0.0,0.0,0.0,0.0,0.0,0.0,0.0,0.0,0.0,0.0,0.0,0.0,0.0,0.0,0.0,0.0,0.0,0.0,0.0,0.0,0.0,0.0,0.0,0.0,0.0,0.0,0.0,0.0,0.0,0.0,0.0,0.0,0.0,0.0,0.0,0.0,-2.9695,-3.0293,0.0,-3.0838,-3.1112,-3.0878,-3.1055,-3.1013,-3.0532,0.0,0.0,0.0,0.0,0.0,0.0,0.0,0.0,0.0,0.0,0.0,0.0,0.0,0.0,0.0,0.0,0.0,0.0,0.0,0.0,0.0,0.0,0.0,0.0,0.0,0.0,0.0,0.0,0.0,0.0,0.0,0.0,0.0,0.0,0.0,0.0,0.0,0.0,0.0,0.0,0.0,0.0,0.0,0.0,0.0,0.0,0.0,0.0,0.0,0.0,0.0,0.0,0.0,0.0,0.0,0.0,0.0,0.0,0.0,0.0,0.0,0.0,0.0,0.0,0.0,0.0,0.0,0.0,0.0,0.0,0.0,0.0,0.0,0.0,0.0,0.0,0.0,0.0,0.0,0.0,0.0,0.0,0.0,0.0,0.0,0.0,0.0,0.0,0.0,0.0,0.0,0.0,0.0,0.0,0.0,0.0,0.0,0.0,0.0,0.0,0.0,0.0,-2.8756,-2.9673,-3.0356,0.0,-3.0938,-3.119,-3.119,-3.119,-3.119,-3.119,0.0,0.0,0.0,0.0,0.0,0.0,0.0,0.0,0.0,0.0,0.0,0.0,0.0,0.0,0.0,0.0,0.0,0.0,0.0,0.0,0.0,0.0,0.0,0.0,0.0,0.0,0.0,0.0,0.0,0.0,0.0,0.0,0.0,0.0,0.0,0.0,0.0,0.0,0.0,0.0,0.0,0.0,0.0,0.0,0.0,0.0,0.0,0.0,0.0,0.0,0.0,0.0,0.0,0.0,0.0,0.0,0.0,0.0,0.0,0.0,0.0,0.0,0.0,0.0,0.0,0.0,0.0,0.0,0.0,0.0,0.0,0.0,0.0,0.0,0.0,0.0,0.0,0.0,0.0,0.0,0.0,0.0,0.0,0.0,0.0,0.0,0.0,0.0,0.0,0.0,0.0,0.0,0.0,0.0,0.0,0.0,0.0,0.0,0.0,0.0,0.0,0.0,-2.9316,-2.9935,-3.0539,-3.1151,-3.119,-3.119,-3.119,-3.119,-3.119,0.0,0.0,0.0,0.0,0.0,0.0,0.0,0.0,0.0,0.0,0.0,0.0,0.0,0.0,0.0,0.0,0.0,0.0,0.0,0.0,0.0,0.0,0.0,0.0,0.0,0.0,0.0,0.0,0.0,0.0,0.0,0.0,0.0,0.0,0.0,0.0,0.0,0.0,0.0,0.0,0.0,0.0,0.0,0.0,0.0,0.0,0.0,0.0,0.0,0.0,0.0,0.0,0.0,0.0,0.0,0.0,0.0,0.0,0.0,0.0,0.0,0.0,0.0,0.0,0.0,0.0,0.0,0.0,0.0,0.0,0.0,0.0,0.0,0.0,0.0,0.0,0.0,0.0,0.0,0.0,0.0,0.0,0.0,0.0,0.0,0.0,0.0,0.0,0.0,0.0,0.0,0.0,0.0,0.0,0.0,0.0,0.0,0.0,0.0,0.0,0.0,0.0,0.0,-2.9429,-3.0293,-3.1015,-3.1171,-3.119,-3.119,-3.119,-3.119,-3.119,-3.119,0.0,0.0,0.0,0.0,0.0,0.0,0.0,0.0,0.0,0.0,0.0,0.0,0.0,0.0,0.0,0.0,0.0,0.0,0.0,0.0,0.0,0.0,0.0,0.0,0.0,0.0,0.0,0.0,0.0,0.0,0.0,0.0,0.0,0.0,0.0,0.0,0.0,0.0,0.0,0.0,0.0,0.0,0.0,0.0,0.0,0.0,0.0,0.0,0.0,0.0,0.0,0.0,0.0,0.0,0.0,0.0,0.0,0.0,0.0,0.0,0.0,0.0,0.0,0.0,0.0,0.0,0.0,0.0,0.0,0.0,0.0,0.0,0.0,0.0,0.0,0.0,0.0,0.0,0.0,0.0,0.0,0.0,0.0,0.0,0.0,0.0,0.0,0.0,0.0,0.0,0.0,0.0,0.0,0.0,0.0,0.0,0.0,0.0,0.0,0.0,0.0,0.0,-2.9805,-3.0601,-3.119,-3.119,-3.119,-3.119,-3.119,-3.119,-3.119,-3.119,0.0,0.0,0.0,0.0,0.0,0.0,0.0,0.0,0.0,0.0,0.0,0.0,0.0,0.0,0.0,0.0,0.0,0.0,0.0,0.0,0.0,0.0,0.0,0.0,0.0,0.0,0.0,0.0,0.0,0.0,0.0,0.0,0.0,0.0,0.0,0.0,0.0,0.0,0.0,0.0,0.0,0.0,0.0,0.0,0.0,0.0,0.0,0.0,0.0,0.0,0.0,0.0,0.0,0.0,0.0,0.0,0.0,0.0,0.0,0.0,0.0,0.0,0.0,0.0,0.0,0.0,0.0,0.0,0.0,0.0,0.0,0.0,0.0,0.0,0.0,0.0,0.0,0.0,0.0,0.0,0.0,0.0,0.0,0.0,0.0,0.0,0.0,0.0,0.0,0.0,0.0,0.0,0.0,0.0,0.0,0.0,0.0,0.0,0.0,0.0,0.0,0.0,-3.0293,-3.0838,-3.119,-3.119,-3.119,-3.119,-3.119,-3.119,-3.119,-3.119,0.0,0.0,0.0,0.0,0.0,0.0,0.0,0.0,0.0,0.0,0.0,0.0,0.0,0.0,0.0,0.0,0.0,0.0,0.0,0.0,0.0,0.0,0.0,0.0,0.0,0.0,0.0,0.0,0.0,0.0,0.0,0.0,0.0,0.0,0.0,0.0,0.0,0.0,0.0,0.0,0.0,0.0,0.0,0.0,0.0,0.0,0.0,0.0,0.0,0.0,0.0,0.0,0.0,0.0,0.0,0.0,0.0,0.0,0.0,0.0,-2.9501,0.0,0.0,0.0,0.0,0.0,0.0,0.0,0.0,0.0,0.0,0.0,0.0,0.0,0.0,0.0,0.0,0.0,0.0,0.0,0.0,0.0,0.0,0.0,0.0,0.0,0.0,0.0,0.0,0.0,0.0,0.0,0.0,0.0,0.0,0.0,0.0,0.0,0.0,0.0,0.0,0.0,-3.0356,-3.0838,-3.119,-3.119,-3.119,-3.119,-3.119,-3.119,-3.119,-3.119,-3.119,0.0,0.0,0.0,0.0,0.0,0.0,0.0,0.0,0.0,0.0,0.0,0.0,0.0,0.0,0.0,0.0,0.0,0.0,0.0,0.0,0.0,0.0,0.0,0.0,0.0,0.0,0.0,0.0,0.0,0.0,0.0,0.0,0.0,0.0,0.0,0.0,0.0,0.0,0.0,0.0,0.0,0.0,0.0,0.0,0.0,0.0,0.0,0.0,0.0,0.0,0.0,0.0,0.0,0.0,0.0,0.0,0.0,0.0,0.0,0.0,-3.0059,0.0,0.0,0.0,0.0,0.0,0.0,0.0,0.0,0.0,0.0,0.0,0.0,0.0,0.0,0.0,0.0,0.0,0.0,0.0,0.0,0.0,0.0,0.0,0.0,0.0,0.0,0.0,0.0,0.0,0.0,0.0,0.0,0.0,0.0,0.0,0.0,0.0,0.0,0.0,0.0,-3.1299,-3.1234,-3.119,-3.119,-3.119,-3.119,-3.119,-3.119,-3.119,-3.119,-3.119,0.0,0.0,0.0,0.0,0.0,0.0,0.0,0.0,0.0,0.0,0.0,0.0,0.0,0.0,0.0,0.0,0.0,0.0,0.0,0.0,0.0,0.0,0.0,0.0,0.0,0.0,0.0,0.0,0.0,0.0,0.0,0.0,0.0,0.0,0.0,0.0,0.0,0.0,0.0,0.0,0.0,0.0,0.0,0.0,0.0,0.0,0.0,0.0,0.0,0.0,0.0,0.0,0.0,-3.119,-3.119,-3.119,-3.119,-3.119,-3.119,-3.119,-3.119,-3.119,-3.119,0.0,0.0,0.0,0.0,0.0,0.0,0.0,0.0,0.0,0.0,0.0,0.0,0.0,0.0,0.0,0.0,0.0,0.0,0.0,0.0,0.0,0.0,0.0,0.0,-3.119,-3.1055,-3.0559,0.0,0.0,0.0,0.0,0.0,0.0,0.0,0.0,0.0,0.0,0.0,-3.2496,-3.1952,-3.1529,-3.1413,-3.1396,-3.1326,-3.1207,-3.119,-3.119,-3.119,-3.119,-3.119,0.0,0.0,0.0,0.0,0.0,0.0,0.0,0.0,0.0,0.0,0.0,0.0,0.0,0.0,0.0,0.0,0.0,0.0,0.0,0.0,0.0,0.0,0.0,0.0,0.0,0.0,0.0,0.0,0.0,0.0,0.0,0.0,-3.1986,-3.2299,0.0,0.0,0.0,0.0,0.0,0.0,0.0,0.0,0.0,0.0,0.0,0.0,0.0,-3.119,-3.119,-3.119,-3.119,-3.119,-3.119,-3.119,-3.119,-3.119,-3.119,-3.119,-3.119,0.0,-3.119,-3.119,0.0,0.0,0.0,0.0,0.0,0.0,0.0,0.0,0.0,0.0,0.0,0.0,0.0,0.0,0.0,0.0,0.0,0.0,0.0,0.0,0.0,0.0,-3.119,-3.119,-3.119,-3.1171,0.0,-3.1151,-3.119,-3.119,-3.119,0.0,0.0,0.0,0.0,0.0,0.0,0.0,-3.3254,-3.3169,-3.2865,-3.2226,-3.2158,-3.1904,-3.1241,-3.119,-3.119,-3.119,-3.119,-3.119,-3.119,-3.119,0.0,0.0,0.0,0.0,0.0,0.0,0.0,0.0,0.0,0.0,0.0,0.0,0.0,0.0,0.0,0.0,0.0,0.0,0.0,0.0,0.0,0.0,0.0,0.0,0.0,0.0,0.0,0.0,0.0,-3.2632,-3.2161,-3.2109,-3.177,-3.1449,0.0,0.0,0.0,0.0,0.0,0.0,0.0,0.0,0.0,-3.2442,-3.2442,-3.2442,-3.2442,-3.2442,-3.2442,-3.2442,-3.2442,-3.2442,-3.2442,-3.2442,-3.2442,-3.2442,-3.2442,-3.2442,-3.2374,-3.1529,-3.119,-3.119,0.0,0.0,0.0,0.0,-3.119,-3.119,-3.119,-3.119,-3.119,-3.119,0.0,0.0,0.0,0.0,0.0,0.0,0.0,0.0,0.0,0.0,-3.1819,-3.1819,-3.2121,-3.2442,-3.2442,-3.2442,-3.2307,0.0,-3.2138,-3.2662,-3.341,0.0,0.0,0.0,0.0,-3.4015,-3.4015,-3.366,-3.3288,-3.2949,-3.2564,-3.2175,-3.1853,-3.1427,-3.119,-3.119,-3.119,-3.119,-3.119,-3.119,-3.119,0.0,0.0,0.0,0.0,0.0,0.0,0.0,0.0,0.0,0.0,0.0,0.0,0.0,0.0,0.0,0.0,0.0,0.0,0.0,0.0,0.0,0.0,0.0,0.0,0.0,0.0,0.0,0.0,-3.3273,-3.2871,-3.2598,-3.2579,-3.2432,0.0,0.0,0.0,0.0,0.0,0.0,-3.2787,-3.3185,-3.3406,-3.3406,-3.3406,-3.3406,-3.3406,-3.3406,-3.3406,-3.3406,-3.3406,-3.3406,-3.3406,-3.3406,-3.3406,-3.3406,-3.3406,-3.3406,-3.3322,-3.2222,-3.1765,-3.1765,-3.1765,-3.1765,-3.1765,-3.1765,-3.1765,-3.1765,-3.1765,-3.1765,-3.1765,-3.1765,-3.1765,-3.1765,-3.1765,0.0,0.0,0.0,0.0,-3.1765,-3.1765,-3.2154,-3.2581,-3.2581,-3.3,-3.3406,-3.3406,-3.3558,-3.3457,0.0,-3.3017,-3.3643,-3.437,0.0,0.0,0.0,0.0,-3.4776,-3.4776,-3.4303,-3.3897,-3.3711,-3.3186,-3.2716,-3.2327,-3.1802,-3.1393,-3.1207,-3.119,-3.119,-3.119,-3.119,-3.119,-3.119,0.0,0.0,0.0,0.0,0.0,0.0,0.0,0.0,0.0,0.0,0.0,0.0,0.0,0.0,0.0,0.0,0.0,0.0,0.0,0.0,0.0,0.0,0.0,0.0,0.0,0.0,0.0,0.0,0.0,-3.4623,-3.4712,0.0,0.0,0.0,0.0,-3.4677,-3.3867,-3.3571,-3.4092,-3.3666,-3.3406,-3.3406,-3.3406,-3.3406,-3.3406,-3.3406,-3.3406,-3.3406,-3.3406,-3.3406,-3.3406,-3.3406,-3.3406,-3.3406,-3.3406,-3.3406,-3.3406,-3.3322,-3.3288,-3.3288,-3.3288,-3.3288,-3.3288,-3.3288,-3.3288,-3.3288,-3.3288,-3.3288,-3.3288,-3.3288,-3.3288,-3.3288,-3.3288,-3.3288,0.0,0.0,-3.3288,-3.3288,-3.3288,-3.3322,-3.3339,-3.3339,-3.3372,-3.3406,-3.3406,-3.3947,-3.4218,0.0,-3.3372,-3.3643,-3.437,0.0,-3.4742,-3.5481,-3.5566,-3.5532,-3.5532,-3.5515,-3.5211,-3.4523,-3.4404,-3.3833,-3.2412,-3.2276,-3.1955,-3.1241,-3.119,-3.119,-3.119,-3.119,-3.119,-3.119,-3.1157,0.0,0.0,0.0,0.0,0.0,0.0,0.0,0.0,0.0,0.0,0.0,0.0,0.0,0.0,0.0,0.0,0.0,0.0,0.0,0.0,0.0,0.0,0.0,0.0,0.0,0.0,0.0,0.0,-3.5329,-3.5332,0.0,-3.4693,-3.4639,-3.4729,-3.4889,-3.4737,-3.4711,-3.4894,-3.4861,-3.4822,-3.4822,-3.4822,-3.4822,-3.4822,-3.4822,-3.4822,-3.4822,-3.4822,-3.4822,-3.4822,-3.4822,-3.4822,-3.4822,-3.4822,-3.4822,-3.4822,-3.4822,-3.4247,-3.3406,-3.3406,-3.3406,-3.3406,-3.3406,-3.3406,-3.3406,-3.3406,-3.3406,-3.3406,-3.3406,-3.3406,-3.3406,-3.3406,-3.3406,-3.3406,-3.3406,-3.3406,-3.3406,-3.3406,-3.3744,-3.4117,-3.4117,-3.4472,-3.4822,-3.4822,-3.5008,-3.5126,-3.4856,-3.4822,-3.489,-3.5143,-3.5216,-3.5295,-3.5549,-3.56,-3.56,-3.56,-3.56,-3.5498,-3.525,-3.4776,-3.4307,-3.3766,-3.2852,-3.2192,-3.1921,-3.1464,-3.119,-3.119,-3.119,-3.119,-3.119,-3.119,-3.1072,0.0,0.0,0.0,0.0,0.0,0.0,0.0,0.0,0.0,0.0,0.0,0.0,0.0,0.0,0.0,0.0,0.0,0.0,0.0,0.0,0.0,0.0,0.0,0.0,0.0,0.0,-3.6629,-3.6405,-3.654,-3.6457,-3.5951,-3.5916,-3.5985,-3.6174,-3.6019,-3.6013,-3.6169,-3.5994,-3.5876,-3.5876,-3.5694,-3.56,-3.56,-3.56,-3.56,-3.56,-3.56,-3.56,-3.56,-3.56,-3.56,-3.56,-3.56,-3.56,-3.56,-3.56,-3.5008,-3.4129,-3.4129,-3.4129,-3.4129,-3.4129,-3.4129,-3.4129,-3.4129,-3.4129,-3.4129,-3.4129,-3.4129,-3.4129,-3.4129,-3.4129,-3.4129,-3.4129,-3.4129,-3.4129,-3.4129,-3.4506,-3.4878,-3.4878,-3.525,-3.56,-3.56,-3.56,-3.56,-3.56,-3.56,-3.56,-3.56,-3.56,-3.56,-3.56,-3.56,-3.56,-3.56,-3.56,-3.56,-3.56,-3.5165,-3.4776,-3.4506,-3.3613,-3.2835,-3.2327,-3.1853,-3.1464,-3.1207,-3.119,-3.119,-3.119,-3.119,-3.119,-3.119,0.0,0.0,0.0,0.0,0.0,0.0,0.0,0.0,0.0,0.0,0.0,0.0,0.0,0.0,0.0,0.0,0.0,0.0,0.0,0.0,0.0,0.0,0.0,-3.7658,-3.7547,-3.7634,-3.7889,-3.8382,-3.8515,-3.798,-3.7911,-3.815,-3.8658,-3.7791,-3.7415,-3.7894,-3.6943,-3.6412,-3.6451,-3.5932,-3.5678,-3.5718,-3.5712,-3.5712,-3.5712,-3.569,-3.5667,-3.5667,-3.5667,-3.5667,-3.5667,-3.569,-3.569,-3.5667,-3.569,-3.5673,-3.5633,-3.56,-3.56,-3.56,-3.56,-3.56,-3.56,-3.56,-3.56,-3.56,-3.56,-3.56,-3.56,-3.56,-3.56,-3.56,-3.56,-3.56,-3.56,-3.56,-3.56,-3.56,-3.56,-3.56,-3.56,-3.56,-3.56,-3.56,-3.56,-3.56,-3.56,-3.56,-3.56,-3.56,-3.56,-3.56,0.0,-3.56,-3.56,-3.56,-3.56,-3.56,-3.5295,-3.459,-3.4506,-3.3884,-3.2429,-3.231,-3.1972,-3.1224,-3.119,-3.119,-3.119,-3.119,-3.119,-3.119,0.0,0.0,0.0,0.0,0.0,0.0,0.0,0.0,0.0,0.0,0.0,0.0,0.0,0.0,0.0,0.0,0.0,0.0,0.0,0.0,0.0,0.0,-3.8615,-3.8395,-3.8377,-3.8404,-3.8478,-3.8611,-3.8643,-3.8496,-3.8481,-3.8546,-3.8692,-3.8083,-3.7755,-3.7876,-3.6943,-3.6844,-3.7827,-3.7335,-3.7532,-3.8491,-3.807,-3.7848,-3.7848,-3.7461,-3.728,-3.728,-3.728,-3.728,-3.7303,-3.7682,-3.7632,-3.7303,-3.7682,-3.729,-3.64,-3.5842,-3.56,-3.56,-3.56,-3.56,-3.56,-3.56,-3.56,-3.56,-3.56,-3.56,-3.56,-3.56,-3.56,-3.56,-3.56,-3.56,-3.56,-3.56,-3.56,-3.56,-3.56,-3.56,-3.56,-3.56,-3.56,-3.56,-3.56,-3.56,-3.56,-3.56,-3.56,-3.56,-3.56,-3.56,0.0,-3.56,-3.56,-3.56,-3.56,-3.56,-3.5515,-3.5295,-3.481,-3.41,-3.3152,-3.2615,-3.1972,-3.1224,-3.119,-3.119,-3.119,-3.119,-3.119,0.0,0.0,0.0,0.0,0.0,0.0,0.0,0.0,0.0,0.0,0.0,0.0,0.0,0.0,0.0,0.0,0.0,0.0,0.0,0.0,0.0,0.0,-3.8707,-3.8707,-3.8707,-3.8707,-3.8707,-3.8707,-3.8707,-3.8707,-3.8707,-3.8707,-3.8707,-3.8707,-3.8725,-3.8742,-3.8742,-3.8291,-3.838,-3.9186,-3.87,-3.881,-3.9591,-3.925,-3.8936,-3.8716,-3.8391,-3.8114,-3.7905,-3.812,-3.8242,-3.8265,-3.8558,-3.8668,-3.8632,-3.869,-3.8408,0.0,0.0,0.0,0.0,0.0,-3.5739,-3.5941,-3.5941,-3.6075,-3.627,-3.627,-3.6118,-3.5941,-3.5941,-3.5941,-3.5898,-3.565,-3.5761,-3.5876,-3.565,-3.56,-3.56,-3.56,-3.56,-3.56,-3.56,-3.56,-3.56,-3.56,-3.56,0.0,-3.56,-3.56,-3.56,-3.56,-3.56,-3.56,-3.56,-3.56,-3.56,-3.56,-3.56,-3.56,-3.56,-3.5216,0.0,0.0,0.0,-3.2273,-3.1241,-3.119,0.0,0.0,0.0,-3.119,-3.119,0.0,0.0,0.0,-3.0243,-2.9686,0.0,0.0,0.0,0.0,0.0,0.0,0.0,0.0,0.0,0.0,0.0,0.0,0.0,0.0,0.0,0.0,-3.8707,-3.8707,-3.8707,-3.8707,-3.8707,-3.8707,-3.8707,-3.8744,-3.8836,-3.8836,-3.8872,-3.8964,-3.9625,-4.0029,-4.0029,0.0,0.0,0.0,0.0,-3.9888,-4.0036,-3.9977,-3.9679,-3.9155,-3.909,-3.8812,-3.8363,-3.8817,-3.9047,-3.9047,-3.9112,-3.941,-3.9818,-3.9347,-3.9378,-3.9545,-3.7725,-3.6536,-3.5853,-3.5853,-3.6198,-3.6638,-3.6551,0.0,0.0,-3.7227,-3.6882,-3.6498,-3.6498,-3.6498,-3.6395,-3.592,-3.6118,-3.6354,-3.5832,-3.5739,-3.5783,-3.5694,-3.5739,-3.5766,-3.5766,-3.5766,-3.5766,-3.5766,-3.5739,-3.5694,-3.5694,-3.5644,-3.56,-3.56,-3.56,-3.56,-3.56,-3.56,-3.56,-3.56,0.0,0.0,-3.56,-3.56,-3.5008,-3.3609,-3.3372,-3.2645,-3.1258,-3.119,-3.119,-3.119,-3.119,-3.119,-3.119,-3.119,-3.119,-3.1173,-3.0531,-3.0207,0.0,0.0,0.0,0.0,0.0,0.0,0.0,0.0,0.0,0.0,0.0,0.0,0.0,0.0,0.0,-3.8707,-3.8707,-3.8707,-3.8707,-3.8707,-3.8707,-3.8707,-3.8707,-3.8946,-3.9588,-3.9662,-3.9937,-4.0581,-4.0765,-4.0873,-4.0873,-4.0524,-4.0799,-4.1876,-4.1415,-4.165,-4.2739,-4.2319,-4.205,-4.1914,0.0,0.0,-4.1047,-4.1159,-4.1202,-4.1223,-4.1716,-4.1716,-4.1392,-4.1777,-4.1361,-4.0324,-3.8912,-3.7963,-3.7466,-3.7466,-3.7775,-3.8174,-3.7503,-3.7673,-3.8061,-3.7404,-3.7133,-3.7057,-3.7057,-3.7057,0.0,-3.6923,-3.698,-3.6921,-3.6374,-3.6563,-3.6766,-3.6354,-3.6583,-3.6884,-3.6884,-3.6884,-3.6884,-3.6884,-3.6542,-3.6245,-3.6245,-3.5876,-3.56,-3.56,-3.56,-3.56,-3.56,-3.56,-3.56,-3.56,-3.56,-3.56,-3.56,-3.56,-3.5211,-3.4336,-3.3173,-3.2124,-3.1241,-3.119,-3.119,-3.119,-3.119,-3.119,-3.119,-3.119,-3.119,-3.119,-3.1055,-3.0987,0.0,0.0,0.0,0.0,0.0,0.0,0.0,0.0,0.0,0.0,0.0,-3.8855,0.0,0.0,-3.8707,-3.8707,-3.8707,-3.8707,-3.8707,-3.9056,-3.9294,-3.9294,-3.9294,-3.9625,-4.0414,-4.0506,-4.0671,-4.1058,-4.1462,-4.1699,-4.1699,-4.1825,-4.221,-4.2873,-4.3031,-4.3414,-4.4085,-4.4236,-4.4175,-4.3886,-4.3589,-4.3283,-4.3005,-4.3304,-4.3447,-4.345,-4.3334,-4.3271,-4.3236,-4.314,-4.2554,-4.1638,-4.0966,-3.9891,-3.8747,-3.8747,-3.9059,-3.9443,-3.9033,-3.9275,-3.968,-3.9264,-3.8978,-3.8759,-3.8759,-3.8759,-3.8685,-3.8476,-3.8572,-3.8647,-3.8144,-3.7901,-3.7736,-3.7461,-3.73,-3.7209,-3.7209,-3.7209,-3.7209,-3.7209,-3.6981,-3.6803,-3.6803,-3.6583,-3.6312,-3.6032,-3.6006,-3.6006,-3.6006,-3.5761,-3.56,-3.56,-3.56,-3.56,-3.56,-3.5267,-3.4726,-3.3998,-3.2919,-3.1972,-3.1224,-3.119,-3.119,-3.119,-3.119,-3.119,-3.119,-3.119,-3.119,-3.119,-3.119,-3.119,0.0,0.0,0.0,0.0,0.0,0.0,0.0,0.0,-3.9294,-3.8807,-3.8707,-3.8707,-3.8707,-3.8707,-3.8707,-3.8707,-3.8707,-3.8762,-3.8909,-3.9478,-4.0026,-4.0322,-4.023,-4.0451,-4.126,-4.1334,-4.1389,-4.1535,-4.2176,-4.2598,-4.2763,-4.3369,-4.3791,-4.3974,-4.4599,-4.4947,-4.4947,-4.5571,-4.568,-4.5258,-4.5258,-4.5001,-4.4546,-4.5041,-4.5258,-4.5222,-4.4587,-4.4544,-4.4892,-4.4232,-4.3633,-4.3099,-4.3099,-4.1968,-4.0329,-4.0113,-4.0349,-4.0727,-4.0564,-4.0868,-4.1297,-4.115,-4.0823,-4.0455,-4.0455,-4.0455,-4.0384,-3.9997,-4.0165,-4.033,-3.9865,-3.9324,-3.8897,-3.8784,-3.8216,-3.772,-3.772,-3.7594,-3.7487,-3.7487,-3.7414,-3.7341,-3.7341,-3.7341,-3.7154,-3.6623,-3.6457,-3.6395,-3.6395,-3.5941,-3.56,-3.56,-3.56,-3.56,-3.56,-3.5064,-3.4336,-3.3457,-3.2831,-3.2124,-3.1241,-3.119,-3.119,-3.119,-3.119,-3.119,-3.119,-3.119,-3.119,-3.119,-3.119,-3.119,-3.9036,-3.9139,-3.9104,-3.8859,-3.8837,-3.8837,0.0,0.0,-3.8777,-3.8704,-3.8707,-3.8707,-3.8707,-3.8707,-3.8707,-3.8707,-3.8707,-3.8946,-3.9662,-3.9827,-4.0432,-4.1864,-4.1405,-4.1295,-4.2084,-4.2176,-4.2451,-4.3167,-4.3296,-4.3681,-4.4397,-4.4525,-4.4892,-4.5608,-4.5718,-4.5773,-4.5773,-4.5865,-4.5883,-4.581,-4.581,-4.5773,-4.5718,-4.5792,-4.581,-4.581,-4.5718,-4.57,-4.5755,-4.5663,-4.5168,-4.4473,-4.4473,-4.3905,-4.294,-4.1917,-4.1933,-4.2314,-4.1538,-4.1669,-4.2047,-4.1334,-4.1062,-4.1011,-4.1011,-4.1011,-4.1011,-4.0961,-4.0978,-4.0892,-4.0348,-4.0507,-4.0679,-4.0203,-3.9834,-3.9607,-3.9607,-3.9042,-3.853,-3.853,-3.815,-3.7825,-3.7825,-3.7825,-3.7667,-3.7173,-3.6704,-3.6395,-3.6395,-3.5941,-3.56,-3.56,-3.56,-3.56,-3.56,-3.5515,-3.4873,-3.3491,-3.3322,-3.2645,-3.1258,-3.119,-3.119,-3.119,-3.119,-3.119,-3.119,-3.119,-3.119,-3.119,-3.119,-3.119,-3.8844,-3.8985,0.0,0.0,-3.8833,-3.888,-3.8735,-3.8815,-3.8919,-3.8919,-3.8919,-3.8919,-3.8919,-3.8919,-3.8884,0.0,-3.9093,-3.9515,-3.9845,-4.0708,-4.1552,-4.2213,-4.2415,-4.2635,-4.2965,-4.3002,-4.3332,-4.414,-4.4195,-4.4544,-4.5369,-4.5406,-4.5553,-4.5883,-4.6361,-4.6599,-4.6599,-4.7058,-4.7297,-4.7297,-4.7297,-4.7297,-4.7297,-4.7297,-4.704,-4.6599,-4.6599,-4.6342,-4.5902,-4.5902,-4.57,-4.5406,-4.5406,-4.5186,-4.4728,-4.3304,-4.2958,-4.3123,-4.2759,-4.2791,-4.2928,-4.2598,-4.2506,-4.2506,-4.2506,-4.2506,-4.2506,-4.2506,-4.2506,-4.2454,-4.2227,-4.1986,-4.1741,-4.1534,-4.1016,-4.0598,-4.0598,-3.9974,-3.9405,-3.9405,-3.8841,-3.8366,-3.8366,-3.8366,-3.8283,-3.8083,-3.7632,-3.7268,-3.7268,-3.6583,-3.5941,-3.5627,-3.56,-3.56,-3.56,-3.56,-3.4957,-3.3487,-3.3406,-3.2747,-3.1258,-3.119,-3.119,-3.119,-3.119,-3.119,-3.119,-3.119,-3.119,-3.119,-3.119,-3.119,-3.8848,0.0,0.0,-3.8777,-3.8894,-3.9049,-3.8855,-3.9027,-3.9238,-3.9238,-3.9238,-3.9199,-3.9125,-3.9112,-3.8994,-3.8732,-3.9386,-3.9974,-4.0194,-4.1501,-4.249,-4.2615,-4.3231,-4.3689,-4.3827,-4.3828,-4.4066,-4.4672,-4.4911,-4.5388,-4.6195,-4.6232,-4.6324,-4.6544,-4.7131,-4.7424,-4.7424,-4.8012,-4.8306,-4.8306,-4.8306,-4.8306,-4.8306,-4.8306,-4.7994,-4.7424,-4.7424,-4.7113,-4.6562,-4.6562,-4.6434,-4.6232,-4.6232,-4.6104,-4.5755,-4.458,-4.4158,-4.4158,-4.4158,-4.4158,-4.4121,-4.3901,-4.3828,-4.3791,-4.357,-4.3515,-4.3515,-4.3515,-4.3515,-4.3515,-4.3515,-4.3057,-4.2635,-4.2635,-4.2029,-4.1425,-4.1425,-4.0799,-4.023,-4.023,-3.9588,-3.9038,-3.9038,-3.8854,-3.8707,-3.8707,-3.8366,-3.8065,-3.7929,-3.7154,-3.646,-3.6097,-3.6054,-3.6054,-3.6054,-3.6054,-3.5402,-3.3877,-3.3791,-3.3122,-3.1614,-3.1562,-3.1562,-3.1562,-3.143,-3.137,-3.137,-3.1252,-3.119,-3.119,-3.119,-3.119,0.0,0.0,-3.9036,-3.8777,-3.8894,-3.9099,-3.9085,-3.9358,-3.9587,-3.9587,-3.9587,-3.9493,-3.9165,-3.9112,-3.8994,-3.8732,-3.9386,-4.0175,-4.0948,-4.2048,-4.2953,-4.3419,-4.377,-4.4165,0.0,-4.4672,-4.4654,-4.4691,-4.5424,-4.6214,-4.7021,-4.7058,-4.7406,-4.8214,-4.8251,-4.8269,-4.8269,-4.8306,-4.8306,-4.8306,-4.8306,-4.8306,-4.8306,-4.8306,-4.8306,-4.8269,-4.8269,-4.8251,-4.8233,-4.8233,-4.7755,-4.7058,-4.7058,-4.6581,-4.5883,-4.5847,-4.5828,-4.5828,-4.5828,-4.5828,-4.57,-4.4929,-4.4672,-4.4525,-4.3736,-4.3515,-4.3515,-4.3515,-4.3515,-4.3515,-4.3515,-4.3478,-4.346,-4.346,-4.2837,-4.2268,-4.2268,-4.1627,-4.1058,-4.1058,-4.0414,-3.9845,-3.9845,-3.9221,-3.8707,-3.8707,-3.8692,-3.8481,-3.7963,-3.747,-3.7154,-3.7135,-3.7135,-3.7135,-3.7135,-3.7135,-3.6463,-3.4854,-3.4748,-3.4076,-3.252,-3.2467,-3.2467,-3.2467,-3.2004,-3.1789,-3.1789,-3.1389,-3.119,-3.119,-3.119,-3.119,0.0,0.0,-3.9358,-3.904,-3.9192,-3.9426,-3.9426,-3.9529,-3.9656,-3.9891,-3.9922,-3.9901,-3.9786,-3.9765,-3.9587,-3.9054,-4.0129,-4.1111,-4.1401,-4.2675,-4.3759,-4.419,-4.4576,0.0,0.0,0.0,0.0,-4.6214,-4.6526,-4.7039,-4.7846,-4.7901,-4.8012,-4.8306,-4.8306,-4.8306,-4.8306,-4.8306,-4.8306,-4.8306,-4.8306,-4.8306,-4.8306,-4.8306,-4.8306,-4.8306,-4.8306,-4.8306,-4.8306,-4.8306,-4.8141,-4.7901,-4.7901,-4.7737,-4.7498,-4.7498,-4.7498,-4.7352,-4.6269,-4.5902,-4.5865,-4.5571,-4.5498,-4.5443,-4.5168,-4.5094,-4.4984,-4.4452,-4.4305,-4.4176,-4.3626,-4.3515,-4.3515,-4.3515,-4.3277,-4.3094,-4.3094,-4.2451,-4.1901,-4.1901,-4.1258,-4.0524,-3.9992,-3.968,-3.9313,-3.8781,-3.8707,-3.8515,-3.7963,-3.7755,-3.7542,-3.7229,-3.7209,-3.7209,-3.7209,-3.7209,-3.6731,-3.5651,-3.5598,-3.4889,-3.3348,-3.3295,-3.3047,-3.2501,-3.2039,-3.1807,-3.1807,-3.1408,-3.119,-3.119,-3.119,-3.119,0.0,-3.9445,-3.9552,-3.9327,-3.9541,-3.9775,-3.9775,-3.9842,-3.9984,-4.0204,-4.0232,-4.0204,-4.012,-4.0101,-3.9922,-3.9364,-4.0686,-4.179,-4.178,-4.3281,-4.4441,-4.458,-4.5197,0.0,0.0,0.0,0.0,-4.704,-4.7369,-4.7736,-4.8269,-4.8306,-4.8306,-4.8306,-4.8306,-4.8306,-4.8306,-4.8306,-4.8306,-4.8306,-4.8306,-4.8306,-4.8306,-4.8306,-4.8306,-4.8306,-4.8306,-4.8306,-4.8306,-4.8306,-4.8306,-4.8306,-4.8306,-4.8306,-4.8306,-4.8306,-4.8306,-4.8159,-4.7131,-4.6764,-4.6709,-4.6416,-4.6342,-4.6287,-4.5993,-4.5902,-4.5792,-4.5278,-4.5131,-4.4947,-4.414,-4.392,-4.3864,-4.357,-4.3515,-4.3515,-4.3515,-4.3075,-4.2727,-4.2727,-4.2084,-4.1368,-4.0855,-4.0267,-3.9625,-3.8817,-3.8707,-3.8596,-3.8216,-3.8183,-3.8065,-3.7773,-3.7738,-3.7738,-3.7738,-3.7738,-3.7379,-3.6588,-3.6534,-3.596,-3.4683,-3.4629,-3.4235,-3.3414,-3.2789,-3.2336,-3.2039,-3.1487,-3.119,-3.119,-3.119,-3.119,-3.972,-3.9611,-3.9599,-3.9622,-3.988,-4.012,-4.012,-4.0321,-4.0496,-4.0496,-4.0496,-4.0414,0.0,0.0,-4.0012,-3.9679,-4.1038,-4.2133,-4.2133,-4.3833,-4.4977,0.0,0.0,0.0,0.0,0.0,0.0,-4.7243,0.0,-4.8306,-4.8306,-4.8306,-4.8306,-4.8306,-4.8306,-4.8306,-4.8306,-4.8306,-4.8306,-4.8306,-4.8306,-4.8306,-4.8306,-4.8306,-4.8306,-4.8306,-4.8306,-4.8306,-4.8306,-4.8306,-4.8306,-4.8306,-4.8306,-4.8306,-4.8306,-4.8306,-4.8306,-4.8306,-4.8306,-4.8306,-4.8177,-4.7406,-4.7168,-4.7021,-4.625,-4.6012,-4.6012,-4.5975,-4.5957,-4.5773,-4.4984,-4.4746,-4.4562,-4.3736,-4.3552,-4.3551,-4.3515,-4.3515,-4.3515,-4.3515,-4.2837,-4.2286,-4.2249,-4.0928,-3.9625,-3.8817,-3.8707,-3.8707,-3.8707,-3.8707,-3.8707,-3.8707,-3.8707,-3.8707,-3.8707,-3.8707,-3.8377,-3.7621,-3.7566,-3.7199,-3.6376,-3.6358,-3.5954,-3.5078,-3.4235,-3.3382,-3.2554,-3.1726,-3.1263,-3.119,-3.119,-3.119,-3.9922,-3.9786,-3.9656,-3.9912,-4.0195,-4.0389,-4.0389,-4.0457,-4.0496,-4.0496,-4.0496,-4.0481,0.0,0.0,0.0,-4.0022,-4.1341,0.0,-4.2476,-4.3996,0.0,0.0,0.0,-4.7196,-4.7214,-4.8315,0.0,0.0,-4.851,-4.8306,-4.8306,-4.8306,-4.8306,-4.8306,-4.8306,-4.8306,-4.8306,-4.8306,-4.8306,-4.8306,-4.8306,-4.8306,-4.8306,-4.8306,-4.8306,-4.8306,-4.8306,-4.8306,-4.8306,-4.8306,-4.8306,-4.8306,-4.8306,-4.8306,-4.8306,-4.8306,-4.8306,-4.8306,-4.8306,-4.8306,-4.8269,-4.8067,-4.7975,-4.7976,-4.7755,-4.77,-4.7572,-4.6947,-4.6782,-4.6599,-4.581,-4.559,-4.5388,-4.4599,-4.4397,-4.4232,-4.3643,-4.3515,-4.3515,-4.3515,-4.2837,-4.2121,-4.1499,-4.0579,-3.9625,-3.8817,-3.8707,-3.8707,-3.8707,-3.8707,-3.8707,-3.8707,-3.8707,-3.8707,-3.8707,-3.8707,-3.8615,-3.8414,-3.8395,-3.8028,-3.7235,-3.7199,-3.6813,-3.5973,-3.5401,-3.4552,-3.3401,-3.2875,-3.213,-3.119,-3.119,-3.119,-4.0061,-3.9953,-3.9882,-4.0204,-4.0381,-4.0496,-4.0496,-4.0496,-4.0496,-4.0496,-4.0496,0.0,0.0,0.0,0.0,0.0,0.0,0.0,-4.2766,-4.3925,-4.495,0.0,-4.6877,0.0,-4.7514,-4.8878,-4.9692,0.0,-4.8913,-4.8568,-4.8568,-4.8402,-4.8306,-4.8306,-4.8306,-4.8306,-4.8306,-4.8306,-4.8306,-4.8306,-4.8306,-4.8306,-4.8306,-4.8306,-4.8306,-4.8306,0.0,-4.8306,-4.8306,-4.8306,-4.8306,-4.8306,-4.8306,-4.8306,-4.8306,-4.8306,-4.8306,-4.8306,-4.8306,-4.8306,-4.8306,-4.8306,-4.8306,-4.8306,-4.8306,-4.8306,-4.8214,-4.7736,-4.7626,-4.7443,-4.6654,-4.6434,-4.6232,-4.5424,-4.4966,-4.458,-4.4121,-4.3736,-4.3515,-4.3515,-4.313,-4.2561,-4.1772,-4.0965,-4.0157,-3.935,-3.8927,-3.8707,-3.8707,-3.8707,-3.8707,-3.8707,-3.8707,-3.8707,-3.8707,-3.8707,-3.8707,-3.8707,-3.8707,-3.8505,-3.8046,-3.8028,-3.7658,-3.685,-3.6363,-3.5609,-3.4537,-3.4111,-3.3524,-3.2811,-3.2597,-3.2346,-4.0139,-4.0129,-4.0158,-4.0422,-4.0496,-4.0496,-4.0496,-4.0496,-4.0496,-4.0496,0.0,0.0,-4.0496,0.0,-4.0496,-4.0496,0.0,-4.2104,-4.2989,-4.3797,-4.4624,-4.5498,-4.7086,-4.7952,-4.7613,-4.9148,-5.0043,-4.9692,-4.9295,-4.9011,-4.8913,-4.8568,-4.8345,-4.8306,-4.8306,-4.8306,-4.8306,-4.8306,-4.8361,-4.8471,-4.8471,-4.8526,-4.8636,-4.8636,-4.8636,-4.8636,-4.8636,-4.8636,-4.8636,-4.8636,-4.8636,-4.8636,-4.8508,-4.8471,-4.8471,-4.8343,-4.8306,-4.8306,-4.8306,-4.8306,-4.8306,-4.8306,-4.8306,-4.8306,-4.8306,-4.8306,-4.8306,-4.8306,-4.8306,-4.8141,-4.7443,-4.7259,-4.7058,-4.625,-4.5443,-4.4837,-4.4709,-4.4066,-4.3515,-4.3515,-4.3515,-4.3239,-4.2433,-4.1735,-4.0948,-4.0029,-3.9313,-3.8817,-3.8707,-3.8707,-3.8707,-3.8707,-3.8707,-3.8707,-3.8707,-3.8707,-3.8707,-3.8707,-3.8707,-3.8707,-3.8707,-3.8707,-3.8377,-3.7676,-3.7246,-3.662,-3.5758,-3.5359,-3.5065,-3.4889,-3.4491,-3.3954,-4.0372,-4.0278,-4.0158,-4.0422,-4.0496,-4.0496,-4.0496,-4.0496,0.0,0.0,0.0,-4.0496,-4.0496,-4.0496,0.0,-4.0496,0.0,0.0,0.0,0.0,-4.4624,0.0,0.0,0.0,0.0,0.0,0.0,0.0,0.0,-4.9603,-4.8947,-4.8829,-4.8639,-4.8306,-4.8306,-4.8306,-4.8306,-4.8306,-4.8655,-4.9372,-4.9372,-4.9719,-5.038,-5.038,-5.038,-5.038,-5.038,0.0,-5.038,-5.038,-5.038,-5.0306,-4.9627,-4.9372,-4.9298,-4.8563,-4.8306,-4.8306,-4.8306,-4.8306,-4.8306,-4.8306,-4.8306,-4.8306,-4.8306,-4.8306,-4.8306,-4.8306,-4.8306,-4.8269,-4.8141,-4.8104,-4.7902,-4.7076,-4.6287,-4.5516,-4.4838,-4.4066,-4.3515,-4.3515,-4.3515,-4.3239,-4.2433,-4.2176,-4.1589,-4.012,-3.9772,-3.9441,-3.8799,-3.8707,-3.8707,-3.8707,-3.8707,-3.8707,-3.8707,-3.8707,-3.8707,-3.8707,-3.8707,-3.8707,-3.8707,-3.8707,-3.8634,-3.8487,-3.8407,-3.7781,-3.6589,-3.6506,-3.5928,-3.4906,-3.4818,-3.4712,-4.0465,-4.0417,-4.0339,-4.0473,-4.0496,-4.0496,-4.0496,0.0,0.0,0.0,0.0,-4.0496,-4.0496,0.0,0.0,0.0,0.0,0.0,0.0,0.0,0.0,0.0,0.0,0.0,0.0,0.0,0.0,0.0,0.0,-5.0159,-4.9561,-4.9139,-4.8795,-4.8622,-4.8402,-4.8526,-4.8967,-4.8967,-4.9389,-5.0215,-5.0215,-5.0417,-5.0802,-5.0802,-5.0802,-5.0802,-5.0802,-5.0802,-5.0802,-5.0802,-5.0802,-5.0765,-5.038,-5.0215,-5.016,-4.9756,-4.9334,-4.8967,-4.8967,-4.8673,-4.8306,-4.8306,-4.8306,-4.8306,-4.8306,-4.8306,-4.8306,-4.8306,-4.8306,-4.8306,-4.8306,-4.8306,-4.8214,-4.781,-4.6801,-4.5681,-4.4856,-4.4066,-4.3515,-4.3515,-4.3515,-4.3386,-4.2983,-4.258,-4.1901,-4.0708,-4.0175,-3.9606,-3.8799,-3.8707,-3.8707,-3.8707,-3.8707,-3.8707,-3.8707,-3.8707,-3.8707,-3.8707,-3.8707,-3.8707,-3.8707,-3.8707,-3.8707,-3.8707,-3.8707,-3.8394,-3.7785,-3.7785,-3.7469,-3.6857,-3.6587,-3.627,-4.0496,-4.0496,-4.0496,-4.0496,-4.0496,-4.0496,-4.0496,-4.0496,0.0,0.0,-4.0496,-4.0496,-4.0496,0.0,0.0,0.0,0.0,0.0,0.0,0.0,0.0,0.0,0.0,0.0,0.0,0.0,0.0,0.0,0.0,0.0,-5.0116,-4.9431,-4.912,-4.9288,-4.8917,-4.9102,-4.9987,-4.9908,-5.0251,-5.1059,-5.1059,-5.1151,-5.1316,-5.1316,-5.1316,-5.1316,-5.1316,-5.1316,-5.1316,-5.1316,-5.1316,-5.1298,-5.1114,-5.1059,-5.1041,-5.0857,-5.0398,-4.9831,-4.9665,-4.9132,-4.8545,-4.8361,-4.8306,-4.8306,-4.8306,-4.8306,-4.8306,-4.8306,-4.8306,-4.8306,-4.8306,-4.8306,-4.8269,-4.8067,-4.6948,-4.5681,-4.4856,-4.4066,-4.3515,-4.3515,-4.3515,-4.3515,-4.3515,-4.2983,-4.2231,-4.1242,-4.0561,-3.979,-3.8836,-3.8707,-3.8707,-3.8707,-3.8707,-3.8707,-3.8707,-3.8707,-3.8707,-3.8707,-3.8707,-3.8707,-3.8707,-3.8707,-3.8707,-3.8707,-3.8707,-3.8707,-3.8707,-3.8707,-3.8707,-3.8692,-3.8267,-3.7756,-4.0496,-4.0496,-4.0496,-4.0496,-4.0496,-4.0496,-4.0496,0.0,0.0,0.0,-4.0496,-4.0496,-4.0496,-4.0496,0.0,0.0,0.0,0.0,0.0,0.0,0.0,0.0,0.0,0.0,0.0,0.0,0.0,0.0,0.0,0.0,-5.0116,-4.9673,-4.9818,-5.0606,-5.0183,-5.0354,-5.1227,-5.0875,-5.1096,-5.1885,-5.1885,-5.227,-5.2965,-5.2965,-5.2965,-5.2965,-5.2965,-5.2965,0.0,-5.2965,-5.2965,-5.2913,-5.2179,-5.1885,-5.1793,-5.1077,-5.0747,-5.0582,-4.9867,-4.9555,-4.9353,-4.8563,-4.8306,-4.8306,-4.8306,-4.8306,-4.8306,-4.8306,-4.8306,-4.8306,-4.8306,-4.8306,-4.8122,-4.7369,-4.6544,-4.5681,-4.4856,-4.4066,-4.3515,-4.3515,-4.3515,-4.3515,-4.3515,-4.3441,-4.2873,-4.1334,-4.104,-4.0435,-3.8909,-3.8707,-3.8707,-3.8707,-3.8707,-3.8707,-3.8707,-3.8707,-3.8707,-3.8707,-3.8707,-3.8707,-3.8707,-3.8707,-3.8707,-3.8707,-3.8707,-3.8707,-3.8707,-3.8707,-3.8707,-3.8707,-3.8643,-3.859,-4.0496,-4.0496,-4.0496,-4.0496,-4.0496,-4.0496,-4.0496,0.0,0.0,-4.0496,-4.0496,-4.0496,-4.0496,-4.0496,-4.0496,0.0,0.0,0.0,0.0,0.0,0.0,0.0,0.0,0.0,0.0,0.0,0.0,0.0,0.0,0.0,-5.0472,-5.008,-5.0233,-5.1076,-5.0715,-5.1139,-5.2486,-5.2325,-5.2547,-5.3084,-5.3084,-5.311,-5.3185,-5.3185,-5.3185,-5.3185,-5.3185,-5.3185,0.0,-5.3185,-5.3185,-5.3167,-5.2858,-5.2729,-5.2692,-5.2362,-5.194,-5.1481,-5.1151,-5.0418,-4.9537,-4.9187,-4.8728,-4.8306,-4.8306,-4.8306,-4.8306,-4.8306,-4.8306,-4.8306,-4.8306,-4.8306,-4.8233,-4.7901,-4.6838,-4.581,-4.5498,-4.4397,-4.3515,-4.3515,-4.3515,-4.3515,-4.3515,-4.3515,-4.3112,-4.1992,-4.1407,-4.0691,-3.957,-3.9001,-3.8707,-3.8707,-3.8707,-3.8707,-3.8707,-3.8707,-3.8707,-3.8707,-3.8707,-3.8707,-3.8707,-3.8707,-3.8707,-3.8707,-3.8707,-3.8707,-3.8707,-3.8707,-3.8707,-3.8707,-3.8707,-3.8707,-4.0496,-4.0496,-4.0496,-4.0496,-4.0496,-4.0496,0.0,0.0,-4.0496,-4.0496,-4.0496,-4.0496,-4.0496,-4.0496,-4.0496,-4.0496,0.0,0.0,0.0,0.0,0.0,0.0,0.0,0.0,0.0,0.0,0.0,0.0,0.0,0.0,-5.0712,-5.0432,-5.075,-5.1832,-5.1526,-5.211,-5.3754,-5.3637,-5.3736,-5.3995,-5.3995,-5.387,-5.3583,-5.3442,-5.3462,-5.3583,-5.3442,-5.3462,0.0,-5.3442,-5.338,-5.338,-5.338,-5.338,-5.3381,-5.3524,-5.3153,-5.2496,-5.2257,-5.1199,-4.9922,-4.9684,-4.9003,-4.8306,-4.8306,-4.8306,-4.8306,-4.8306,-4.8306,-4.8306,-4.8306,-4.8306,-4.8306,-4.8306,-4.7076,-4.5902,-4.5902,-4.4635,-4.3515,-4.3515,-4.3515,-4.3515,-4.3515,-4.3515,-4.3222,-4.2415,-4.1625,-4.0802,-3.9992,-3.9203,-3.8707,-3.8707,-3.8707,-3.8707,-3.8707,-3.8707,-3.8707,-3.8707,-3.8707,-3.8707,-3.8707,-3.8707,-3.8707,-3.8707,-3.8707,-3.8707,-3.8707,-3.8707,-3.8707,-3.8707,-3.8707,-3.8707,-4.0496,-4.0496,-4.0496,-4.0496,-4.0496,-4.0496,0.0,0.0,-4.0496,-4.0496,-4.0496,-4.0496,-4.0496,-4.0496,-4.0496,-4.0496,-4.0496,0.0,0.0,0.0,0.0,0.0,0.0,0.0,0.0,0.0,0.0,0.0,0.0,0.0,-5.0712,-5.0702,-5.1452,-5.3135,-5.2796,-5.3384,-5.5069,-5.4686,-5.4484,-5.4503,-5.4503,-5.4503,-5.4471,-5.4014,-5.4048,-5.4471,-5.3995,-5.4048,0.0,-5.3996,-5.3796,-5.3796,-5.3796,-5.3796,-5.3851,-5.4324,-5.4187,-5.3665,-5.2864,-5.1805,-5.0655,-4.9867,-4.9003,-4.8306,-4.8306,-4.8306,-4.8306,-4.8306,-4.8306,-4.8306,-4.8306,-4.8306,-4.8306,-4.8306,-4.7076,-4.5902,-4.5902,-4.4635,-4.3515,-4.3515,-4.3515,-4.3515,-4.3515,-4.3515,-4.3222,-4.2415,-4.1625,-4.0802,-3.9992,-3.9203,-3.8707,-3.8707,-3.8707,-3.8707,-3.8707,-3.8707,-3.8707,-3.8707,-3.8707,-3.8707,-3.8707,-3.8707,-3.8707,-3.8707,-3.8707,-3.8707,-3.8707,-3.8707,-3.8707,-3.8707,-3.8707,-3.8707,-4.0496,-4.0496,-4.0496,-4.0496,-4.0496,-4.0496,-4.0496,-4.0496,-4.0496,-4.0496,-4.0496,-4.0496,-4.0496,-4.0496,-4.0496,-4.0496,-4.0496,0.0,0.0,0.0,0.0,0.0,0.0,0.0,0.0,0.0,0.0,0.0,0.0,0.0,-5.0712,-5.0712,-5.1202,-5.2269,-5.2762,-5.3544,-5.4676,-5.51,-5.5186,-5.4924,-5.4924,-5.4779,-5.4503,-5.4357,-5.4355,0.0,-5.4338,-5.4355,-5.4487,-5.4338,-5.4272,-5.4272,-5.4272,-5.4083,-5.3814,-5.3959,-5.3739,-5.3271,-5.2461,-5.1567,-5.0674,-4.9867,-4.9003,-4.8306,-4.8306,-4.8306,-4.8306,-4.8306,-4.8306,-4.8306,-4.8306,-4.8306,-4.8306,-4.8306,-4.7076,-4.5902,-4.5902,-4.4635,-4.3515,-4.3515,-4.3515,-4.3515,-4.3515,-4.3515,-4.3423,-4.3149,-4.1974,-4.1003,-4.0747,-3.9551,-3.8707,-3.8707,-3.8707,-3.8707,-3.8707,-3.8707,-3.8707,-3.8707,-3.8707,-3.8707,-3.8707,-3.8707,-3.8707,-3.8707,-3.8707,-3.8707,-3.8707,-3.8707,-3.8707,-3.8707,-3.8707,-3.8707,0.0,-4.0581,-4.0566,-4.0512,-4.0496,0.0,0.0,-4.0549,-4.0519,-4.0566,-4.0549,-4.0496,-4.0496,-4.0496,-4.0496,-4.0496,-4.0496,0.0,0.0,0.0,0.0,0.0,0.0,0.0,0.0,0.0,0.0,0.0,0.0,0.0,-5.0712,-5.0712,-5.0933,-5.1433,-5.2279,-5.3126,-5.3991,-5.4838,-5.5116,-5.4879,-5.5185,-5.5199,-5.4952,-5.4809,-5.4804,0.0,-5.479,-5.4804,0.0,-5.4775,-5.4735,-5.4735,-5.4735,-5.4544,-5.4301,-5.4462,-5.4251,-5.3794,-5.2973,-5.2064,-5.112,-5.0285,-4.9449,-4.8763,-4.8763,-4.855,-4.8306,-4.8306,-4.8306,-4.8326,-4.8477,-4.8532,-4.855,-4.871,-4.7417,-4.6131,-4.6131,-4.4838,-4.3677,-4.3677,-4.3804,-4.3915,-4.3915,-4.3915,-4.3915,-4.3915,-4.2782,-4.1835,-4.1523,-4.035,-3.9403,-3.9073,-3.8927,-3.884,-3.884,-3.8762,-3.8707,-3.8707,-3.8707,-3.8707,-3.8707,-3.8707,-3.8707,-3.8707,-3.8707,-3.8707,-3.8707,-3.8707,-3.8707,-3.8707,-3.8707,-3.8707,0.0,0.0,0.0,0.0,0.0,0.0,0.0,-4.0604,0.0,-4.0686,-4.0603,-4.0519,-4.0519,-4.0504,-4.0496,-4.0496,-4.0496,0.0,0.0,0.0,0.0,0.0,0.0,0.0,0.0,0.0,0.0,0.0,0.0,0.0,-5.0712,-5.0712,-5.0712,-5.0712,-5.1414,-5.2231,-5.3106,-5.3972,-5.4414,-5.4414,-5.5164,-5.5549,-5.5596,-5.5242,-5.5286,0.0,-5.5306,-5.5343,-5.5662,-5.5294,-5.5147,-5.5147,-5.5147,-5.5134,-5.5128,-5.5455,-5.5315,-5.4819,-5.3891,-5.285,-5.1749,-5.0904,-5.0111,-4.9489,-4.9489,-4.898,-4.8383,-4.8383,-4.8383,-4.8477,-4.8847,-4.8947,-4.9027,-4.9416,-4.7977,-4.6551,-4.6551,-4.5214,-4.4028,-4.4028,-4.4332,-4.4593,-4.4593,-4.4593,-4.4593,-4.4593,-4.3869,-4.3007,-4.2203,-4.1397,-4.0578,-3.9686,-3.9314,-3.9139,-3.9093,-3.884,-3.8707,-3.8707,-3.8707,-3.8707,-3.8707,-3.8707,-3.8707,-3.8707,-3.8707,-3.8707,-3.8707,-3.8707,-3.8707,-3.8707,-3.8707,-3.8707,-4.0969,0.0,-4.077,-4.0743,0.0,0.0,0.0,-4.0757,-4.0747,0.0,0.0,0.0,0.0,-4.0574,-4.0496,0.0,0.0,0.0,0.0,0.0,0.0,0.0,0.0,0.0,0.0,0.0,0.0,0.0,0.0,-5.0712,-5.0712,-5.0712,-5.0712,-5.0712,-5.0875,-5.1375,-5.2192,-5.3068,-5.351,-5.351,-5.3703,-5.4145,-5.478,-5.4677,-5.5023,-5.5684,-5.5599,-5.5599,-5.5684,-5.5599,-5.5566,-5.5566,-5.5566,-5.5375,-5.5025,-5.4473,-5.3976,-5.3437,-5.1943,-5.1242,-5.0866,-5.0055,-4.964,-4.9489,-4.9489,-4.9371,-4.9218,-4.9218,-4.9218,-4.9234,-4.9341,-4.9356,-4.9386,-4.9475,-4.815,-4.6887,-4.6887,-4.5608,-4.446,-4.446,-4.4527,-4.4593,-4.4593,-4.4593,-4.4593,-4.4593,-4.3869,-4.3007,-4.2203,-4.1397,-4.0578,-3.9686,-3.9541,-3.9377,-3.9125,-3.884,-3.8707,-3.8707,-3.8707,-3.8707,-3.8707,-3.8707,-3.8707,-3.8707,-3.8707,-3.8707,-3.8707,-3.8707,-3.8707,-3.8707,-3.8707,-3.8707,-4.1105,-4.0994,-4.0874,-4.0809,-4.0797,-4.0813,-4.0874,0.0,0.0,0.0,0.0,0.0,0.0,0.0,0.0,0.0,0.0,0.0,0.0,0.0,0.0,0.0,0.0,0.0,0.0,0.0,0.0,0.0,0.0,-5.0712,-5.0712,-5.0712,-5.0712,-5.0712,-5.0712,-5.0914,-5.1356,-5.2183,-5.2596,-5.2596,-5.301,-5.3453,-5.3895,-5.3895,-5.4145,-5.4549,-5.4549,-5.4549,-5.4549,-5.4549,-5.4549,-5.4549,-5.4549,-5.4414,-5.4168,-5.3709,-5.3397,-5.3002,-5.1688,-5.1015,-5.0634,-5.0177,-5.0056,-5.0056,-5.0056,-5.0056,-4.9974,-4.9589,-4.9489,-4.9532,-4.9733,-4.9773,-4.9813,-5.0019,-4.8631,-4.7277,-4.7277,-4.5994,-4.4837,-4.4837,-4.4954,-4.5055,-4.5055,-4.5055,-4.5055,-4.5055,-4.4655,-4.3912,-4.272,-4.2177,-4.1425,-4.0147,-3.9903,-3.9765,-3.9576,-3.9275,-3.8998,-3.8723,-3.8707,-3.8707,-3.8707,-3.8707,-3.8707,-3.8707,-3.8707,-3.8707,-3.8707,-3.8707,-3.8707,-3.8707,-3.8707,-3.8707,-4.1191,-4.1126,-4.0996,-4.088,-4.0864,-4.0883,-4.0998,0.0,0.0,0.0,0.0,0.0,0.0,0.0,0.0,0.0,0.0,0.0,0.0,0.0,0.0,0.0,0.0,0.0,0.0,0.0,0.0,0.0,0.0,-5.0712,-5.0712,-5.0712,-5.0712,-5.0712,-5.0712,-5.0712,-5.0712,-5.1375,-5.1712,-5.1731,-5.2472,-5.2876,-5.301,-5.301,-5.3068,-5.3203,0.0,0.0,-5.3203,-5.3203,-5.3203,-5.3203,-5.3203,-5.3203,-5.3183,-5.3049,-5.301,-5.2876,-5.2019,-5.1279,-5.0712,-5.0712,-5.0712,-5.0712,-5.0712,-5.0712,-5.0554,-4.9885,-4.9692,-4.976,-5.0092,-5.0183,-5.0233,-5.0441,-4.9053,-4.7627,-4.7513,-4.626,-4.518,-4.518,-4.541,-4.5594,-4.5594,-4.5594,-4.5594,-4.5594,-4.5594,-4.5037,-4.347,-4.3181,-4.247,-4.0881,-4.0381,-4.0139,-4.0101,-3.9829,-3.9439,-3.8877,-3.8833,-3.8833,-3.8833,-3.8833,-3.8833,-3.8833,-3.8792,-3.8762,-3.8762,-3.8719,-3.8707,-3.8707,-3.8707,-3.8707,-4.1191,-4.1172,-4.1151,-4.1149,-4.1149,-4.1149,-4.1151,0.0,0.0,0.0,0.0,0.0,0.0,0.0,0.0,0.0,0.0,0.0,0.0,0.0,0.0,0.0,0.0,0.0,0.0,0.0,0.0,0.0,0.0,-5.0712,-5.0712,-5.0712,-5.0712,-5.0712,-5.0712,-5.0712,-5.0712,-5.0827,-5.0875,-5.0894,-5.102,-5.1433,-5.2096,-5.2096,-5.25,-5.3203,0.0,-5.3203,-5.3203,-5.3203,-5.3203,-5.3203,-5.3203,-5.3203,-5.3106,-5.2365,-5.2096,-5.1981,-5.1164,-5.0808,-5.0712,-5.0712,-5.0712,-5.0712,-5.0712,-5.0712,-5.0673,-5.0554,-5.0523,-5.0534,-5.0594,-5.0604,-5.0441,-4.975,-4.8789,-4.7838,-4.7146,-4.6224,-4.5522,-4.5522,-4.5568,-4.5594,-4.5594,-4.5594,-4.5594,-4.5594,-4.5594,-4.5248,-4.4239,-4.3528,-4.272,-4.172,-4.0907,-4.0347,-4.012,-4.0042,-3.987,-3.95,-3.9457,-3.9457,-3.9457,-3.9457,-3.9457,-3.9457,-3.9178,-3.9036,-3.9036,-3.8818,-3.8707,-3.8707,-3.8707,-3.8707,-4.1074,-4.1191,-4.1191,-4.1191,-4.1191,-4.1191,-4.1191,0.0,0.0,0.0,0.0,0.0,0.0,0.0,0.0,0.0,0.0,0.0,0.0,0.0,0.0,0.0,0.0,0.0,0.0,0.0,0.0,0.0,0.0,0.0,-5.0712,-5.0712,-5.0712,-5.0712,-5.0712,-5.0712,-5.0712,-5.0712,-5.0712,-5.0712,-5.0712,-5.0894,-5.1241,-5.1241,-5.1471,-5.1856,0.0,-5.1856,-5.1856,-5.1856,-5.1856,-5.1856,-5.1856,-5.1856,-5.1798,-5.1395,-5.1241,-5.1202,-5.0827,-5.0712,-5.0712,-5.0712,-5.0712,-5.0712,-5.0712,-5.0712,-5.0712,-5.0712,-5.0712,-5.0712,-5.0712,-5.0712,-5.0481,-4.9606,-4.874,-4.7875,-4.7058,-4.622,-4.5594,-4.5594,-4.5594,-4.5594,-4.5594,-4.5594,-4.5594,-4.5594,-4.5594,-4.5287,-4.4412,-4.3605,-4.2777,-4.1885,-4.1027,-4.0457,-4.033,-4.0321,-4.0101,-3.9634,-3.9599,-3.9599,-3.9599,-3.9599,-3.9599,-3.9599,-3.9438,-3.9364,-3.9364,-3.9255,-3.9195,-3.9195,-3.9195,-3.9195,-4.0957,-4.1191,-4.1191,-4.1191,0.0,-4.1191,-4.1191,0.0,0.0,0.0,0.0,0.0,0.0,0.0,0.0,0.0,0.0,0.0,0.0,0.0,0.0,0.0,0.0,0.0,0.0,0.0,0.0,0.0,0.0,0.0,-5.0404,-5.0596,-5.0712,-5.0712,-5.0712,-5.0712,-5.0712,-5.0712,-5.0712,-5.0712,-5.0712,-5.0712,-5.0712,-5.0712,-5.0712,-5.0712,-5.0712,-5.0712,-5.0712,-5.0712,-5.0712,-5.0712,-5.0712,-5.0712,-5.0712,-5.0712,-5.0712,-5.0712,-5.0712,-5.0712,-5.0712,-5.0712,-5.0712,-5.0712,-5.0712,-5.0712,-5.0712,-5.0712,-5.0712,-5.0712,-5.0712,-5.0558,-5.0192,-4.9298,-4.8432,-4.7586,-4.6778,-4.6067,-4.5594,-4.5594,-4.5594,-4.5594,-4.5594,-4.5594,-4.5594,-4.5594,-4.5594,-4.5364,-4.4682,-4.372,-4.2835,-4.2181,-4.1143,-4.0496,-4.0496,-4.0496,-4.0292,-3.9842,-3.981,-3.981,-3.981,-3.981,-3.981,-3.981,-3.9746,-3.9731,-3.9731,-3.9634,-3.9599,-3.9599,-3.9599,-3.9599,-4.0957,-4.1191,-4.1191,-4.1191,-4.1191,0.0,-4.1191,-4.1191,0.0,0.0,0.0,0.0,0.0,0.0,0.0,0.0,0.0,0.0,0.0,0.0,0.0,0.0,0.0,0.0,0.0,0.0,0.0,0.0,0.0,0.0,-4.95,-5.0269,-5.0712,-5.0712,-5.0712,-5.0712,-5.0712,-5.0712,-5.0712,-5.0712,-5.0712,-5.0712,-5.0712,-5.0712,-5.0712,-5.0712,-5.0712,-5.0712,-5.0712,-5.0712,-5.0712,-5.0712,-5.0712,-5.0712,-5.0712,-5.0712,-5.0712,-5.0712,-5.0712,-5.0712,-5.0712,-5.0712,-5.0712,-5.0712,-5.0712,-5.0712,-5.0712,-5.0712,-5.0712,-5.0712,-5.0712,-5.0087,-4.926,-4.8394,-4.7586,-4.6759,-4.5883,-4.5633,-4.5594,-4.5594,-4.5594,-4.5594,-4.5594,-4.5594,-4.5594,-4.5594,-4.5594,-4.5575,-4.5518,-4.4105,-4.3085,-4.3008,-4.1497,-4.0496,-4.0496,-4.0496,-4.0481,-4.043,-4.043,-4.043,-4.043,-4.043,-4.043,-4.043,-4.0195,-4.0052,-4.0052,-3.9754,-3.9599,-3.9599,-3.9599,-3.9599,-4.082,-4.1191,-4.1191,-4.1191,-4.1191,0.0,0.0,0.0,0.0,0.0,0.0,0.0,0.0,0.0,0.0,0.0,0.0,0.0,0.0,0.0,0.0,0.0,0.0,0.0,0.0,0.0,0.0,0.0,0.0,0.0,-4.8596,-4.899,-4.9423,-4.9885,-4.9894,-5.0144,-5.0693,-5.0712,-5.0712,-5.0712,-5.0712,-5.0712,-5.0712,-5.0712,-5.0712,-5.0712,-5.0712,-5.0712,-5.0712,-5.0712,-5.0712,-5.0712,-5.0712,-5.0712,-5.0712,-5.0712,-5.0712,-5.0712,-5.0712,-5.0712,-5.0712,-5.0712,-5.0712,-5.0712,-5.0712,-5.0712,-5.0712,-5.0712,-5.0712,-5.0712,-5.0712,-5.0048,-4.9183,-4.8317,-4.749,-4.6663,-4.5787,-4.5594,-4.5594,-4.5594,-4.5594,-4.5594,-4.5594,-4.5594,-4.5594,-4.5594,-4.5594,-4.5594,-4.5594,-4.4566,-4.3643,-4.3143,-4.1535,-4.0496,-4.0496,-4.0496,-4.0496,-4.0496,-4.0496,-4.0496,-4.0496,-4.0496,-4.0496,-4.0496,-4.0397,-4.0347,-4.0347,-4.0221,-4.0157,-4.0157,-4.0157,-4.0157,-4.0723,-4.1191,-4.1191,0.0,0.0,0.0,0.0,0.0,0.0,0.0,0.0,0.0,0.0,0.0,0.0,0.0,0.0,0.0,0.0,0.0,0.0,0.0,0.0,0.0,0.0,0.0,0.0,0.0,0.0,0.0,0.0,-4.8053,-4.8475,-4.898,-4.899,-4.9279,-4.9875,-4.9875,-4.9875,-4.9875,-5.0164,-5.0442,-5.0712,-5.0712,-5.0712,-5.0712,-5.0712,-5.0712,-5.0712,-5.0712,-5.0712,-5.0712,-5.0712,-5.0712,-5.0712,-5.0712,-5.0712,-5.0712,-5.0712,-5.0712,-5.0712,-5.0712,-5.0712,-5.0712,-5.0712,-5.0712,-5.0712,-5.0712,-5.05,-5.0289,-5.0289,-4.9644,-4.8779,-4.7932,-4.7086,-4.6336,-4.5729,-4.5594,-4.5594,-4.5594,-4.5594,-4.5594,-4.5594,-4.5594,-4.5594,-4.5594,-4.5594,-4.5594,-4.5594,-4.4836,-4.3893,-4.2797,-4.1623,-4.0804,-4.0516,-4.0496,-4.0496,-4.0496,-4.0496,-4.0496,-4.0496,-4.0496,-4.0496,-4.0496,-4.0496,-4.0496,-4.0496,-4.0496,-4.0496,-4.0496,-4.0496,-4.0496,-4.0723,-4.1191,-4.1191,0.0,0.0,0.0,0.0,0.0,0.0,0.0,0.0,0.0,0.0,0.0,0.0,0.0,0.0,0.0,0.0,0.0,0.0,0.0,0.0,0.0,0.0,0.0,0.0,0.0,0.0,0.0,0.0,-4.7644,-4.8086,-4.8086,-4.8086,-4.8086,-4.8105,-4.8105,-4.8105,-4.8105,-4.8971,-4.9837,-5.0693,-5.0712,-5.0712,-5.0712,-5.0712,-5.0712,-5.0712,-5.0712,-5.0712,-5.0712,-5.0712,-5.0712,-5.0712,-5.0712,-5.0712,-5.0712,-5.0712,-5.0712,-5.0712,-5.0712,-5.0712,-5.0712,-5.0712,-5.0693,-5.0693,-5.0693,-5.0048,-4.9394,-4.9375,-4.874,-4.7894,-4.7077,-4.622,-4.5594,-4.5594,-4.5594,-4.5594,-4.5594,-4.5594,-4.5594,-4.5594,-4.5594,-4.5594,-4.5594,-4.5594,-4.5594,-4.5594,-4.4836,-4.3662,-4.1981,-4.1788,-4.145,-4.0573,-4.0496,-4.0496,-4.0496,-4.0496,-4.0496,-4.0496,-4.0496,-4.0496,-4.0496,-4.0496,-4.0496,-4.0496,-4.0496,-4.0496,-4.0496,-4.0496,-4.0496,-4.0723,-4.1191,0.0,0.0,0.0,0.0,0.0,0.0,0.0,0.0,0.0,0.0,0.0,0.0,0.0,0.0,0.0,0.0,0.0,0.0,0.0,0.0,0.0,0.0,0.0,0.0,0.0,0.0,0.0,0.0,0.0,-4.639,-4.677,-4.7249,-4.7259,-4.7528,-4.8086,-4.8105,-4.8105,-4.8105,-4.8355,-4.8933,-4.9798,-5.0423,-5.0712,-5.0712,-5.0712,-5.0712,-5.0712,-5.0712,-5.0712,-5.0712,-5.0712,-5.0712,-5.0712,-5.0712,-5.0712,-5.0712,-5.0712,-5.0712,-5.0712,-5.0712,-5.0712,-5.0712,-5.0712,-5.0269,-4.9779,-4.9779,-4.9163,-4.8355,-4.7798,-4.7451,-4.7201,-4.6962,-4.622,-4.5594,-4.5594,-4.5594,-4.5594,-4.5594,-4.5594,-4.5594,-4.5594,-4.5594,-4.5594,-4.5594,-4.5594,-4.5594,-4.5594,-4.4836,-4.3893,-4.2835,-4.2181,-4.145,-4.0573,-4.0496,-4.0496,-4.0496,-4.0496,-4.0496,-4.0496,-4.0496,-4.0496,-4.0496,-4.0496,-4.0496,-4.0496,-4.0496,-4.0496,-4.0496,-4.0496,-4.0496,-4.0703,0.0,0.0,0.0,0.0,0.0,0.0,0.0,0.0,0.0,0.0,0.0,0.0,0.0,0.0,0.0,0.0,0.0,0.0,0.0,0.0,0.0,0.0,0.0,0.0,0.0,0.0,0.0,0.0,0.0,0.0,-4.5881,-4.6099,-4.6496,-4.6472,-4.6695,-4.7177,-4.7131,-4.7105,-4.7105,-4.7471,-4.7894,-4.8432,-4.9279,-4.9663,-4.9663,-4.9663,-4.9856,-5.0183,-5.0183,-5.0385,-5.0712,-5.0712,-5.0712,-5.0712,-5.0712,-5.0712,-5.0712,-5.0712,-5.0712,-5.0712,-5.0712,-5.0481,-5.0183,-5.0183,-4.9567,-4.8875,-4.8875,-4.8279,-4.7509,-4.7019,-4.6644,-4.6374,-4.6374,-4.597,-4.5594,-4.5594,-4.5594,-4.5594,-4.5594,-4.5594,-4.5594,-4.5594,-4.5594,-4.5594,-4.5594,-4.5594,-4.5594,-4.5594,-4.5152,-4.4489,-4.3662,-4.2816,-4.197,-4.1085,-4.0708,-4.0496,-4.0496,-4.0496,-4.0496,-4.0496,-4.0496,-4.0496,-4.0496,-4.0496,-4.0496,-4.0496,-4.0496,-4.0496,-4.0496,-4.0496,-4.0496,0.0,0.0,0.0,0.0,0.0,0.0,0.0,0.0,0.0,0.0,0.0,0.0,0.0,0.0,0.0,0.0,0.0,0.0,0.0,0.0,0.0,0.0,0.0,0.0,0.0,0.0,0.0,0.0,0.0,0.0,0.0,-4.5916,-4.5912,-4.5899,-4.5842,-4.5803,-4.5803,-4.5692,-4.5627,-4.562,-4.6427,-4.6795,-4.6817,-4.7702,-4.8105,-4.8105,-4.8105,-4.8548,-4.9279,-4.9279,-4.974,-5.0462,-5.0462,-5.0462,-5.0462,-5.0462,-5.0462,-5.0462,-5.0462,-5.0462,-5.0462,-5.0462,-4.9933,-4.9279,-4.9279,-4.8682,-4.799,-4.799,-4.7413,-4.6778,-4.6778,-4.6182,-4.5594,-4.5594,-4.5594,-4.5594,-4.5594,-4.5594,-4.5594,-4.5594,-4.5594,-4.5594,-4.5594,-4.5594,-4.5594,-4.5594,-4.5594,-4.5594,-4.5594,-4.5594,-4.5267,-4.4393,-4.3643,-4.2835,-4.1885,-4.1066,-4.0573,-4.0516,-4.0496,-4.0496,-4.0496,-4.0496,-4.0496,-4.0496,-4.0496,-4.0496,-4.0496,-4.0496,-4.0496,-4.0496,-4.0496,-4.0496,0.0,0.0,0.0,0.0,0.0,0.0,0.0,0.0,0.0,0.0,0.0,0.0,0.0,0.0,0.0,0.0,0.0,0.0,0.0,0.0,0.0,0.0,0.0,0.0,0.0,0.0,0.0,0.0,0.0,0.0,-4.6053,-4.6069,-4.6001,-4.5903,-4.5896,-4.5881,-4.5881,-4.5852,-4.5819,-4.5761,-4.5993,-4.6035,-4.5932,-4.7413,-4.8105,-4.8105,-4.8105,-4.8221,-4.8375,-4.8375,-4.849,-4.8663,-4.8663,-4.8663,-4.8663,-4.8663,-4.8663,-4.8663,-4.8663,-4.8663,-4.8663,-4.8663,-4.8529,-4.8375,-4.8375,-4.7817,-4.7154,-4.7154,-4.6547,-4.5874,-4.5874,-4.5748,-4.5594,-4.5594,-4.5594,-4.5594,-4.5594,-4.5594,-4.5594,-4.5594,-4.5594,-4.5594,-4.5594,-4.5594,-4.5594,-4.5594,-4.5594,-4.5594,-4.5594,-4.5594,-4.5267,-4.4393,-4.4143,-4.3431,-4.1923,-4.1643,-4.1239,-4.0535,-4.0496,-4.0496,-4.0496,-4.0496,-4.0496,-4.0496,-4.0496,-4.0496,-4.0496,-4.0496,-4.0496,-4.0496,-4.0496,-4.0496,0.0,0.0,0.0,0.0,0.0,0.0,0.0,0.0,0.0,0.0,0.0,0.0,0.0,0.0,0.0,0.0,0.0,0.0,0.0,0.0,0.0,0.0,0.0,0.0,0.0,0.0,0.0,0.0,0.0,-4.5214,-4.5555,-4.5574,-4.5722,-4.6087,-4.6033,-4.5992,-4.5992,-4.5928,-4.5886,-4.5859,-4.5891,-4.5852,-4.5764,-4.6555,-4.6894,-4.6894,-4.6894,-4.7144,-4.7528,-4.7528,-4.7759,-4.8105,-4.8105,-4.8105,-4.8105,-4.8105,-4.8105,-4.8105,-4.8105,-4.8105,-4.8105,-4.8105,-4.7836,-4.7528,-4.7528,-4.6951,-4.6278,-4.6278,-4.5951,-4.562,-4.5688,-4.5651,-4.562,-4.5688,-4.5651,-4.5594,-4.5594,-4.5594,-4.5594,-4.5594,-4.5594,-4.5594,-4.5594,-4.5594,-4.5594,-4.5594,-4.5594,-4.5594,-4.5594,-4.5594,-4.5441,-4.4979,-4.4547,-4.3797,-4.2527,-4.2038,-4.1431,-4.0554,-4.0496,-4.0496,-4.0496,-4.0496,-4.0496,-4.0496,-4.0496,-4.0496,-4.0496,-4.0496,-4.0496,-4.0496,-4.0496,-4.0496,0.0,0.0,0.0,0.0,0.0,0.0,0.0,0.0,0.0,0.0,0.0,0.0,0.0,0.0,0.0,0.0,0.0,0.0,0.0,0.0,0.0,0.0,0.0,0.0,0.0,0.0,0.0,0.0,0.0,-4.4004,-4.4746,-4.4785,-4.5117,-4.582,-4.5886,-4.5908,-4.5908,-4.5952,-4.5967,-4.5928,-4.5912,-4.5912,-4.5924,-4.5737,-4.5645,-4.5645,-4.5645,-4.607,-4.6736,-4.6736,-4.7122,-4.772,-4.772,-4.772,-4.772,-4.772,-4.772,-4.772,-4.772,-4.772,-4.772,-4.772,-4.7276,-4.6736,-4.6736,-4.6224,-4.5645,-4.5645,-4.5645,-4.5692,-4.579,-4.5735,-4.5673,-4.579,-4.5735,-4.5648,-4.5612,-4.5635,-4.5657,-4.5643,-4.5635,-4.5637,-4.5603,-4.5629,-4.5635,-4.5635,-4.5648,-4.5645,-4.5645,-4.5645,-4.5645,-4.5645,-4.5009,-4.4238,-4.3428,-4.2579,-4.1692,-4.0831,-4.0639,-4.0554,-4.0554,-4.0554,-4.0554,-4.0554,-4.0515,-4.0496,-4.0496,-4.0496,-4.0496,-4.0496,-4.0496,-4.0496,0.0,0.0,0.0,0.0,0.0,0.0,0.0,0.0,0.0,0.0,0.0,0.0,0.0,0.0,0.0,0.0,0.0,0.0,0.0,0.0,0.0,0.0,0.0,0.0,0.0,0.0,0.0,0.0,-4.3262,-4.375,-4.3867,-4.3867,-4.3926,-4.4043,-4.4765,-4.5155,-4.5155,-4.5877,-4.6198,-4.6077,-4.5963,-4.5967,-4.6075,-4.5935,-4.5852,-4.5852,-4.5852,-4.5925,-4.6022,-4.6022,-4.61,-4.6197,-4.6197,-4.6197,-4.6197,-4.6197,-4.6197,-4.6197,-4.6197,-4.6197,-4.6197,-4.6197,-4.6119,-4.6022,-4.6022,-4.5944,-4.5852,-4.5852,-4.5852,-4.5852,-4.5872,-4.5862,-4.5857,-4.5872,-4.5862,-4.5803,-4.564,-4.5737,-4.5836,-4.5777,-4.5763,-4.5733,-4.5629,-4.5692,-4.5763,-4.5763,-4.5811,-4.5852,-4.5852,-4.5852,-4.5852,-4.5852,-4.5755,-4.5366,-4.4555,-4.3695,-4.2801,-4.193,-4.1187,-4.0755,-4.0755,-4.0755,-4.0755,-4.0755,-4.0584,-4.0496,-4.0496,-4.0496,-4.0496,-4.0496,-4.0496,-4.0496,0.0,0.0,0.0,0.0,0.0,0.0,0.0,0.0,0.0,0.0,0.0,0.0,0.0,0.0,0.0,0.0,0.0,0.0,0.0,0.0,0.0,0.0,0.0,0.0,0.0,0.0,0.0,0.0,-4.207,-4.25,-4.2949,-4.2969,-4.3203,-4.3672,-4.4062,-4.4277,-4.4277,-4.5137,-4.578,-4.6202,-4.6149,-4.6168,-4.6202,-4.6147,-4.6042,-4.5899,-4.5899,-4.5899,-4.5899,-4.5899,-4.5899,-4.5899,-4.5899,-4.5899,-4.5899,-4.5899,-4.5899,-4.5899,-4.5899,-4.5899,-4.5899,-4.5899,-4.5899,-4.5899,-4.5899,-4.5899,-4.5899,-4.5899,-4.5899,-4.5916,-4.5992,-4.5967,-4.5916,-4.5992,-4.6005,-4.5967,-4.5805,-4.5841,-4.5885,-4.5866,-4.5855,-4.5834,-4.5783,-4.5811,-4.5855,-4.5855,-4.5886,-4.5899,-4.5899,-4.5899,-4.5899,-4.5899,-4.5899,-4.5572,-4.4779,-4.4351,-4.3549,-4.219,-4.1739,-4.1307,-4.0817,-4.0797,-4.0797,-4.0797,-4.0718,-4.0647,-4.061,-4.061,-4.0561,-4.0496,-4.0496,-4.0496,0.0,0.0,0.0,0.0,0.0,0.0,0.0,0.0,0.0,0.0,0.0,0.0,0.0,0.0,0.0,0.0,0.0,0.0,0.0,0.0,0.0,0.0,0.0,0.0,0.0,0.0,0.0,0.0,-4.1191,-4.1465,-4.2051,-4.2109,-4.2383,-4.3047,-4.3262,-4.3379,-4.3379,-4.4238,-4.5,-4.5644,-4.5859,-4.5976,-4.5976,-4.6191,-4.6198,-4.5998,-4.5998,-4.5998,-4.5998,-4.5998,-4.5998,-4.5998,-4.5998,-4.5998,-4.5998,-4.5998,-4.5998,-4.5998,-4.5998,-4.5998,-4.5998,-4.5998,-4.5998,-4.5998,-4.5998,-4.5998,-4.5998,-4.5998,-4.5998,-4.6011,-4.6119,-4.608,-4.6033,-4.614,-4.6147,-4.6119,-4.6011,-4.5978,-4.594,-4.594,-4.594,-4.5932,-4.5903,-4.5924,-4.594,-4.594,-4.5981,-4.5998,-4.5998,-4.5998,-4.5998,-4.5998,-4.5998,-4.5764,-4.5163,-4.489,-4.413,-4.259,-4.2298,-4.1788,-4.0947,-4.0908,-4.0908,-4.0908,-4.0908,-4.0832,-4.0735,-4.0735,-4.0659,-4.0584,-4.0584,-4.0584,0.0,0.0,0.0,0.0,0.0,0.0,0.0,0.0,0.0,0.0,0.0,0.0,0.0,0.0,0.0,0.0,0.0,0.0,0.0,0.0,0.0,0.0,0.0,0.0,0.0,0.0,0.0,0.0,-4.1191,-4.1211,-4.1269,-4.1269,-4.1289,-4.1328,-4.207,-4.2461,-4.2461,-4.332,-4.3789,-4.3848,-4.4668,-4.5078,-4.5098,-4.5918,-4.6289,-4.6289,-4.6289,-4.6289,-4.6289,-4.6289,-4.6289,-4.6289,-4.6289,-4.6289,-4.6289,-4.6289,-4.6289,-4.6289,-4.6289,-4.6289,-4.6289,-4.6289,-4.6289,-4.6289,-4.6289,-4.6289,-4.6289,-4.6289,-4.6289,-4.6289,-4.6289,-4.6289,-4.6289,-4.6289,-4.6289,-4.6289,-4.6289,-4.6175,-4.6084,-4.6084,-4.6084,-4.6045,-4.592,-4.6018,-4.6084,-4.6084,-4.62,-4.6289,-4.6289,-4.6289,-4.6289,-4.6289,-4.6289,-4.6269,-4.621,-4.5468,-4.4589,-4.3671,-4.2832,-4.2011,-4.121,-4.1171,-4.1171,-4.1171,-4.1171,-4.1052,-4.0789,-4.0789,-4.0789,-4.0781,-4.0781,-4.0781,0.0,0.0,0.0,0.0,0.0,0.0,0.0,0.0,0.0,0.0,0.0,0.0,0.0,0.0,0.0,0.0,0.0,0.0,0.0,0.0,0.0,0.0,0.0,0.0,0.0,0.0,0.0,0.0,0.0,-4.1191,-4.1191,-4.1191,-4.1191,-4.1191,-4.1484,-4.1875,-4.2383,-4.2715,-4.3144,-4.3691,-4.4023,-4.418,-4.4199,-4.5078,-4.5469,-4.5508,-4.6055,-4.6308,-4.6308,-4.6308,-4.6308,-4.6308,-4.6308,-4.6308,-4.6308,-4.6308,-4.6308,-4.6308,-4.6308,-4.6308,-4.6308,-4.6308,-4.6308,-4.6308,-4.6308,-4.6308,-4.6308,-4.6308,-4.6308,-4.6308,-4.6308,-4.6308,-4.6308,-4.6308,-4.6308,-4.6308,-4.6308,-4.6268,-4.6225,-4.6225,-4.6225,-4.6203,-4.6171,-4.6199,-4.6225,-4.6225,-4.6268,-4.6308,-4.6308,-4.6308,-4.6308,-4.6308,-4.6308,-4.6308,-4.6308,-4.6016,-4.5215,-4.3789,-4.3418,-4.2617,-4.1269,-4.1191,-4.1191,-4.1191,-4.1191,-4.1105,-4.0922,-4.0922,-4.0877,-4.0797,-4.0797,-4.0797,0.0,0.0,0.0,0.0,0.0,0.0,0.0,0.0,0.0,0.0,0.0,0.0,0.0,0.0,0.0,0.0,0.0,0.0,0.0,0.0,0.0,0.0,0.0,0.0,0.0,0.0,0.0,0.0,0.0,0.0,-4.1191,-4.1191,-4.1191,-4.1191,-4.1191,-4.1465,-4.1992,-4.1992,-4.2285,-4.2851,-4.3125,-4.3262,-4.3281,-4.418,-4.4551,-4.4609,-4.5488,-4.6035,-4.6308,-4.6308,-4.6308,-4.6308,-4.6308,-4.6308,-4.6308,-4.6308,-4.6308,-4.6308,-4.6308,-4.6308,-4.6308,-4.6308,-4.6308,-4.6308,-4.6308,-4.6308,-4.6308,-4.6308,-4.6308,-4.6308,-4.6308,-4.6308,-4.6308,-4.6308,-4.6308,-4.6308,-4.6308,-4.6308,-4.6308,-4.6308,-4.6308,-4.6308,-4.6308,-4.6308,-4.6308,-4.6308,-4.6308,-4.6308,-4.6308,-4.6308,-4.6308,-4.6308,-4.6308,-4.6308,-4.6308,-4.6308,-4.5566,-4.3808,-4.3691,-4.2949,-4.1269,-4.1191,-4.1191,-4.1191,-4.1191,-4.115,-4.1076,-4.1076,-4.1023,-4.0925,-4.0925,-4.0925,0.0,0.0,0.0,0.0,0.0,0.0,0.0,0.0,0.0,0.0,0.0,0.0,0.0,0.0,0.0,0.0,0.0,0.0,0.0,0.0,0.0,0.0,0.0,0.0,0.0,0.0,0.0,0.0,-4.1191,-4.1191,-4.1191,-4.1191,-4.1191,-4.1191,-4.1191,-4.1191,-4.1191,-4.1191,-4.1191,-4.1211,-4.1992,-4.2363,-4.2383,-4.3262,-4.3652,-4.3711,-4.457,-4.5449,-4.623,-4.6289,-4.6308,-4.6308,-4.6308,-4.6308,-4.6308,-4.6308,-4.6308,-4.6308,-4.6308,-4.6308,-4.6308,-4.6308,-4.6308,-4.6308,-4.6308,-4.6308,-4.6308,-4.6308,-4.6308,-4.6308,-4.6308,-4.6308,-4.6308,-4.6308,-4.6308,-4.6308,-4.6308,-4.6308,-4.6308,-4.6308,-4.6308,-4.6308,-4.6308,-4.6308,-4.6308,-4.6308,-4.6308,-4.6308,-4.6308,-4.6308,-4.6308,-4.6308,-4.6308,-4.6308,-4.6308,-4.6308,-4.5566,-4.3848,-4.3711,-4.2969,-4.1308,-4.1211,-4.1191,-4.1191,-4.1191,-4.1191,-4.1191,-4.1191,-4.1191,-4.1191,-4.1191,-4.1191,-4.0496,0.0,0.0,0.0,0.0,0.0,0.0,0.0,0.0,0.0,0.0,0.0,0.0,0.0,0.0,0.0,0.0,0.0,0.0,0.0,0.0,0.0,0.0,0.0,0.0,0.0,0.0,0.0,-4.1149,-4.1191,-4.1191,-4.1191,-4.1191,-4.1191,-4.1191,-4.1191,-4.1191,-4.1191,-4.1191,-4.1191,-4.1426,-4.1523,-4.1562,-4.2383,-4.2754,-4.2812,-4.3672,-4.4199,-4.4512,-4.5781,-4.6308,-4.6308,-4.6308,-4.6308,-4.6308,-4.6308,-4.6308,-4.6308,-4.6308,-4.6308,-4.6308,-4.6308,-4.6308,-4.6308,-4.6308,-4.6308,-4.6308,-4.6308,-4.6308,-4.6308,-4.6308,-4.6308,-4.6308,-4.6308,-4.6308,-4.6308,-4.6308,-4.6308,-4.6308,-4.6308,-4.6308,-4.6308,-4.6308,-4.6308,-4.6308,-4.6308,-4.6308,-4.6308,-4.6308,-4.6308,-4.6308,-4.6308,-4.6308,-4.6308,-4.6308,-4.6308,-4.582,-4.4707,-4.4043,-4.3203,-4.2109,-4.1504,-4.1191,-4.1191,-4.1191,-4.1191,-4.1191,-4.1191,-4.1191,-4.1191,-4.1191,-4.1191,0.0,0.0,0.0,0.0,0.0,0.0,-4.0496,-4.0496,0.0,0.0,0.0,0.0,0.0,0.0,0.0,0.0,0.0,0.0,0.0,0.0,0.0,0.0,0.0,0.0,0.0,-4.0828,-4.0899,-4.0914,-4.0992,-4.1054,-4.1106,-4.1126,-4.1149,-4.1191,-4.1191,-4.1191,-4.1191,-4.1191,-4.1191,-4.1191,-4.1191,-4.1191,-4.1211,-4.1699,-4.1894,-4.1953,-4.2793,-4.3164,-4.3262,-4.4648,-4.543,-4.5781,-4.6152,-4.6308,-4.6308,-4.6308,-4.6308,-4.6308,-4.6308,-4.6308,-4.6308,-4.6308,-4.6308,-4.6308,-4.6308,-4.6308,-4.6308,-4.6308,-4.6308,-4.6308,-4.6308,-4.6308,-4.6308,-4.6308,-4.6308,-4.6308,-4.6308,-4.6308,-4.6308,-4.6308,-4.6308,-4.6308,-4.6308,-4.6308,-4.6308,-4.6308,-4.6308,-4.6308,-4.6308,-4.6308,-4.6308,-4.6308,-4.6308,-4.6308,-4.6308,-4.6308,-4.5937,-4.5058,-4.418,-4.3301,-4.2441,-4.1621,-4.1191,-4.1191,-4.1191,-4.1191,-4.1191,-4.1191,-4.1191,-4.1191,-4.1191,-4.1191,0.0,0.0,0.0,0.0,0.0,0.0,-4.0496,-4.0496,-4.0496,0.0,0.0,0.0,0.0,0.0,0.0,0.0,0.0,0.0,0.0,0.0,0.0,0.0,0.0,0.0,-4.0681,-4.0686,-4.0715,-4.0773,-4.0793,-4.0857,-4.0964,-4.0986,-4.1049,-4.1171,-4.1171,-4.1172,-4.1191,-4.1191,-4.1191,-4.1191,-4.1191,-4.1191,-4.1191,-4.1191,-4.1191,-4.123,-4.1953,-4.2266,-4.2324,-4.3203,-4.4062,-4.4922,-4.5703,-4.6074,-4.6152,-4.6152,-4.6211,-4.6308,-4.6308,-4.6308,-4.6308,-4.6308,-4.6308,-4.6308,-4.6308,-4.6308,-4.6308,-4.6308,-4.6308,-4.6308,-4.6308,-4.6308,-4.6308,-4.6308,-4.6308,-4.6308,-4.6308,-4.6308,-4.6308,-4.6308,-4.6308,-4.6308,-4.6308,-4.6308,-4.6308,-4.6308,-4.6308,-4.6308,-4.6308,-4.6308,-4.6308,-4.6308,-4.6308,-4.6308,-4.6308,-4.6308,-4.5976,-4.5195,-4.4238,-4.3359,-4.2578,-4.168,-4.1191,-4.1191,-4.1191,-4.1191,-4.1191,-4.1191,-4.1191,-4.1191,-4.1191,-4.1191,0.0,0.0,0.0,0.0,0.0,0.0,-4.0496,-4.0496,-4.0496,0.0,0.0,0.0,0.0,0.0,0.0,0.0,0.0,0.0,0.0,0.0,0.0,0.0,0.0,0.0,-4.0549,-4.0643,-4.0709,-4.0724,-4.0766,-4.0809,-4.0847,-4.0847,-4.0908,-4.1028,-4.1049,-4.1082,-4.1191,-4.1191,-4.1191,-4.1191,-4.1191,-4.1191,-4.1191,-4.1191,-4.1191,-4.1211,-4.1367,-4.1426,-4.1504,-4.2324,-4.3164,-4.3965,-4.4141,-4.4648,-4.5254,-4.5254,-4.5703,-4.6308,-4.6308,-4.6308,-4.6308,-4.6308,-4.6308,-4.6308,-4.6308,-4.6308,-4.6308,-4.6308,-4.6308,-4.6308,-4.6308,-4.6308,-4.6308,-4.6308,-4.6308,-4.6308,-4.6308,-4.6308,-4.6308,-4.6308,-4.6308,-4.6308,-4.6308,-4.6308,-4.6308,-4.6308,-4.6308,-4.6308,-4.6308,-4.6308,-4.6308,-4.6308,-4.6308,-4.6308,-4.6308,-4.6308,-4.623,-4.6055,-4.457,-4.3613,-4.3457,-4.1992,-4.1191,-4.1191,-4.1191,-4.1191,-4.1191,-4.1191,-4.1191,-4.1191,-4.1191,-4.1191,0.0,0.0,0.0,-3.9142,0.0,0.0,0.0,-3.99,-4.0015,0.0,0.0,0.0,0.0,0.0,0.0,0.0,0.0,0.0,0.0,0.0,0.0,0.0,0.0,0.0,-4.0496,-4.0559,-4.0596,-4.0596,-4.0642,-4.0679,-4.0747,-4.0747,-4.0807,-4.0905,-4.0908,-4.0925,-4.0996,-4.0996,-4.0996,-4.0996,-4.1077,-4.1103,-4.1103,-4.1171,-4.1191,-4.1191,-4.1191,-4.1151,-4.1123,-4.1533,-4.1915,-4.235,-4.3318,-4.3965,-4.4355,-4.4355,-4.4902,-4.5644,-4.5644,-4.5937,-4.6308,-4.6308,-4.6308,-4.6308,-4.6308,-4.6308,-4.6308,-4.6308,-4.6308,-4.6308,-4.6308,-4.6308,-4.6308,-4.6308,-4.6308,-4.6308,-4.6308,-4.6308,-4.6308,-4.6308,-4.6308,-4.6308,-4.6308,-4.6308,-4.6308,-4.6308,-4.6308,-4.6308,-4.6308,-4.6308,-4.6308,-4.6308,-4.6308,-4.6308,-4.6308,-4.6308,-4.6308,-4.6308,-4.4668,-4.3691,-4.3691,-4.209,-4.1191,-4.1191,-4.1191,-4.1191,-4.1191,-4.1191,-4.1191,-4.1191,-4.1191,-4.1191,0.0,0.0,0.0,0.0,0.0,-3.818,0.0,0.0,0.0,0.0,0.0,0.0,0.0,0.0,0.0,0.0,0.0,0.0,0.0,0.0,0.0,0.0,0.0,0.0,0.0,-4.0496,-4.0496,-4.0496,-4.0496,-4.0545,-4.0668,-4.0655,-4.0707,-4.0784,-4.0788,-4.0796,-4.0797,-4.0797,-4.0797,-4.0801,-4.0914,-4.0959,-4.0962,-4.1078,-4.1127,-4.1127,-4.1127,-4.1055,-4.0959,-4.0959,-4.0905,-4.0953,-4.2534,-4.3236,-4.3393,-4.3393,-4.3962,-4.4725,-4.4702,-4.5291,-4.6035,-4.5993,-4.6107,-4.6224,-4.6224,-4.6224,-4.6224,-4.6224,-4.6224,-4.6224,-4.6224,-4.6247,-4.6248,-4.6225,-4.6247,-4.6248,-4.6225,-4.6224,-4.6224,-4.6224,-4.6224,-4.6246,-4.6289,-4.6308,-4.6308,-4.6308,-4.6308,-4.6308,-4.6308,-4.6308,-4.6308,-4.6308,-4.6308,-4.6308,-4.6308,-4.6308,-4.6308,-4.6308,-4.4668,-4.3691,-4.3691,-4.209,-4.1191,-4.1191,-4.1191,-4.1191,-4.1191,-4.1191,-4.1191,-4.1191,-4.1191,-4.1191,0.0,0.0,0.0,0.0,-3.8007,0.0,0.0,0.0,0.0,0.0,0.0,0.0,0.0,0.0,0.0,0.0,0.0,0.0,0.0,0.0,0.0,0.0,0.0,0.0,0.0,-4.0496,-4.0496,-4.0496,-4.0496,-4.0504,-4.0527,-4.0527,-4.0575,-4.0701,-4.0707,-4.0747,-4.0797,-4.0797,-4.0797,-4.0797,-4.0809,-4.0816,-4.0816,-4.0847,-4.0854,-4.0854,-4.0854,-4.0847,-4.0816,-4.0816,-4.0809,-4.0821,-4.1038,-4.1597,-4.2282,-4.2282,-4.2914,-4.3734,-4.362,-4.4261,-4.5115,-4.4941,-4.5356,-4.5955,-4.5955,-4.5955,-4.5955,-4.5955,-4.5955,-4.5955,-4.5955,-4.6036,-4.6087,-4.5978,-4.6039,-4.6084,-4.5978,-4.5955,-4.5955,-4.5955,-4.5955,-4.6027,-4.6268,-4.6308,-4.6308,-4.6308,-4.6308,-4.6308,-4.6308,-4.6308,-4.6308,-4.6308,-4.6308,-4.6308,-4.6308,-4.6308,-4.6308,-4.6308,-4.4668,-4.3691,-4.3691,-4.209,-4.1191,-4.1191,-4.1191,-4.1191,-4.1191,-4.1191,-4.1191,-4.1191,-4.1191,-4.1191,0.0,0.0,0.0,0.0,0.0,0.0,-3.7257,0.0,-3.7488,0.0,0.0,0.0,0.0,0.0,0.0,0.0,-4.0285,0.0,0.0,0.0,0.0,0.0,0.0,0.0,0.0,0.0,0.0,0.0,-4.0496,-4.0496,-4.0496,-4.0496,-4.0534,-4.0575,-4.0575,-4.059,-4.0629,-4.0629,-4.0629,-4.0629,-4.0696,-4.0732,-4.0732,-4.0788,-4.0797,-4.0797,-4.0797,-4.0779,-4.0732,-4.0732,-4.0704,-4.0629,-4.0629,-4.0911,-4.1346,-4.1346,-4.1921,-4.2715,-4.2677,-4.328,-4.4063,-4.3977,-4.4526,-4.5203,-4.5203,-4.5533,-4.5899,-4.5899,-4.5899,-4.5899,-4.5899,-4.5936,-4.5974,-4.5912,-4.5936,-4.5974,-4.5912,-4.5899,-4.5899,-4.5899,-4.5899,-4.5948,-4.6045,-4.6075,-4.6075,-4.6075,-4.6075,-4.6075,-4.6075,-4.6075,-4.6075,-4.6075,-4.6075,-4.6075,-4.6075,-4.6075,-4.6075,-4.6075,-4.4475,-4.3071,-4.2056,-4.1335,-4.0962,-4.0962,-4.0962,-4.0962,-4.0962,-4.1051,-4.1081,-4.1081,-4.1151,-4.1191,-3.8009,0.0,0.0,0.0,0.0,0.0,0.0,0.0,0.0,0.0,0.0,0.0,0.0,0.0,0.0,0.0,0.0,0.0,0.0,0.0,0.0,0.0,0.0,0.0,0.0,0.0,0.0,-4.0169,-4.0381,-4.0496,-4.0496,-4.0496,-4.0496,-4.0496,-4.0496,-4.0496,-4.0496,-4.0496,-4.0496,-4.0496,-4.0596,-4.0655,-4.0655,-4.0696,-4.0723,-4.0723,-4.0723,-4.0685,-4.0655,-4.0655,-4.0602,-4.0496,-4.0496,-4.0584,-4.0723,-4.0723,-4.1136,-4.1708,-4.1675,-4.2233,-4.3,-4.3267,-4.3758,-4.4305,-4.4519,-4.4999,-4.5504,-4.5756,-4.5809,-4.5809,-4.5809,-4.5841,-4.5862,-4.582,-4.5841,-4.5857,-4.5839,-4.5809,-4.5809,-4.5809,-4.5809,-4.5809,-4.5809,-4.5857,-4.5899,-4.5899,-4.5899,-4.5899,-4.5899,-4.5899,-4.5899,-4.5899,-4.5899,-4.5899,-4.5899,-4.5899,-4.5802,-4.5587,-4.4206,-4.2727,-4.1225,-4.0933,-4.0797,-4.0797,-4.0797,-4.0797,-4.0797,-4.0905,-4.0952,-4.0955,-4.1126,-4.1191,0.0,0.0,0.0,-3.5373,0.0,0.0,0.0,0.0,-3.5058,0.0,0.0,0.0,0.0,0.0,0.0,0.0,0.0,0.0,0.0,0.0,0.0,0.0,0.0,0.0,0.0,0.0,-3.9342,-3.9342,-4.0054,-4.0496,-4.0496,-4.0496,-4.0496,-4.0496,-4.0496,-4.0496,-4.0496,-4.0496,-4.0496,-4.0496,-4.0504,-4.0504,-4.0504,-4.0512,-4.0512,-4.0512,-4.0512,-4.0512,-4.0504,-4.0504,-4.0504,-4.0496,-4.0496,-4.0504,-4.0512,-4.0512,-4.0609,-4.0724,-4.0598,-4.1128,-4.2006,-4.2912,-4.318,-4.3302,-4.4072,-4.4322,-4.4534,-4.5362,-4.5612,-4.5612,-4.5612,-4.5708,-4.5763,-4.5643,-4.5715,-4.5763,-4.5643,-4.5612,-4.5612,-4.5612,-4.5612,-4.5612,-4.5612,-4.5776,-4.5899,-4.5899,-4.5899,-4.5899,-4.5899,-4.5899,-4.5899,-4.5899,-4.5899,-4.5899,-4.5899,-4.5899,-4.5568,-4.4781,-4.3891,-4.2996,-4.2097,-4.1245,-4.0797,-4.0797,-4.0797,-4.0797,-4.0797,-4.0801,-4.0805,-4.0809,-4.1078,-4.1191,0.0,0.0,-3.7793,-3.6277,0.0,0.0,0.0,0.0,0.0,0.0,0.0,0.0,0.0,0.0,0.0,0.0,0.0,0.0,0.0,0.0,0.0,0.0,0.0,0.0,0.0,0.0,0.0,-3.9304,-4.0054,-4.0496,-4.0496,-4.0496,-4.0496,-4.0496,-4.0496,-4.0496,-4.0496,-4.0496,-4.0496,-4.0496,-4.0496,-4.0496,-4.0496,-4.0496,-4.0496,-4.0496,-4.0496,-4.0496,-4.0496,-4.0496,-4.0496,-4.0496,-4.0496,-4.0496,-4.0496,-4.0496,-4.0534,-4.0566,-4.0519,-4.0689,-4.0985,-4.1311,-4.1782,-4.2297,-4.2566,-4.3412,-4.4355,-4.4662,-4.5171,-4.5594,-4.5594,-4.5627,-4.5668,-4.5612,-4.5635,-4.5668,-4.5612,-4.5594,-4.5594,-4.5594,-4.5594,-4.5594,-4.5594,-4.5661,-4.5694,-4.5694,-4.5694,-4.5694,-4.5694,-4.5694,-4.5694,-4.5694,-4.5694,-4.5694,-4.5694,-4.5694,-4.5107,-4.3735,-4.3368,-4.2556,-4.1106,-4.0759,-4.0604,-4.0604,-4.0604,-4.0604,-4.0604,-4.0688,-4.0736,-4.0742,-4.0877,-4.0947,-3.8407,-3.8485,0.0,-3.6828,-3.6856,0.0,-3.556,0.0,0.0,0.0,0.0,0.0,0.0,0.0,0.0,0.0,0.0,0.0,0.0,-3.5759,0.0,0.0,0.0,0.0,0.0,0.0,-3.8266,-3.8373,-3.9438,-4.0073,0.0,-4.0342,-4.0496,-4.0496,-4.0496,-4.0496,-4.0496,-4.0496,-4.0496,-4.0496,-4.0496,-4.0496,-4.0496,-4.0496,-4.0496,-4.0496,-4.0496,-4.0496,-4.0496,-4.0496,-4.0496,-4.0496,-4.0496,-4.0496,-4.0496,-4.0496,-4.0496,-4.0496,-4.0496,-4.0496,-4.0496,-4.0496,-4.0873,-4.1393,-4.172,-4.2547,-4.3489,-4.3797,-4.447,-4.5152,-4.5152,-4.5364,-4.5594,-4.5594,-4.5594,-4.5594,-4.5594,-4.5594,-4.5594,-4.5594,-4.5594,-4.5594,-4.5594,-4.5594,-4.5594,-4.5594,-4.5594,-4.5594,-4.5594,-4.5594,-4.5594,-4.5594,-4.5594,-4.5594,-4.5594,-4.5594,-4.5017,-4.3605,-4.3258,-4.245,-4.1008,-4.0669,-4.065,-4.095,-4.0669,-4.065,-4.095,-4.073,-4.063,-4.0636,-4.0663,-4.0687]},{"header":{"parameterUnit":"m.s-1","parameterCategory":1,"la1":30.6,"la2":29.2853,"lo1":-89.7004,"lo2":-87.6739,"dy":0.0162,"dx":0.0183,"nx":112,"ny":82,"refTime":"2023-07-24T06:00:00:Z","depth":0,"parameterNumber":3,"parameterNumberName":"V-component_of_WINDS"},"data":[0.0,0.0,0.0,0.0,0.0,0.0,0.0,0.0,0.0,0.0,0.0,0.0,0.0,0.0,0.0,0.0,0.0,0.0,0.0,0.0,0.0,0.0,0.0,0.0,0.0,0.0,0.0,0.0,0.0,0.0,0.0,0.0,0.0,0.0,0.0,0.0,0.0,0.0,0.0,0.0,0.0,0.0,0.0,0.0,0.0,0.0,0.0,0.0,0.0,0.0,0.0,0.0,0.0,0.0,0.0,0.0,0.0,0.0,0.0,0.0,0.0,0.0,0.0,0.0,0.0,0.0,0.0,0.0,0.0,0.0,0.0,0.0,0.0,0.0,0.0,0.0,0.0,0.0,0.0,0.0,0.0,0.0,0.0,0.0,0.0,0.0,0.0,0.0,0.0,0.0,0.0,-2.0623,-1.8745,-1.737,-1.7014,-1.6568,-1.6597,-1.7311,0.0,0.0,0.0,0.0,0.0,0.0,0.0,0.0,0.0,0.0,0.0,0.0,0.0,0.0,0.0,0.0,0.0,0.0,0.0,0.0,0.0,0.0,0.0,0.0,0.0,0.0,0.0,0.0,0.0,0.0,0.0,0.0,0.0,0.0,0.0,0.0,0.0,0.0,0.0,0.0,0.0,0.0,0.0,0.0,0.0,0.0,0.0,0.0,0.0,0.0,0.0,0.0,0.0,0.0,0.0,0.0,0.0,0.0,0.0,0.0,0.0,0.0,0.0,0.0,0.0,0.0,0.0,0.0,0.0,0.0,0.0,0.0,0.0,0.0,0.0,0.0,0.0,0.0,0.0,0.0,0.0,0.0,0.0,0.0,0.0,0.0,0.0,0.0,0.0,0.0,0.0,0.0,0.0,0.0,0.0,0.0,0.0,0.0,0.0,0.0,0.0,0.0,0.0,0.0,-2.1428,-2.0687,-1.8982,-1.8025,-1.8299,-1.7618,-1.7478,-1.8082,0.0,0.0,0.0,0.0,0.0,0.0,0.0,0.0,0.0,0.0,0.0,0.0,0.0,0.0,0.0,0.0,0.0,0.0,0.0,0.0,0.0,0.0,0.0,0.0,0.0,0.0,0.0,0.0,0.0,0.0,0.0,0.0,0.0,0.0,0.0,0.0,0.0,0.0,0.0,0.0,0.0,0.0,0.0,0.0,0.0,0.0,0.0,0.0,0.0,0.0,0.0,0.0,0.0,0.0,0.0,0.0,0.0,0.0,0.0,0.0,0.0,0.0,0.0,0.0,0.0,0.0,0.0,0.0,0.0,0.0,0.0,0.0,0.0,0.0,0.0,0.0,0.0,0.0,0.0,0.0,0.0,0.0,0.0,0.0,0.0,0.0,0.0,0.0,0.0,0.0,0.0,0.0,0.0,0.0,0.0,0.0,0.0,0.0,0.0,0.0,0.0,0.0,0.0,-2.1307,-2.0846,-1.9977,-1.8754,-1.8055,-1.8271,-1.7731,-1.7521,-1.7802,-1.7237,0.0,0.0,0.0,0.0,0.0,0.0,0.0,0.0,0.0,0.0,0.0,0.0,0.0,0.0,0.0,0.0,0.0,0.0,0.0,0.0,0.0,0.0,0.0,0.0,0.0,0.0,0.0,0.0,0.0,0.0,0.0,0.0,0.0,0.0,0.0,0.0,0.0,0.0,0.0,0.0,0.0,0.0,0.0,0.0,0.0,0.0,0.0,0.0,0.0,0.0,0.0,0.0,0.0,0.0,0.0,0.0,0.0,0.0,0.0,0.0,0.0,0.0,0.0,0.0,0.0,0.0,0.0,0.0,0.0,0.0,0.0,0.0,0.0,0.0,0.0,0.0,0.0,0.0,0.0,0.0,0.0,0.0,0.0,0.0,0.0,0.0,0.0,0.0,0.0,0.0,0.0,0.0,0.0,0.0,0.0,0.0,0.0,0.0,0.0,0.0,0.0,0.0,-2.0814,-2.0042,-1.9365,-1.8529,-1.8076,-1.8303,-1.7849,-1.7579,-1.7635,-1.7286,0.0,0.0,0.0,0.0,0.0,0.0,0.0,0.0,0.0,0.0,0.0,0.0,0.0,0.0,0.0,0.0,0.0,0.0,0.0,0.0,0.0,0.0,0.0,0.0,0.0,0.0,0.0,0.0,0.0,0.0,0.0,0.0,0.0,0.0,0.0,0.0,0.0,0.0,0.0,0.0,0.0,0.0,0.0,0.0,0.0,0.0,0.0,0.0,0.0,0.0,0.0,0.0,0.0,0.0,0.0,0.0,0.0,0.0,0.0,0.0,0.0,0.0,0.0,0.0,0.0,0.0,0.0,0.0,0.0,0.0,0.0,0.0,0.0,0.0,0.0,0.0,0.0,0.0,0.0,0.0,0.0,0.0,0.0,0.0,0.0,0.0,0.0,0.0,0.0,0.0,0.0,0.0,0.0,0.0,0.0,0.0,0.0,0.0,0.0,0.0,0.0,0.0,-1.9944,-1.9365,-1.9309,-1.8529,-1.8337,-1.9144,-1.8432,-1.8085,-1.8392,-1.7369,0.0,0.0,0.0,0.0,0.0,0.0,0.0,0.0,0.0,0.0,0.0,0.0,0.0,0.0,0.0,0.0,0.0,0.0,0.0,0.0,0.0,0.0,0.0,0.0,0.0,0.0,0.0,0.0,0.0,0.0,0.0,0.0,0.0,0.0,0.0,0.0,0.0,0.0,0.0,0.0,0.0,0.0,0.0,0.0,0.0,0.0,0.0,0.0,0.0,0.0,0.0,0.0,0.0,0.0,0.0,0.0,0.0,0.0,0.0,0.0,0.0,0.0,0.0,0.0,0.0,0.0,0.0,0.0,0.0,0.0,0.0,0.0,0.0,0.0,0.0,0.0,0.0,0.0,0.0,0.0,0.0,0.0,0.0,0.0,0.0,0.0,0.0,0.0,0.0,0.0,0.0,0.0,0.0,0.0,0.0,0.0,0.0,0.0,0.0,0.0,0.0,0.0,-2.0171,-1.9299,0.0,-1.8529,-1.8144,-1.8462,-1.8202,-1.8041,-1.8165,0.0,0.0,0.0,0.0,0.0,0.0,0.0,0.0,0.0,0.0,0.0,0.0,0.0,0.0,0.0,0.0,0.0,0.0,0.0,0.0,0.0,0.0,0.0,0.0,0.0,0.0,0.0,0.0,0.0,0.0,0.0,0.0,0.0,0.0,0.0,0.0,0.0,0.0,0.0,0.0,0.0,0.0,0.0,0.0,0.0,0.0,0.0,0.0,0.0,0.0,0.0,0.0,0.0,0.0,0.0,0.0,0.0,0.0,0.0,0.0,0.0,0.0,0.0,0.0,0.0,0.0,0.0,0.0,0.0,0.0,0.0,0.0,0.0,0.0,0.0,0.0,0.0,0.0,0.0,0.0,0.0,0.0,0.0,0.0,0.0,0.0,0.0,0.0,0.0,0.0,0.0,0.0,0.0,0.0,0.0,0.0,0.0,0.0,0.0,0.0,0.0,0.0,-2.1522,-2.0204,-1.9199,0.0,-1.8361,-1.8008,-1.8008,-1.8008,-1.8008,-1.8008,0.0,0.0,0.0,0.0,0.0,0.0,0.0,0.0,0.0,0.0,0.0,0.0,0.0,0.0,0.0,0.0,0.0,0.0,0.0,0.0,0.0,0.0,0.0,0.0,0.0,0.0,0.0,0.0,0.0,0.0,0.0,0.0,0.0,0.0,0.0,0.0,0.0,0.0,0.0,0.0,0.0,0.0,0.0,0.0,0.0,0.0,0.0,0.0,0.0,0.0,0.0,0.0,0.0,0.0,0.0,0.0,0.0,0.0,0.0,0.0,0.0,0.0,0.0,0.0,0.0,0.0,0.0,0.0,0.0,0.0,0.0,0.0,0.0,0.0,0.0,0.0,0.0,0.0,0.0,0.0,0.0,0.0,0.0,0.0,0.0,0.0,0.0,0.0,0.0,0.0,0.0,0.0,0.0,0.0,0.0,0.0,0.0,0.0,0.0,0.0,0.0,0.0,-2.0719,-1.9814,-1.8944,-1.8076,-1.8008,-1.8008,-1.8008,-1.8008,-1.8008,0.0,0.0,0.0,0.0,0.0,0.0,0.0,0.0,0.0,0.0,0.0,0.0,0.0,0.0,0.0,0.0,0.0,0.0,0.0,0.0,0.0,0.0,0.0,0.0,0.0,0.0,0.0,0.0,0.0,0.0,0.0,0.0,0.0,0.0,0.0,0.0,0.0,0.0,0.0,0.0,0.0,0.0,0.0,0.0,0.0,0.0,0.0,0.0,0.0,0.0,0.0,0.0,0.0,0.0,0.0,0.0,0.0,0.0,0.0,0.0,0.0,0.0,0.0,0.0,0.0,0.0,0.0,0.0,0.0,0.0,0.0,0.0,0.0,0.0,0.0,0.0,0.0,0.0,0.0,0.0,0.0,0.0,0.0,0.0,0.0,0.0,0.0,0.0,0.0,0.0,0.0,0.0,0.0,0.0,0.0,0.0,0.0,0.0,0.0,0.0,0.0,0.0,0.0,-2.0558,-1.9299,-1.8269,-1.8042,-1.8008,-1.8008,-1.8008,-1.8008,-1.8008,-1.8008,0.0,0.0,0.0,0.0,0.0,0.0,0.0,0.0,0.0,0.0,0.0,0.0,0.0,0.0,0.0,0.0,0.0,0.0,0.0,0.0,0.0,0.0,0.0,0.0,0.0,0.0,0.0,0.0,0.0,0.0,0.0,0.0,0.0,0.0,0.0,0.0,0.0,0.0,0.0,0.0,0.0,0.0,0.0,0.0,0.0,0.0,0.0,0.0,0.0,0.0,0.0,0.0,0.0,0.0,0.0,0.0,0.0,0.0,0.0,0.0,0.0,0.0,0.0,0.0,0.0,0.0,0.0,0.0,0.0,0.0,0.0,0.0,0.0,0.0,0.0,0.0,0.0,0.0,0.0,0.0,0.0,0.0,0.0,0.0,0.0,0.0,0.0,0.0,0.0,0.0,0.0,0.0,0.0,0.0,0.0,0.0,0.0,0.0,0.0,0.0,0.0,0.0,-2.0009,-1.8844,-1.8008,-1.8008,-1.8008,-1.8008,-1.8008,-1.8008,-1.8008,-1.8008,0.0,0.0,0.0,0.0,0.0,0.0,0.0,0.0,0.0,0.0,0.0,0.0,0.0,0.0,0.0,0.0,0.0,0.0,0.0,0.0,0.0,0.0,0.0,0.0,0.0,0.0,0.0,0.0,0.0,0.0,0.0,0.0,0.0,0.0,0.0,0.0,0.0,0.0,0.0,0.0,0.0,0.0,0.0,0.0,0.0,0.0,0.0,0.0,0.0,0.0,0.0,0.0,0.0,0.0,0.0,0.0,0.0,0.0,0.0,0.0,0.0,0.0,0.0,0.0,0.0,0.0,0.0,0.0,0.0,0.0,0.0,0.0,0.0,0.0,0.0,0.0,0.0,0.0,0.0,0.0,0.0,0.0,0.0,0.0,0.0,0.0,0.0,0.0,0.0,0.0,0.0,0.0,0.0,0.0,0.0,0.0,0.0,0.0,0.0,0.0,0.0,0.0,-1.9299,-1.8529,-1.8008,-1.8008,-1.8008,-1.8008,-1.8008,-1.8008,-1.8008,-1.8008,0.0,0.0,0.0,0.0,0.0,0.0,0.0,0.0,0.0,0.0,0.0,0.0,0.0,0.0,0.0,0.0,0.0,0.0,0.0,0.0,0.0,0.0,0.0,0.0,0.0,0.0,0.0,0.0,0.0,0.0,0.0,0.0,0.0,0.0,0.0,0.0,0.0,0.0,0.0,0.0,0.0,0.0,0.0,0.0,0.0,0.0,0.0,0.0,0.0,0.0,0.0,0.0,0.0,0.0,0.0,0.0,0.0,0.0,0.0,0.0,-1.6989,0.0,0.0,0.0,0.0,0.0,0.0,0.0,0.0,0.0,0.0,0.0,0.0,0.0,0.0,0.0,0.0,0.0,0.0,0.0,0.0,0.0,0.0,0.0,0.0,0.0,0.0,0.0,0.0,0.0,0.0,0.0,0.0,0.0,0.0,0.0,0.0,0.0,0.0,0.0,0.0,0.0,-1.9199,-1.8529,-1.8008,-1.8008,-1.8008,-1.8008,-1.8008,-1.8008,-1.8008,-1.8008,-1.8008,0.0,0.0,0.0,0.0,0.0,0.0,0.0,0.0,0.0,0.0,0.0,0.0,0.0,0.0,0.0,0.0,0.0,0.0,0.0,0.0,0.0,0.0,0.0,0.0,0.0,0.0,0.0,0.0,0.0,0.0,0.0,0.0,0.0,0.0,0.0,0.0,0.0,0.0,0.0,0.0,0.0,0.0,0.0,0.0,0.0,0.0,0.0,0.0,0.0,0.0,0.0,0.0,0.0,0.0,0.0,0.0,0.0,0.0,0.0,0.0,-1.7311,0.0,0.0,0.0,0.0,0.0,0.0,0.0,0.0,0.0,0.0,0.0,0.0,0.0,0.0,0.0,0.0,0.0,0.0,0.0,0.0,0.0,0.0,0.0,0.0,0.0,0.0,0.0,0.0,0.0,0.0,0.0,0.0,0.0,0.0,0.0,0.0,0.0,0.0,0.0,0.0,-1.8899,-1.8398,-1.8008,-1.8008,-1.8008,-1.8008,-1.8008,-1.8008,-1.8008,-1.8008,-1.8008,0.0,0.0,0.0,0.0,0.0,0.0,0.0,0.0,0.0,0.0,0.0,0.0,0.0,0.0,0.0,0.0,0.0,0.0,0.0,0.0,0.0,0.0,0.0,0.0,0.0,0.0,0.0,0.0,0.0,0.0,0.0,0.0,0.0,0.0,0.0,0.0,0.0,0.0,0.0,0.0,0.0,0.0,0.0,0.0,0.0,0.0,0.0,0.0,0.0,0.0,0.0,0.0,0.0,-1.8008,-1.8008,-1.8008,-1.8008,-1.8008,-1.8008,-1.8008,-1.8008,-1.8008,-1.8008,0.0,0.0,0.0,0.0,0.0,0.0,0.0,0.0,0.0,0.0,0.0,0.0,0.0,0.0,0.0,0.0,0.0,0.0,0.0,0.0,0.0,0.0,0.0,0.0,-1.8008,-1.8202,-1.8911,0.0,0.0,0.0,0.0,0.0,0.0,0.0,0.0,0.0,0.0,0.0,-1.8715,-1.8447,-1.8203,-1.8091,-1.8081,-1.8086,-1.8018,-1.8008,-1.8008,-1.8008,-1.8008,-1.8008,0.0,0.0,0.0,0.0,0.0,0.0,0.0,0.0,0.0,0.0,0.0,0.0,0.0,0.0,0.0,0.0,0.0,0.0,0.0,0.0,0.0,0.0,0.0,0.0,0.0,0.0,0.0,0.0,0.0,0.0,0.0,0.0,-1.621,-1.5623,0.0,0.0,0.0,0.0,0.0,0.0,0.0,0.0,0.0,0.0,0.0,0.0,0.0,-1.8008,-1.8008,-1.8008,-1.8008,-1.8008,-1.8008,-1.8008,-1.8008,-1.8008,-1.8008,-1.8008,-1.8008,0.0,-1.8008,-1.8008,0.0,0.0,0.0,0.0,0.0,0.0,0.0,0.0,0.0,0.0,0.0,0.0,0.0,0.0,0.0,0.0,0.0,0.0,0.0,0.0,0.0,0.0,-1.8008,-1.8008,-1.8008,-1.8042,0.0,-1.8076,-1.8008,-1.8008,-1.8008,0.0,0.0,0.0,0.0,0.0,0.0,0.0,-1.9199,-1.915,-1.8975,-1.8559,-1.852,-1.8373,-1.8037,-1.8008,-1.8008,-1.8008,-1.8008,-1.8008,-1.8008,-1.8008,0.0,0.0,0.0,0.0,0.0,0.0,0.0,0.0,0.0,0.0,0.0,0.0,0.0,0.0,0.0,0.0,0.0,0.0,0.0,0.0,0.0,0.0,0.0,0.0,0.0,0.0,0.0,0.0,0.0,-1.4914,-1.586,-1.5965,-1.6715,-1.7432,0.0,0.0,0.0,0.0,0.0,0.0,0.0,0.0,0.0,-1.873,-1.873,-1.873,-1.873,-1.873,-1.873,-1.873,-1.873,-1.873,-1.873,-1.873,-1.873,-1.873,-1.873,-1.873,-1.8691,-1.8203,-1.8008,-1.8008,0.0,0.0,0.0,0.0,-1.8008,-1.8008,-1.8008,-1.8008,-1.8008,-1.8008,0.0,0.0,0.0,0.0,0.0,0.0,0.0,0.0,0.0,0.0,-1.8325,-1.8325,-1.8545,-1.873,-1.873,-1.873,-1.8652,0.0,-1.8555,-1.8857,-1.9241,0.0,0.0,0.0,0.0,-1.9639,-1.9639,-1.9434,-1.9219,-1.9023,-1.8754,-1.8529,-1.8344,-1.8144,-1.8008,-1.8008,-1.8008,-1.8008,-1.8008,-1.8008,-1.8008,0.0,0.0,0.0,0.0,0.0,0.0,0.0,0.0,0.0,0.0,0.0,0.0,0.0,0.0,0.0,0.0,0.0,0.0,0.0,0.0,0.0,0.0,0.0,0.0,0.0,0.0,0.0,0.0,-1.4338,-1.5328,-1.6386,-1.6466,-1.6838,0.0,0.0,0.0,0.0,0.0,0.0,-1.8361,-1.8967,-1.9287,-1.9287,-1.9287,-1.9287,-1.9287,-1.9287,-1.9287,-1.9287,-1.9287,-1.9287,-1.9287,-1.9287,-1.9287,-1.9287,-1.9287,-1.9287,-1.9238,-1.8603,-1.834,-1.834,-1.834,-1.834,-1.834,-1.834,-1.834,-1.834,-1.834,-1.834,-1.834,-1.834,-1.834,-1.834,-1.834,0.0,0.0,0.0,0.0,-1.834,-1.834,-1.8564,-1.8763,-1.8763,-1.9053,-1.9287,-1.9287,-1.9375,-1.9316,0.0,-1.9062,-1.9424,-1.9844,0.0,0.0,0.0,0.0,-2.0078,-2.0078,-1.9805,-1.957,-1.9463,-1.916,-1.8841,-1.8617,-1.8315,-1.8125,-1.8018,-1.8008,-1.8008,-1.8008,-1.8008,-1.8008,-1.8008,0.0,0.0,0.0,0.0,0.0,0.0,0.0,0.0,0.0,0.0,0.0,0.0,0.0,0.0,0.0,0.0,0.0,0.0,0.0,0.0,0.0,0.0,0.0,0.0,0.0,0.0,0.0,0.0,0.0,-1.6053,-1.6094,0.0,0.0,0.0,0.0,-1.617,-1.8055,-1.88,-1.7795,-1.8709,-1.9287,-1.9287,-1.9287,-1.9287,-1.9287,-1.9287,-1.9287,-1.9287,-1.9287,-1.9287,-1.9287,-1.9287,-1.9287,-1.9287,-1.9287,-1.9287,-1.9287,-1.9238,-1.9219,-1.9219,-1.9219,-1.9219,-1.9219,-1.9219,-1.9219,-1.9219,-1.9219,-1.9219,-1.9219,-1.9219,-1.9219,-1.9219,-1.9219,-1.9219,0.0,0.0,-1.9219,-1.9219,-1.9219,-1.9238,-1.9248,-1.9248,-1.9268,-1.9287,-1.9287,-1.96,-1.9756,0.0,-1.9268,-1.9424,-1.9844,0.0,-2.0059,-2.0537,-2.0586,-2.0566,-2.0566,-2.0556,-2.038,-1.9932,-1.9863,-1.9485,-1.8666,-1.8588,-1.8403,-1.8037,-1.8008,-1.8008,-1.8008,-1.8008,-1.8008,-1.8008,-1.7988,0.0,0.0,0.0,0.0,0.0,0.0,0.0,0.0,0.0,0.0,0.0,0.0,0.0,0.0,0.0,0.0,0.0,0.0,0.0,0.0,0.0,0.0,0.0,0.0,0.0,0.0,0.0,0.0,-1.5042,-1.5134,0.0,-1.6501,-1.6615,-1.6426,-1.6038,-1.7652,-1.8505,-1.8116,-1.9374,-2.0155,-2.0155,-2.0155,-2.0155,-2.0155,-2.0155,-2.0155,-2.0155,-2.0155,-2.0155,-2.0155,-2.0155,-2.0155,-2.0155,-2.0155,-2.0155,-2.0155,-2.0155,-1.9822,-1.9287,-1.9287,-1.9287,-1.9287,-1.9287,-1.9287,-1.9287,-1.9287,-1.9287,-1.9287,-1.9287,-1.9287,-1.9287,-1.9287,-1.9287,-1.9287,-1.9287,-1.9287,-1.9287,-1.9287,-1.9482,-1.9697,-1.9697,-1.9902,-2.0155,-2.0155,-2.0263,-2.0331,-2.0175,-2.0155,-2.0194,-2.0341,-2.0332,-2.0429,-2.0576,-2.0605,-2.0605,-2.0605,-2.0605,-2.0546,-2.0352,-2.0078,-1.9757,-1.9446,-1.8919,-1.8539,-1.8383,-1.812,-1.8008,-1.8008,-1.8008,-1.8008,-1.8008,-1.8008,-1.7939,0.0,0.0,0.0,0.0,0.0,0.0,0.0,0.0,0.0,0.0,0.0,0.0,0.0,0.0,0.0,0.0,0.0,0.0,0.0,0.0,0.0,0.0,0.0,0.0,0.0,0.0,-1.374,-1.4847,-1.467,-1.4822,-1.5819,-1.5897,-1.574,-1.5402,-1.6988,-1.7809,-1.7446,-1.9088,-2.004,-2.004,-2.0401,-2.0605,-2.0605,-2.0605,-2.0605,-2.0605,-2.0605,-2.0605,-2.0605,-2.0605,-2.0605,-2.0605,-2.0605,-2.0605,-2.0605,-2.0605,-2.0263,-1.9754,-1.9754,-1.9754,-1.9754,-1.9754,-1.9754,-1.9754,-1.9754,-1.9754,-1.9754,-1.9754,-1.9754,-1.9754,-1.9754,-1.9754,-1.9754,-1.9754,-1.9754,-1.9754,-1.9754,-1.9922,-2.0137,-2.0137,-2.0352,-2.0605,-2.0605,-2.0605,-2.0605,-2.0605,-2.0605,-2.0605,-2.0605,-2.0605,-2.0605,-2.0605,-2.0605,-2.0605,-2.0605,-2.0605,-2.0605,-2.0605,-2.0303,-2.0078,-1.9922,-1.9358,-1.8909,-1.8617,-1.8344,-1.812,-1.8018,-1.8008,-1.8008,-1.8008,-1.8008,-1.8008,-1.8008,0.0,0.0,0.0,0.0,0.0,0.0,0.0,0.0,0.0,0.0,0.0,0.0,0.0,0.0,0.0,0.0,0.0,0.0,0.0,0.0,0.0,0.0,0.0,-1.366,-1.362,-1.4118,-1.5501,-1.4734,-1.4496,-1.5538,-1.5655,-1.522,-1.4166,-1.6041,-1.6805,-1.5745,-1.7819,-1.9006,-1.8975,-2.002,-2.0547,-2.0518,-2.0566,-2.0566,-2.0566,-2.0605,-2.0644,-2.0644,-2.0644,-2.0644,-2.0644,-2.0605,-2.0605,-2.0644,-2.0605,-2.0596,-2.0625,-2.0605,-2.0605,-2.0605,-2.0605,-2.0605,-2.0605,-2.0605,-2.0605,-2.0605,-2.0605,-2.0605,-2.0605,-2.0605,-2.0605,-2.0605,-2.0605,-2.0605,-2.0605,-2.0605,-2.0605,-2.0605,-2.0605,-2.0605,-2.0605,-2.0605,-2.0605,-2.0605,-2.0605,-2.0605,-2.0605,-2.0605,-2.0605,-2.0605,-2.0605,-2.0605,0.0,-2.0605,-2.0605,-2.0605,-2.0605,-2.0605,-2.0429,-1.9971,-1.9922,-1.9514,-1.8676,-1.8607,-1.8412,-1.8027,-1.8008,-1.8008,-1.8008,-1.8008,-1.8008,-1.8008,0.0,0.0,0.0,0.0,0.0,0.0,0.0,0.0,0.0,0.0,0.0,0.0,0.0,0.0,0.0,0.0,0.0,0.0,0.0,0.0,0.0,0.0,-1.4055,-1.3975,-1.3968,-1.412,-1.4482,-1.4292,-1.4208,-1.4489,-1.4531,-1.4412,-1.413,-1.5387,-1.6026,-1.5737,-1.7819,-1.8722,-1.8144,-1.9177,-1.9434,-1.8877,-1.9713,-2.0177,-2.0177,-2.1087,-2.1523,-2.1523,-2.1523,-2.1523,-2.1483,-2.0566,-2.0699,-2.1483,-2.0566,-2.0511,-2.1016,-2.0693,-2.0605,-2.0605,-2.0605,-2.0605,-2.0605,-2.0605,-2.0605,-2.0605,-2.0605,-2.0605,-2.0605,-2.0605,-2.0605,-2.0605,-2.0605,-2.0605,-2.0605,-2.0605,-2.0605,-2.0605,-2.0605,-2.0605,-2.0605,-2.0605,-2.0605,-2.0605,-2.0605,-2.0605,-2.0605,-2.0605,-2.0605,-2.0605,-2.0605,-2.0605,0.0,-2.0605,-2.0605,-2.0605,-2.0605,-2.0605,-2.0556,-2.0429,-2.0098,-1.9687,-1.9141,-1.8783,-1.8412,-1.8027,-1.8008,-1.8008,-1.8008,-1.8008,-1.8008,0.0,0.0,0.0,0.0,0.0,0.0,0.0,0.0,0.0,0.0,0.0,0.0,0.0,0.0,0.0,0.0,0.0,0.0,0.0,0.0,0.0,0.0,-1.4088,-1.4088,-1.4088,-1.4088,-1.4088,-1.4088,-1.4088,-1.4088,-1.4088,-1.4088,-1.4088,-1.4088,-1.4768,-1.5212,-1.5212,-1.6998,-1.7795,-1.7293,-1.8355,-1.8668,-1.82,-1.8879,-1.9519,-1.9994,-2.0736,-2.14,-2.1885,-2.1349,-2.1089,-2.1047,-2.034,-2.0129,-2.0325,-2.0087,-1.9994,0.0,0.0,0.0,0.0,0.0,-2.0323,-1.9923,-1.9923,-1.9638,-1.9234,-1.9234,-1.9559,-1.9923,-1.9923,-1.9923,-2.0001,-2.0479,-2.0284,-2.004,-2.0479,-2.0605,-2.0605,-2.0605,-2.0605,-2.0605,-2.0605,-2.0605,-2.0605,-2.0605,-2.0605,0.0,-2.0605,-2.0605,-2.0605,-2.0605,-2.0605,-2.0605,-2.0605,-2.0605,-2.0605,-2.0605,-2.0605,-2.0605,-2.0605,-2.0332,0.0,0.0,0.0,-1.8633,-1.8037,-1.8008,0.0,0.0,0.0,-1.8008,-1.8008,0.0,0.0,0.0,-1.7461,-1.7486,0.0,0.0,0.0,0.0,0.0,0.0,0.0,0.0,0.0,0.0,0.0,0.0,0.0,0.0,0.0,0.0,-1.4088,-1.4088,-1.4088,-1.4088,-1.4088,-1.4088,-1.4088,-1.4102,-1.4135,-1.4135,-1.4148,-1.4182,-1.4422,-1.4569,-1.4569,0.0,0.0,0.0,0.0,-1.802,-1.793,-1.8061,-1.8661,-1.9736,-1.9864,-2.0528,-2.1594,-2.0477,-1.9949,-1.9949,-1.9821,-1.9222,-1.8409,-1.935,-1.9153,-1.844,-2.0324,-2.0935,-2.0752,-2.0752,-2.0065,-1.9123,-1.9078,0.0,0.0,-1.731,-1.7989,-1.8798,-1.8798,-1.8798,-1.8997,-1.9962,-1.9559,-1.9076,-2.0118,-2.0323,-2.0245,-2.0401,-2.0323,-2.0235,-2.0235,-2.0235,-2.0235,-2.0235,-2.0323,-2.0401,-2.0401,-2.0527,-2.0605,-2.0605,-2.0605,-2.0605,-2.0605,-2.0605,-2.0605,-2.0605,0.0,0.0,-2.0605,-2.0605,-2.0263,-1.9404,-1.9268,-1.8848,-1.8047,-1.8008,-1.8008,-1.8008,-1.8008,-1.8008,-1.8008,-1.8008,-1.8008,-1.7998,-1.7627,-1.7484,0.0,0.0,0.0,0.0,0.0,0.0,0.0,0.0,0.0,0.0,0.0,0.0,0.0,0.0,0.0,-1.4088,-1.4088,-1.4088,-1.4088,-1.4088,-1.4088,-1.4088,-1.4088,-1.4175,-1.4409,-1.4436,-1.4536,-1.4821,-1.4888,-1.4877,-1.4877,-1.5963,-1.6277,-1.5657,-1.668,-1.6934,-1.6246,-1.7259,-1.7903,-1.8171,0.0,0.0,-1.9964,-1.9687,-1.9597,-1.9552,-1.8573,-1.8573,-1.9192,-1.8437,-1.8361,-1.8803,-1.9827,-2.0827,-2.1631,-2.1631,-2.0885,-1.9766,-1.9575,-1.8681,-1.7647,-1.7392,-1.7464,-1.7626,-1.7626,-1.7626,0.0,-1.7859,-1.7787,-1.7908,-1.9036,-1.863,-1.8181,-1.9076,-1.859,-1.794,-1.794,-1.794,-1.794,-1.794,-1.8669,-1.9323,-1.9323,-2.004,-2.0605,-2.0605,-2.0605,-2.0605,-2.0605,-2.0605,-2.0605,-2.0605,-2.0605,-2.0605,-2.0605,-2.0605,-2.038,-1.9824,-1.9104,-1.85,-1.8037,-1.8008,-1.8008,-1.8008,-1.8008,-1.8008,-1.8008,-1.8008,-1.8008,-1.8008,-1.793,-1.7891,0.0,0.0,0.0,0.0,0.0,0.0,0.0,0.0,0.0,0.0,0.0,-1.3379,0.0,0.0,-1.4088,-1.4088,-1.4088,-1.4088,-1.4088,-1.4215,-1.4302,-1.4302,-1.4302,-1.4422,-1.471,-1.4743,-1.4803,-1.4995,-1.5142,-1.5177,-1.5177,-1.5846,-1.6044,-1.5605,-1.6303,-1.6448,-1.6046,-1.6815,-1.7512,-1.8122,-1.8727,-1.9327,-1.9939,-1.928,-1.9004,-1.8949,-1.8227,-1.7923,-1.7854,-1.7048,-1.7355,-1.8267,-1.8669,-1.9349,-2.0063,-2.0063,-1.9315,-1.8288,-1.815,-1.7333,-1.6385,-1.6214,-1.6495,-1.6954,-1.6954,-1.6954,-1.7072,-1.7585,-1.7375,-1.7207,-1.8296,-1.8078,-1.7697,-1.8271,-1.7841,-1.7302,-1.7302,-1.7302,-1.7302,-1.7302,-1.7738,-1.8149,-1.8149,-1.859,-1.9155,-1.9717,-1.9805,-1.9805,-1.9805,-2.0284,-2.0605,-2.0605,-2.0605,-2.0605,-2.0605,-2.0361,-2.0049,-1.9629,-1.8958,-1.8412,-1.8027,-1.8008,-1.8008,-1.8008,-1.8008,-1.8008,-1.8008,-1.8008,-1.8008,-1.8008,-1.8008,-1.8008,0.0,0.0,0.0,0.0,0.0,0.0,0.0,0.0,-1.1826,-1.3695,-1.4088,-1.4088,-1.4088,-1.4088,-1.4088,-1.4088,-1.4088,-1.4108,-1.4162,-1.4369,-1.4519,-1.4676,-1.4643,-1.4723,-1.5068,-1.5095,-1.5115,-1.5169,-1.5351,-1.5504,-1.5565,-1.5785,-1.5939,-1.5951,-1.6233,-1.6359,-1.6359,-1.6587,-1.7193,-1.8171,-1.8171,-1.8697,-1.9659,-1.8599,-1.8171,-1.8156,-1.7901,-1.7266,-1.6339,-1.6099,-1.6531,-1.7413,-1.7413,-1.7545,-1.7798,-1.828,-1.7754,-1.6818,-1.675,-1.5995,-1.5082,-1.5028,-1.5569,-1.6294,-1.6294,-1.6294,-1.647,-1.7339,-1.6946,-1.6551,-1.7593,-1.756,-1.7318,-1.7522,-1.7165,-1.6745,-1.6745,-1.6738,-1.669,-1.669,-1.6854,-1.6968,-1.6968,-1.6968,-1.7374,-1.851,-1.8877,-1.8997,-1.8997,-1.9923,-2.0605,-2.0605,-2.0605,-2.0605,-2.0605,-2.0244,-1.9824,-1.9316,-1.8955,-1.85,-1.8037,-1.8008,-1.8008,-1.8008,-1.8008,-1.8008,-1.8008,-1.8008,-1.8008,-1.8008,-1.8008,-1.8008,-1.2589,-1.22,-1.2376,-1.3428,-1.361,-1.361,0.0,0.0,-1.3779,-1.4039,-1.4088,-1.4088,-1.4088,-1.4088,-1.4088,-1.4088,-1.4088,-1.4175,-1.4436,-1.4496,-1.4716,-1.5237,-1.507,-1.503,-1.5317,-1.5351,-1.5451,-1.5712,-1.5758,-1.5899,-1.6159,-1.6206,-1.6339,-1.66,-1.664,-1.666,-1.666,-1.6693,-1.6757,-1.69,-1.69,-1.7,-1.7093,-1.695,-1.69,-1.69,-1.6866,-1.6803,-1.6653,-1.662,-1.6552,-1.6462,-1.6462,-1.6307,-1.6322,-1.8553,-1.8615,-1.7527,-1.7259,-1.6361,-1.5304,-1.5095,-1.5098,-1.5181,-1.5181,-1.5181,-1.5181,-1.5315,-1.527,-1.5442,-1.6507,-1.6058,-1.5564,-1.6499,-1.5741,-1.4809,-1.4809,-1.4646,-1.4454,-1.4454,-1.522,-1.5861,-1.5861,-1.5861,-1.6232,-1.7334,-1.835,-1.8997,-1.8997,-1.9923,-2.0605,-2.0605,-2.0605,-2.0605,-2.0605,-2.0556,-2.0184,-1.9336,-1.9238,-1.8848,-1.8047,-1.8008,-1.8008,-1.8008,-1.8008,-1.8008,-1.8008,-1.8008,-1.8008,-1.8008,-1.8008,-1.8008,-1.347,-1.2808,0.0,0.0,-1.3561,-1.3245,-1.3955,-1.3555,-1.3069,-1.3069,-1.3069,-1.3069,-1.3069,-1.3069,-1.3294,0.0,-1.4229,-1.4382,-1.4502,-1.4816,-1.5124,-1.5364,-1.5438,-1.5518,-1.5638,-1.5651,-1.5772,-1.6066,-1.6086,-1.6213,-1.6513,-1.6526,-1.658,-1.67,-1.6874,-1.7018,-1.7018,-1.7128,-1.7215,-1.7215,-1.7215,-1.7215,-1.7215,-1.7215,-1.7121,-1.7018,-1.7018,-1.6867,-1.6707,-1.6707,-1.6633,-1.6526,-1.6526,-1.6446,-1.639,-1.7112,-1.703,-1.6553,-1.6413,-1.6052,-1.5625,-1.5504,-1.5471,-1.5471,-1.5471,-1.5471,-1.5471,-1.5471,-1.5471,-1.5557,-1.5998,-1.5698,-1.5347,-1.5788,-1.5335,-1.4776,-1.4776,-1.4549,-1.4342,-1.4342,-1.457,-1.4776,-1.4776,-1.4776,-1.4936,-1.5387,-1.6363,-1.7082,-1.7082,-1.859,-1.9923,-2.0518,-2.0605,-2.0605,-2.0605,-2.0605,-2.0233,-1.9382,-1.9287,-1.8906,-1.8047,-1.8008,-1.8008,-1.8008,-1.8008,-1.8008,-1.8008,-1.8008,-1.8008,-1.8008,-1.8008,-1.8008,-1.3519,0.0,0.0,-1.3779,-1.3203,-1.2547,-1.3379,-1.2681,-1.1809,-1.1809,-1.1809,-1.1938,-1.2242,-1.2285,-1.2717,-1.3906,-1.4335,-1.4549,-1.4629,-1.4747,-1.4994,-1.5458,-1.5362,-1.5471,-1.5898,-1.5952,-1.6039,-1.6259,-1.6346,-1.652,-1.6814,-1.6827,-1.686,-1.6941,-1.7154,-1.732,-1.732,-1.7475,-1.7582,-1.7582,-1.7582,-1.7582,-1.7582,-1.7582,-1.7468,-1.732,-1.732,-1.7148,-1.6947,-1.6947,-1.6901,-1.6827,-1.6827,-1.678,-1.6653,-1.6226,-1.6072,-1.6072,-1.6072,-1.6072,-1.6059,-1.5979,-1.5952,-1.5939,-1.5804,-1.5784,-1.5784,-1.5784,-1.5784,-1.5784,-1.5784,-1.5671,-1.5518,-1.5518,-1.5297,-1.5129,-1.5129,-1.485,-1.4643,-1.4643,-1.4409,-1.4208,-1.4208,-1.4142,-1.4088,-1.4088,-1.4776,-1.5379,-1.5662,-1.7374,-1.8829,-1.9599,-1.9678,-1.9678,-1.9678,-1.9678,-1.9322,-1.8489,-1.8442,-1.8078,-1.7254,-1.7226,-1.7226,-1.7226,-1.7467,-1.7613,-1.7613,-1.7862,-1.8008,-1.8008,-1.8008,-1.8008,0.0,0.0,-1.2589,-1.3779,-1.3203,-1.2328,-1.237,-1.1472,-1.0654,-1.0654,-1.0654,-1.0999,-1.2114,-1.2285,-1.2717,-1.3906,-1.4335,-1.4623,-1.4955,-1.412,-1.406,-1.5589,-1.4698,-1.4563,0.0,-1.6259,-1.6308,-1.6321,-1.6533,-1.682,-1.7172,-1.7186,-1.7313,-1.7549,-1.7562,-1.7569,-1.7569,-1.7582,-1.7582,-1.7582,-1.7582,-1.7582,-1.7582,-1.7582,-1.7582,-1.7569,-1.7569,-1.7562,-1.7555,-1.7555,-1.744,-1.7186,-1.7186,-1.7012,-1.67,-1.6687,-1.668,-1.668,-1.668,-1.668,-1.6633,-1.6353,-1.6259,-1.6206,-1.5919,-1.5784,-1.5784,-1.5784,-1.5784,-1.5784,-1.5784,-1.5771,-1.5764,-1.5764,-1.5591,-1.5384,-1.5384,-1.5202,-1.4995,-1.4995,-1.471,-1.4502,-1.4502,-1.4275,-1.4088,-1.4088,-1.413,-1.4531,-1.5579,-1.6683,-1.7374,-1.7415,-1.7415,-1.7415,-1.7415,-1.7415,-1.71,-1.6345,-1.6295,-1.598,-1.5294,-1.5269,-1.5269,-1.5269,-1.6175,-1.6636,-1.6636,-1.7579,-1.8008,-1.8008,-1.8008,-1.8008,0.0,0.0,-1.1472,-1.2638,-1.2029,-1.1166,-1.1166,-1.0869,-1.0394,-0.9623,-0.9492,-0.9579,-0.9966,-1.0053,-1.0654,-1.2595,-1.333,-1.3656,-1.3652,-1.3712,-1.3588,-1.3247,-1.3788,0.0,0.0,0.0,0.0,-1.6878,-1.6991,-1.7179,-1.7474,-1.7494,-1.7534,-1.7582,-1.7582,-1.7582,-1.7582,-1.7582,-1.7582,-1.7582,-1.7582,-1.7582,-1.7582,-1.7582,-1.7582,-1.7582,-1.7582,-1.7582,-1.7582,-1.7582,-1.7522,-1.7494,-1.7494,-1.7375,-1.7288,-1.7288,-1.7288,-1.7235,-1.684,-1.6707,-1.6693,-1.6587,-1.656,-1.654,-1.644,-1.6413,-1.6373,-1.6179,-1.6126,-1.6079,-1.5879,-1.5784,-1.5784,-1.5784,-1.5752,-1.5685,-1.5685,-1.5451,-1.5251,-1.5251,-1.5017,-1.475,-1.4556,-1.4442,-1.4309,-1.4115,-1.4088,-1.4496,-1.5579,-1.6026,-1.6519,-1.7212,-1.7302,-1.7302,-1.7302,-1.7302,-1.7079,-1.6577,-1.6552,-1.6223,-1.5506,-1.5482,-1.5366,-1.5199,-1.6105,-1.6602,-1.6602,-1.7545,-1.8008,-1.8008,-1.8008,-1.8008,0.0,-1.1171,-1.0783,-1.1509,-1.0826,-1.0009,-1.0009,-0.9657,-0.9139,-0.8408,-0.8277,-0.8408,-0.8803,-0.889,-0.9492,-1.1381,-1.2148,-1.2478,-1.2376,-1.2462,-1.2377,-1.1945,-1.2428,0.0,0.0,0.0,0.0,-1.7121,-1.73,-1.7434,-1.7569,-1.7582,-1.7582,-1.7582,-1.7582,-1.7582,-1.7582,-1.7582,-1.7582,-1.7582,-1.7582,-1.7582,-1.7582,-1.7582,-1.7582,-1.7582,-1.7582,-1.7582,-1.7582,-1.7582,-1.7582,-1.7582,-1.7582,-1.7582,-1.7582,-1.7582,-1.7582,-1.7528,-1.7154,-1.7021,-1.7001,-1.6894,-1.6867,-1.6847,-1.674,-1.6707,-1.6667,-1.648,-1.6426,-1.6359,-1.6066,-1.5985,-1.5965,-1.5804,-1.5784,-1.5784,-1.5784,-1.5678,-1.5551,-1.5551,-1.5317,-1.5057,-1.487,-1.4656,-1.4422,-1.4128,-1.4088,-1.4334,-1.5054,-1.5137,-1.5379,-1.6083,-1.6165,-1.6165,-1.6165,-1.6165,-1.6011,-1.5625,-1.5602,-1.5357,-1.4767,-1.4744,-1.462,-1.4356,-1.5595,-1.621,-1.6105,-1.7364,-1.8008,-1.8008,-1.8008,-1.8008,-1.0226,-1.0567,-1.0611,-1.0524,-0.9666,-0.8803,-0.8803,-0.7929,-0.7095,-0.7095,-0.7095,-0.7445,0.0,0.0,-0.9192,-1.0308,-1.09,-1.1191,-1.1191,-1.0523,-1.0435,0.0,0.0,0.0,0.0,0.0,0.0,-1.6904,0.0,-1.7582,-1.7582,-1.7582,-1.7582,-1.7582,-1.7582,-1.7582,-1.7582,-1.7582,-1.7582,-1.7582,-1.7582,-1.7582,-1.7582,-1.7582,-1.7582,-1.7582,-1.7582,-1.7582,-1.7582,-1.7582,-1.7582,-1.7582,-1.7582,-1.7582,-1.7582,-1.7582,-1.7582,-1.7582,-1.7582,-1.7582,-1.7535,-1.7313,-1.7226,-1.7172,-1.6834,-1.6747,-1.6747,-1.6734,-1.6727,-1.666,-1.6373,-1.6342,-1.6219,-1.5919,-1.5852,-1.5798,-1.5784,-1.5784,-1.5784,-1.5784,-1.5591,-1.5391,-1.5378,-1.4897,-1.4422,-1.4128,-1.4088,-1.4088,-1.4088,-1.4088,-1.4088,-1.4088,-1.4088,-1.4088,-1.4088,-1.4088,-1.3968,-1.3646,-1.3626,-1.3493,-1.324,-1.3233,-1.3086,-1.2811,-1.462,-1.5434,-1.5223,-1.7047,-1.7959,-1.8008,-1.8008,-1.8008,-0.9492,-0.9966,-1.0394,-0.9536,-0.8452,-0.7577,-0.7577,-0.7316,-0.7095,-0.7095,-0.7095,-0.7183,0.0,0.0,0.0,-0.9148,-0.9687,0.0,-0.9806,-0.9905,0.0,0.0,0.0,-1.0896,-1.1662,-1.2946,0.0,0.0,-1.6349,-1.7582,-1.7582,-1.7582,-1.7582,-1.7582,-1.7582,-1.7582,-1.7582,-1.7582,-1.7582,-1.7582,-1.7582,-1.7582,-1.7582,-1.7582,-1.7582,-1.7582,-1.7582,-1.7582,-1.7582,-1.7582,-1.7582,-1.7582,-1.7582,-1.7582,-1.7582,-1.7582,-1.7582,-1.7582,-1.7582,-1.7582,-1.7569,-1.7495,-1.7521,-1.7462,-1.7382,-1.7361,-1.7315,-1.7146,-1.7085,-1.7018,-1.6673,-1.6593,-1.652,-1.6233,-1.6159,-1.6099,-1.5831,-1.5784,-1.5784,-1.5784,-1.5591,-1.5331,-1.5156,-1.477,-1.4422,-1.4128,-1.4088,-1.4088,-1.4088,-1.4088,-1.4088,-1.4088,-1.4088,-1.4088,-1.4088,-1.4088,-1.4055,-1.3981,-1.3975,-1.3841,-1.3507,-1.3493,-1.3353,-1.3093,-1.4258,-1.5069,-1.5486,-1.666,-1.749,-1.8008,-1.8008,-1.8008,-0.9065,-0.9362,-0.9575,-0.8408,-0.7621,-0.7095,-0.7095,-0.7095,-0.7095,-0.7095,-0.7095,0.0,0.0,0.0,0.0,0.0,0.0,0.0,-0.8555,-0.8837,-0.8788,0.0,-0.9006,0.0,-1.0642,-1.1678,-1.262,0.0,-1.5364,-1.6605,-1.6605,-1.7259,-1.7582,-1.7582,-1.7582,-1.7582,-1.7582,-1.7582,-1.7582,-1.7582,-1.7582,-1.7582,-1.7582,-1.7582,-1.7582,-1.7582,0.0,-1.7582,-1.7582,-1.7582,-1.7582,-1.7582,-1.7582,-1.7582,-1.7582,-1.7582,-1.7582,-1.7582,-1.7582,-1.7582,-1.7582,-1.7582,-1.7582,-1.7582,-1.7582,-1.7582,-1.7549,-1.7434,-1.7393,-1.7326,-1.6981,-1.6901,-1.6827,-1.6533,-1.6366,-1.6226,-1.6059,-1.5919,-1.5784,-1.5784,-1.5698,-1.5491,-1.5204,-1.491,-1.4616,-1.4322,-1.4168,-1.4088,-1.4088,-1.4088,-1.4088,-1.4088,-1.4088,-1.4088,-1.4088,-1.4088,-1.4088,-1.4088,-1.4088,-1.4015,-1.3848,-1.3841,-1.366,-1.3367,-1.4324,-1.4932,-1.5152,-1.6088,-1.676,-1.7126,-1.7653,-1.7746,-0.8715,-0.8759,-0.8627,-0.7401,-0.7095,-0.7095,-0.7095,-0.7095,-0.7095,-0.7095,0.0,0.0,-0.7095,0.0,-0.7095,-0.7095,0.0,-0.7424,-0.758,-0.7723,-0.7868,-0.7971,-0.8303,-0.8996,-1.0283,-1.0671,-1.1324,-1.262,-1.4019,-1.4984,-1.5364,-1.6605,-1.7417,-1.7582,-1.7582,-1.7582,-1.7582,-1.7582,-1.7602,-1.7642,-1.7642,-1.7662,-1.7702,-1.7702,-1.7702,-1.7702,-1.7702,-1.7702,-1.7702,-1.7702,-1.7702,-1.7702,-1.7655,-1.7642,-1.7642,-1.7595,-1.7582,-1.7582,-1.7582,-1.7582,-1.7582,-1.7582,-1.7582,-1.7582,-1.7582,-1.7582,-1.7582,-1.7582,-1.7582,-1.7522,-1.7326,-1.7259,-1.7186,-1.6834,-1.654,-1.6319,-1.6328,-1.6039,-1.5784,-1.5784,-1.5784,-1.5684,-1.5444,-1.519,-1.4955,-1.4569,-1.4309,-1.4128,-1.4088,-1.4088,-1.4088,-1.4088,-1.4088,-1.4088,-1.4088,-1.4088,-1.4088,-1.4088,-1.4088,-1.4088,-1.4088,-1.4088,-1.3968,-1.3666,-1.4531,-1.4889,-1.4675,-1.5466,-1.5934,-1.6038,-1.7009,-1.7254,-0.7665,-0.8149,-0.8627,-0.7401,-0.7095,-0.7095,-0.7095,-0.7095,0.0,0.0,0.0,-0.7095,-0.7095,-0.7095,0.0,-0.7095,0.0,0.0,0.0,0.0,-0.7868,0.0,0.0,0.0,0.0,0.0,0.0,0.0,0.0,-1.2886,-1.5257,-1.563,-1.6333,-1.7582,-1.7582,-1.7582,-1.7582,-1.7582,-1.7709,-1.7909,-1.7909,-1.8096,-1.8337,-1.8337,-1.8337,-1.8337,-1.8337,0.0,-1.8337,-1.8337,-1.8337,-1.831,-1.8063,-1.7909,-1.7882,-1.7675,-1.7582,-1.7582,-1.7582,-1.7582,-1.7582,-1.7582,-1.7582,-1.7582,-1.7582,-1.7582,-1.7582,-1.7582,-1.7582,-1.7569,-1.7522,-1.7508,-1.7435,-1.7192,-1.6847,-1.6567,-1.6375,-1.6039,-1.5784,-1.5784,-1.5784,-1.5684,-1.5444,-1.5351,-1.5137,-1.4603,-1.4476,-1.4355,-1.4122,-1.4088,-1.4088,-1.4088,-1.4088,-1.4088,-1.4088,-1.4088,-1.4088,-1.4088,-1.4088,-1.4088,-1.4088,-1.4088,-1.4062,-1.4008,-1.4169,-1.4503,-1.5016,-1.5168,-1.5529,-1.6,-1.619,-1.6233,-0.7272,-0.7536,-0.7841,-0.7228,-0.7095,-0.7095,-0.7095,0.0,0.0,0.0,0.0,-0.7095,-0.7095,0.0,0.0,0.0,0.0,0.0,0.0,0.0,0.0,0.0,0.0,0.0,0.0,0.0,0.0,0.0,0.0,-1.0891,-1.3048,-1.4556,-1.5737,-1.6446,-1.7199,-1.7662,-1.7822,-1.7822,-1.7976,-1.8277,-1.8277,-1.835,-1.849,-1.849,-1.849,-1.849,-1.849,-1.849,-1.849,-1.849,-1.849,-1.8477,-1.8337,-1.8277,-1.8257,-1.811,-1.7956,-1.7822,-1.7822,-1.7716,-1.7582,-1.7582,-1.7582,-1.7582,-1.7582,-1.7582,-1.7582,-1.7582,-1.7582,-1.7582,-1.7582,-1.7582,-1.7549,-1.746,-1.7034,-1.6627,-1.6382,-1.6039,-1.5784,-1.5784,-1.5784,-1.5738,-1.5645,-1.5498,-1.5251,-1.4816,-1.4623,-1.4416,-1.4122,-1.4088,-1.4088,-1.4088,-1.4088,-1.4088,-1.4088,-1.4088,-1.4088,-1.4088,-1.4088,-1.4088,-1.4088,-1.4088,-1.4088,-1.4088,-1.4088,-1.426,-1.4599,-1.4599,-1.4712,-1.5032,-1.5578,-1.5723,-0.7095,-0.7095,-0.7095,-0.7095,-0.7095,-0.7095,-0.7095,-0.7095,0.0,0.0,-0.7095,-0.7095,-0.7095,0.0,0.0,0.0,0.0,0.0,0.0,0.0,0.0,0.0,0.0,0.0,0.0,0.0,0.0,0.0,0.0,0.0,-1.0996,-1.3534,-1.4959,-1.501,-1.6427,-1.7328,-1.7579,-1.7919,-1.829,-1.8584,-1.8584,-1.8617,-1.8677,-1.8677,-1.8677,-1.8677,-1.8677,-1.8677,-1.8677,-1.8677,-1.8677,-1.8671,-1.8604,-1.8584,-1.8577,-1.851,-1.8343,-1.8075,-1.8015,-1.7883,-1.7669,-1.7602,-1.7582,-1.7582,-1.7582,-1.7582,-1.7582,-1.7582,-1.7582,-1.7582,-1.7582,-1.7582,-1.7569,-1.7554,-1.7088,-1.6627,-1.6382,-1.6039,-1.5784,-1.5784,-1.5784,-1.5784,-1.5784,-1.5645,-1.5371,-1.5062,-1.4763,-1.4482,-1.4135,-1.4088,-1.4088,-1.4088,-1.4088,-1.4088,-1.4088,-1.4088,-1.4088,-1.4088,-1.4088,-1.4088,-1.4088,-1.4088,-1.4088,-1.4088,-1.4088,-1.4088,-1.4088,-1.4088,-1.4088,-1.413,-1.4977,-1.5206,-0.7095,-0.7095,-0.7095,-0.7095,-0.7095,-0.7095,-0.7095,0.0,0.0,0.0,-0.7095,-0.7095,-0.7095,-0.7095,0.0,0.0,0.0,0.0,0.0,0.0,0.0,0.0,0.0,0.0,0.0,0.0,0.0,0.0,0.0,0.0,-1.0996,-1.2615,-1.3524,-1.3678,-1.5223,-1.6118,-1.6275,-1.7704,-1.8597,-1.8885,-1.8885,-1.9025,-1.9343,-1.9343,-1.9343,-1.9343,-1.9343,-1.9343,0.0,-1.9343,-1.9343,-1.9259,-1.8991,-1.8885,-1.8851,-1.8591,-1.847,-1.841,-1.8089,-1.7975,-1.7902,-1.7675,-1.7582,-1.7582,-1.7582,-1.7582,-1.7582,-1.7582,-1.7582,-1.7582,-1.7582,-1.7582,-1.7515,-1.73,-1.6941,-1.6627,-1.6382,-1.6039,-1.5784,-1.5784,-1.5784,-1.5784,-1.5784,-1.5758,-1.5605,-1.5095,-1.4988,-1.4767,-1.4162,-1.4088,-1.4088,-1.4088,-1.4088,-1.4088,-1.4088,-1.4088,-1.4088,-1.4088,-1.4088,-1.4088,-1.4088,-1.4088,-1.4088,-1.4088,-1.4088,-1.4088,-1.4088,-1.4088,-1.4088,-1.4088,-1.4208,-1.4237,-0.7095,-0.7095,-0.7095,-0.7095,-0.7095,-0.7095,-0.7095,0.0,0.0,-0.7095,-0.7095,-0.7095,-0.7095,-0.7095,-0.7095,0.0,0.0,0.0,0.0,0.0,0.0,0.0,0.0,0.0,0.0,0.0,0.0,0.0,0.0,0.0,-0.9754,-1.116,-1.206,-1.2144,-1.3648,-1.4604,-1.4865,-1.5561,-1.6505,-1.7762,-1.7762,-1.8352,-1.9424,-1.9424,-1.9424,-1.9424,-1.9424,-1.9424,0.0,-1.9424,-1.9424,-1.9417,-1.9239,-1.9192,-1.9178,-1.9058,-1.8905,-1.8738,-1.8617,-1.8288,-1.7969,-1.7903,-1.7736,-1.7582,-1.7582,-1.7582,-1.7582,-1.7582,-1.7582,-1.7582,-1.7582,-1.7582,-1.7555,-1.7494,-1.7048,-1.6673,-1.656,-1.6159,-1.5784,-1.5784,-1.5784,-1.5784,-1.5784,-1.5784,-1.5691,-1.5284,-1.5122,-1.4861,-1.4402,-1.4195,-1.4088,-1.4088,-1.4088,-1.4088,-1.4088,-1.4088,-1.4088,-1.4088,-1.4088,-1.4088,-1.4088,-1.4088,-1.4088,-1.4088,-1.4088,-1.4088,-1.4088,-1.4088,-1.4088,-1.4088,-1.4088,-1.4088,-0.7095,-0.7095,-0.7095,-0.7095,-0.7095,-0.7095,0.0,0.0,-0.7095,-0.7095,-0.7095,-0.7095,-0.7095,-0.7095,-0.7095,-0.7095,0.0,0.0,0.0,0.0,0.0,0.0,0.0,0.0,0.0,0.0,0.0,0.0,0.0,0.0,-0.8885,-0.986,-1.0556,-1.0722,-1.2192,-1.3174,-1.3527,-1.4059,-1.4965,-1.6315,-1.6315,-1.6856,-1.7994,-1.8467,-1.8409,-1.7994,-1.8467,-1.8409,0.0,-1.8467,-1.8706,-1.8706,-1.8706,-1.8706,-1.8642,-1.8169,-1.8108,-1.8333,-1.8249,-1.8194,-1.8109,-1.8022,-1.7836,-1.7582,-1.7582,-1.7582,-1.7582,-1.7582,-1.7582,-1.7582,-1.7582,-1.7582,-1.7582,-1.7582,-1.7134,-1.6707,-1.6707,-1.6246,-1.5784,-1.5784,-1.5784,-1.5784,-1.5784,-1.5784,-1.5732,-1.5438,-1.515,-1.4901,-1.4556,-1.4269,-1.4088,-1.4088,-1.4088,-1.4088,-1.4088,-1.4088,-1.4088,-1.4088,-1.4088,-1.4088,-1.4088,-1.4088,-1.4088,-1.4088,-1.4088,-1.4088,-1.4088,-1.4088,-1.4088,-1.4088,-1.4088,-1.4088,-0.7095,-0.7095,-0.7095,-0.7095,-0.7095,-0.7095,0.0,0.0,-0.7095,-0.7095,-0.7095,-0.7095,-0.7095,-0.7095,-0.7095,-0.7095,-0.7095,0.0,0.0,0.0,0.0,0.0,0.0,0.0,0.0,0.0,0.0,0.0,0.0,0.0,-0.8885,-0.894,-0.9072,-0.9429,-1.0982,-1.1957,-1.2209,-1.3825,-1.4599,-1.4604,-1.4604,-1.4604,-1.4723,-1.6321,-1.6138,-1.4723,-1.6315,-1.6138,0.0,-1.638,-1.7026,-1.7026,-1.7026,-1.7026,-1.685,-1.5257,-1.5666,-1.6985,-1.6668,-1.7397,-1.8437,-1.8089,-1.7836,-1.7582,-1.7582,-1.7582,-1.7582,-1.7582,-1.7582,-1.7582,-1.7582,-1.7582,-1.7582,-1.7582,-1.7134,-1.6707,-1.6707,-1.6246,-1.5784,-1.5784,-1.5784,-1.5784,-1.5784,-1.5784,-1.5732,-1.5438,-1.515,-1.4901,-1.4556,-1.4269,-1.4088,-1.4088,-1.4088,-1.4088,-1.4088,-1.4088,-1.4088,-1.4088,-1.4088,-1.4088,-1.4088,-1.4088,-1.4088,-1.4088,-1.4088,-1.4088,-1.4088,-1.4088,-1.4088,-1.4088,-1.4088,-1.4088,-0.7095,-0.7095,-0.7095,-0.7095,-0.7095,-0.7095,-0.7095,-0.7095,-0.7095,-0.7095,-0.7095,-0.7095,-0.7095,-0.7095,-0.7095,-0.7095,-0.7095,0.0,0.0,0.0,0.0,0.0,0.0,0.0,0.0,0.0,0.0,0.0,0.0,0.0,-0.8885,-0.8885,-0.9028,-0.9275,-0.9838,-1.0226,-1.0442,-1.1022,-1.1856,-1.2933,-1.2933,-1.3531,-1.4604,-1.5138,-1.5074,0.0,-1.5133,-1.5074,-1.4663,-1.5133,-1.537,-1.537,-1.537,-1.602,-1.6968,-1.6433,-1.7267,-1.8603,-1.8256,-1.8324,-1.8444,-1.8089,-1.7836,-1.7582,-1.7582,-1.7582,-1.7582,-1.7582,-1.7582,-1.7582,-1.7582,-1.7582,-1.7582,-1.7582,-1.7134,-1.6707,-1.6707,-1.6246,-1.5784,-1.5784,-1.5784,-1.5784,-1.5784,-1.5784,-1.5751,-1.5705,-1.5277,-1.4975,-1.4881,-1.4396,-1.4088,-1.4088,-1.4088,-1.4088,-1.4088,-1.4088,-1.4088,-1.4088,-1.4088,-1.4088,-1.4088,-1.4088,-1.4088,-1.4088,-1.4088,-1.4088,-1.4088,-1.4088,-1.4088,-1.4088,-1.4088,-1.4088,0.0,-0.6473,-0.6561,-0.7007,-0.7095,0.0,0.0,-0.6786,-0.6962,-0.6561,-0.6786,-0.7095,-0.7095,-0.7095,-0.7095,-0.7095,-0.7095,0.0,0.0,0.0,0.0,0.0,0.0,0.0,0.0,0.0,0.0,0.0,0.0,0.0,-0.8885,-0.8885,-0.8981,-0.9069,-0.9218,-0.9367,-0.952,-0.9669,-1.0215,-1.1228,-1.129,-1.1796,-1.2813,-1.3412,-1.3347,0.0,-1.3407,-1.3347,0.0,-1.3467,-1.371,-1.371,-1.371,-1.4297,-1.5123,-1.4529,-1.53,-1.6639,-1.6385,-1.6478,-1.6733,-1.646,-1.6186,-1.5962,-1.5962,-1.6717,-1.7582,-1.7582,-1.7582,-1.747,-1.6929,-1.677,-1.6658,-1.6121,-1.5923,-1.5884,-1.5884,-1.5439,-1.5092,-1.5092,-1.4657,-1.4322,-1.4322,-1.4322,-1.4322,-1.4322,-1.3952,-1.3644,-1.3592,-1.3159,-1.285,-1.279,-1.3167,-1.3421,-1.3421,-1.3822,-1.4088,-1.4088,-1.4088,-1.4088,-1.4088,-1.4088,-1.4088,-1.4088,-1.4088,-1.4088,-1.4088,-1.4088,-1.4088,-1.4088,-1.4088,-1.4088,0.0,0.0,0.0,0.0,0.0,0.0,0.0,-0.6068,0.0,-0.5492,-0.6204,-0.6962,-0.6962,-0.7051,-0.7095,-0.7095,-0.7095,0.0,0.0,0.0,0.0,0.0,0.0,0.0,0.0,0.0,0.0,0.0,0.0,0.0,-0.8885,-0.8885,-0.8885,-0.8885,-0.9066,-0.9268,-0.9364,-0.9517,-0.9595,-0.9595,-0.9727,-0.9795,-0.9866,-1.1302,-1.1185,0.0,-1.1378,-1.1197,-0.994,-1.1438,-1.2037,-1.2037,-1.2037,-1.2097,-1.2032,-1.0528,-1.094,-1.2341,-1.2194,-1.2871,-1.3866,-1.3699,-1.3486,-1.3318,-1.3318,-1.515,-1.7312,-1.7312,-1.7312,-1.6988,-1.5636,-1.5257,-1.4931,-1.3588,-1.387,-1.4343,-1.4343,-1.4039,-1.3776,-1.3776,-1.2764,-1.1896,-1.1896,-1.1896,-1.1896,-1.1896,-1.1652,-1.1474,-1.1308,-1.0995,-1.0731,-1.0587,-1.1552,-1.22,-1.2279,-1.3421,-1.4088,-1.4088,-1.4088,-1.4088,-1.4088,-1.4088,-1.4088,-1.4088,-1.4088,-1.4088,-1.4088,-1.4088,-1.4088,-1.4088,-1.4088,-1.4088,-0.2326,0.0,-0.4105,-0.4372,0.0,0.0,0.0,-0.4239,-0.4328,0.0,0.0,0.0,0.0,-0.6517,-0.7095,0.0,0.0,0.0,0.0,0.0,0.0,0.0,0.0,0.0,0.0,0.0,0.0,0.0,0.0,-0.8885,-0.8885,-0.8885,-0.8885,-0.8885,-0.8971,-0.9059,-0.9262,-0.9357,-0.9435,-0.9435,-0.9469,-0.9547,-0.9659,-1.001,-1.0074,-0.9819,-1.0179,-1.0179,-0.9819,-1.0179,-1.0361,-1.0361,-1.0361,-1.114,-1.2136,-1.1641,-1.2523,-1.382,-1.3433,-1.3491,-1.3689,-1.3471,-1.3359,-1.3318,-1.3318,-1.375,-1.4288,-1.4288,-1.4288,-1.4234,-1.3857,-1.3804,-1.3696,-1.3372,-1.3184,-1.3058,-1.3058,-1.2702,-1.2382,-1.2382,-1.2139,-1.1896,-1.1896,-1.1896,-1.1896,-1.1896,-1.1652,-1.1474,-1.1308,-1.0995,-1.0731,-1.0587,-1.0826,-1.1338,-1.2242,-1.3421,-1.4088,-1.4088,-1.4088,-1.4088,-1.4088,-1.4088,-1.4088,-1.4088,-1.4088,-1.4088,-1.4088,-1.4088,-1.4088,-1.4088,-1.4088,-1.4088,-0.0807,-0.1835,-0.2903,-0.3481,-0.3614,-0.3436,-0.2903,0.0,0.0,0.0,0.0,0.0,0.0,0.0,0.0,0.0,0.0,0.0,0.0,0.0,0.0,0.0,0.0,0.0,0.0,0.0,0.0,0.0,0.0,-0.8885,-0.8885,-0.8885,-0.8885,-0.8885,-0.8885,-0.8977,-0.9055,-0.9201,-0.9333,-0.9333,-0.9347,-0.9425,-0.9503,-0.9503,-0.9547,-0.9618,-0.9618,-0.9618,-0.9618,-0.9618,-0.9618,-0.9618,-0.9618,-1.0146,-1.0898,-1.0805,-1.135,-1.2054,-1.1755,-1.1543,-1.1457,-1.1354,-1.1269,-1.1269,-1.1269,-1.1269,-1.1538,-1.294,-1.3318,-1.3156,-1.2457,-1.2295,-1.2132,-1.1433,-1.1451,-1.1569,-1.1569,-1.1308,-1.1023,-1.1023,-1.0534,-1.0092,-1.0092,-1.0092,-1.0092,-1.0092,-1.0002,-0.9836,-0.9618,-0.9447,-0.9231,-0.9038,-0.9488,-1.0053,-1.0697,-1.1821,-1.2954,-1.4046,-1.4088,-1.4088,-1.4088,-1.4088,-1.4088,-1.4088,-1.4088,-1.4088,-1.4088,-1.4088,-1.4088,-1.4088,-1.4088,-1.4088,0.0,-0.0763,-0.179,-0.2814,-0.3037,-0.2769,-0.1745,0.0,0.0,0.0,0.0,0.0,0.0,0.0,0.0,0.0,0.0,0.0,0.0,0.0,0.0,0.0,0.0,0.0,0.0,0.0,0.0,0.0,0.0,-0.8885,-0.8885,-0.8885,-0.8885,-0.8885,-0.8885,-0.8885,-0.8885,-0.9059,-0.9176,-0.918,-0.9252,-0.9323,-0.9347,-0.9347,-0.9357,-0.9381,0.0,0.0,-0.9381,-0.9381,-0.9381,-0.9381,-0.9381,-0.9381,-0.9378,-0.9354,-0.9347,-0.9323,-0.9231,-0.9042,-0.8885,-0.8885,-0.8885,-0.8885,-0.8885,-0.8885,-0.9427,-1.1919,-1.262,-1.2349,-1.1105,-1.0781,-1.0449,-0.9178,-0.9479,-1.0123,-1.0099,-0.9886,-0.9706,-0.9706,-0.8775,-0.7988,-0.7988,-0.7988,-0.7988,-0.7988,-0.7988,-0.7891,-0.7665,-0.7614,-0.7489,-0.7162,-0.8032,-0.8715,-0.889,-0.9792,-1.1262,-1.3434,-1.3561,-1.3561,-1.3561,-1.3561,-1.3561,-1.3561,-1.3737,-1.3822,-1.3822,-1.3997,-1.4088,-1.4088,-1.4088,-1.4088,0.0,-0.0135,-0.0314,-0.0494,-0.0539,-0.0494,-0.0314,0.0,0.0,0.0,0.0,0.0,0.0,0.0,0.0,0.0,0.0,0.0,0.0,0.0,0.0,0.0,0.0,0.0,0.0,0.0,0.0,0.0,0.0,-0.8885,-0.8885,-0.8885,-0.8885,-0.8885,-0.8885,-0.8885,-0.8885,-0.8905,-0.8971,-0.8974,-0.8939,-0.9069,-0.9245,-0.9245,-0.9316,-0.9381,0.0,-0.9381,-0.9381,-0.9381,-0.9381,-0.9381,-0.9381,-0.9381,-0.9364,-0.9292,-0.9245,-0.9224,-0.9022,-0.8902,-0.8885,-0.8885,-0.8885,-0.8885,-0.8885,-0.8885,-0.8992,-0.9427,-0.9592,-0.9537,-0.932,-0.9265,-0.9178,-0.8828,-0.8767,-0.8758,-0.8632,-0.8463,-0.8283,-0.8283,-0.8137,-0.7988,-0.7988,-0.7988,-0.7988,-0.7988,-0.7988,-0.7928,-0.7801,-0.7675,-0.7533,-0.7356,-0.7351,-0.7797,-0.8803,-0.9061,-0.971,-1.1047,-1.1128,-1.1128,-1.1128,-1.1128,-1.1128,-1.1128,-1.2072,-1.2589,-1.2589,-1.3603,-1.4088,-1.4088,-1.4088,-1.4088,0.0,0.0,0.0,0.0,0.0,0.0,0.0,0.0,0.0,0.0,0.0,0.0,0.0,0.0,0.0,0.0,0.0,0.0,0.0,0.0,0.0,0.0,0.0,0.0,0.0,0.0,0.0,0.0,0.0,0.0,-0.8885,-0.8885,-0.8885,-0.8885,-0.8885,-0.8885,-0.8885,-0.8885,-0.8885,-0.8885,-0.8885,-0.8974,-0.9035,-0.9035,-0.9076,-0.9144,0.0,-0.9144,-0.9144,-0.9144,-0.9144,-0.9144,-0.9144,-0.9144,-0.9133,-0.9062,-0.9035,-0.9028,-0.8905,-0.8885,-0.8885,-0.8885,-0.8885,-0.8885,-0.8885,-0.8885,-0.8885,-0.8885,-0.8885,-0.8885,-0.8885,-0.8885,-0.8844,-0.8747,-0.8594,-0.8442,-0.835,-0.815,-0.7988,-0.7988,-0.7988,-0.7988,-0.7988,-0.7988,-0.7988,-0.7988,-0.7988,-0.7934,-0.7831,-0.7689,-0.7543,-0.7433,-0.7234,-0.7316,-0.7885,-0.7929,-0.8707,-1.0481,-1.0611,-1.0611,-1.0611,-1.0611,-1.0611,-1.0611,-1.1123,-1.1381,-1.1381,-1.1955,-1.2217,-1.2217,-1.2217,-1.2217,0.0,0.0,0.0,0.0,0.0,0.0,0.0,0.0,0.0,0.0,0.0,0.0,0.0,0.0,0.0,0.0,0.0,0.0,0.0,0.0,0.0,0.0,0.0,0.0,0.0,0.0,0.0,0.0,0.0,0.0,-0.8831,-0.8865,-0.8885,-0.8885,-0.8885,-0.8885,-0.8885,-0.8885,-0.8885,-0.8885,-0.8885,-0.8885,-0.8885,-0.8885,-0.8885,-0.8885,-0.8885,-0.8885,-0.8885,-0.8885,-0.8885,-0.8885,-0.8885,-0.8885,-0.8885,-0.8885,-0.8885,-0.8885,-0.8885,-0.8885,-0.8885,-0.8885,-0.8885,-0.8885,-0.8885,-0.8885,-0.8885,-0.8885,-0.8885,-0.8885,-0.8885,-0.8858,-0.8794,-0.8693,-0.854,-0.8391,-0.8248,-0.8123,-0.7988,-0.7988,-0.7988,-0.7988,-0.7988,-0.7988,-0.7988,-0.7988,-0.7988,-0.7948,-0.7879,-0.7709,-0.7553,-0.7438,-0.7255,-0.7095,-0.7095,-0.7095,-0.7878,-0.9657,-0.9788,-0.9788,-0.9788,-0.9788,-0.9788,-0.9788,-1.0048,-1.0183,-1.0183,-1.0481,-1.0611,-1.0611,-1.0611,-1.0611,0.0,0.0,0.0,0.0,0.0,0.0,0.0,0.0,0.0,0.0,0.0,0.0,0.0,0.0,0.0,0.0,0.0,0.0,0.0,0.0,0.0,0.0,0.0,0.0,0.0,0.0,0.0,0.0,0.0,0.0,-0.8672,-0.8807,-0.8885,-0.8885,-0.8885,-0.8885,-0.8885,-0.8885,-0.8885,-0.8885,-0.8885,-0.8885,-0.8885,-0.8885,-0.8885,-0.8885,-0.8885,-0.8885,-0.8885,-0.8885,-0.8885,-0.8885,-0.8885,-0.8885,-0.8885,-0.8885,-0.8885,-0.8885,-0.8885,-0.8885,-0.8885,-0.8885,-0.8885,-0.8885,-0.8885,-0.8885,-0.8885,-0.8885,-0.8885,-0.8885,-0.8885,-0.8832,-0.8686,-0.8533,-0.8391,-0.8245,-0.8039,-0.7995,-0.7988,-0.7988,-0.7988,-0.7988,-0.7988,-0.7988,-0.7988,-0.7988,-0.7988,-0.7985,-0.7975,-0.7777,-0.7597,-0.7584,-0.727,-0.7095,-0.7095,-0.7095,-0.7183,-0.7356,-0.7356,-0.7356,-0.7356,-0.7356,-0.7356,-0.7356,-0.8452,-0.9017,-0.9017,-1.0096,-1.0611,-1.0611,-1.0611,-1.0611,0.0,0.0,0.0,0.0,0.0,0.0,0.0,0.0,0.0,0.0,0.0,0.0,0.0,0.0,0.0,0.0,0.0,0.0,0.0,0.0,0.0,0.0,0.0,0.0,0.0,0.0,0.0,0.0,0.0,0.0,-0.8514,-0.7814,-0.7828,-0.874,-0.8798,-0.8842,-0.8881,-0.8885,-0.8885,-0.8885,-0.8885,-0.8885,-0.8885,-0.8885,-0.8885,-0.8885,-0.8885,-0.8885,-0.8885,-0.8885,-0.8885,-0.8885,-0.8885,-0.8885,-0.8885,-0.8885,-0.8885,-0.8885,-0.8885,-0.8885,-0.8885,-0.8885,-0.8885,-0.8885,-0.8885,-0.8885,-0.8885,-0.8885,-0.8885,-0.8885,-0.8885,-0.8825,-0.8672,-0.852,-0.8374,-0.8228,-0.8022,-0.7988,-0.7988,-0.7988,-0.7988,-0.7988,-0.7988,-0.7988,-0.7988,-0.7988,-0.7988,-0.7988,-0.7988,-0.7858,-0.7695,-0.7607,-0.7277,-0.7095,-0.7095,-0.7095,-0.7095,-0.7095,-0.7095,-0.7095,-0.7095,-0.7095,-0.7095,-0.7095,-0.7533,-0.7797,-0.7797,-0.8229,-0.8444,-0.8444,-0.8444,-0.8444,0.0,0.0,0.0,0.0,0.0,0.0,0.0,0.0,0.0,0.0,0.0,0.0,0.0,0.0,0.0,0.0,0.0,0.0,0.0,0.0,0.0,0.0,0.0,0.0,0.0,0.0,0.0,0.0,0.0,0.0,0.0,-0.7611,-0.7569,-0.8581,-0.8638,-0.8689,-0.8794,-0.8794,-0.8794,-0.8794,-0.8845,-0.8838,-0.8885,-0.8885,-0.8885,-0.8885,-0.8885,-0.8885,-0.8885,-0.8885,-0.8885,-0.8885,-0.8885,-0.8885,-0.8885,-0.8885,-0.8885,-0.8885,-0.8885,-0.8885,-0.8885,-0.8885,-0.8885,-0.8885,-0.8885,-0.8885,-0.8885,-0.8885,-0.8848,-0.8811,-0.8811,-0.8754,-0.8601,-0.8452,-0.8303,-0.817,-0.8012,-0.7988,-0.7988,-0.7988,-0.7988,-0.7988,-0.7988,-0.7988,-0.7988,-0.7988,-0.7988,-0.7988,-0.7988,-0.7906,-0.774,-0.7546,-0.7339,-0.7149,-0.7098,-0.7095,-0.7095,-0.7095,-0.7095,-0.7095,-0.7095,-0.7095,-0.7095,-0.7095,-0.7095,-0.7095,-0.7095,-0.7095,-0.7095,-0.7095,-0.7095,-0.7095,0.0,0.0,0.0,0.0,0.0,0.0,0.0,0.0,0.0,0.0,0.0,0.0,0.0,0.0,0.0,0.0,0.0,0.0,0.0,0.0,0.0,0.0,0.0,0.0,0.0,0.0,0.0,0.0,0.0,0.0,0.0,-0.8401,-0.8479,-0.8479,-0.8479,-0.8479,-0.8482,-0.8482,-0.8482,-0.8482,-0.8635,-0.8788,-0.8881,-0.8885,-0.8885,-0.8885,-0.8885,-0.8885,-0.8885,-0.8885,-0.8885,-0.8885,-0.8885,-0.8885,-0.8885,-0.8885,-0.8885,-0.8885,-0.8885,-0.8885,-0.8885,-0.8885,-0.8885,-0.8885,-0.8885,-0.8881,-0.8881,-0.8881,-0.8825,-0.871,-0.8706,-0.8594,-0.8445,-0.8354,-0.815,-0.7988,-0.7988,-0.7988,-0.7988,-0.7988,-0.7988,-0.7988,-0.7988,-0.7988,-0.7988,-0.7988,-0.7988,-0.7988,-0.7988,-0.7906,-0.7699,-0.745,-0.7415,-0.7309,-0.7109,-0.7095,-0.7095,-0.7095,-0.7095,-0.7095,-0.7095,-0.7095,-0.7095,-0.7095,-0.7095,-0.7095,-0.7095,-0.7095,-0.7095,-0.7095,-0.7095,-0.7095,0.0,0.0,0.0,0.0,0.0,0.0,0.0,0.0,0.0,0.0,0.0,0.0,0.0,0.0,0.0,0.0,0.0,0.0,0.0,0.0,0.0,0.0,0.0,0.0,0.0,0.0,0.0,0.0,0.0,0.0,0.0,-0.585,-0.6261,-0.8278,-0.8333,-0.8381,-0.8479,-0.8482,-0.8482,-0.8482,-0.8526,-0.8628,-0.8781,-0.8834,-0.8885,-0.8885,-0.8885,-0.8885,-0.8885,-0.8885,-0.8885,-0.8885,-0.8885,-0.8885,-0.8885,-0.8885,-0.8885,-0.8885,-0.8885,-0.8885,-0.8885,-0.8885,-0.8885,-0.8885,-0.8885,-0.8807,-0.8777,-0.8777,-0.8669,-0.8526,-0.8428,-0.8367,-0.8323,-0.8333,-0.815,-0.7988,-0.7988,-0.7988,-0.7988,-0.7988,-0.7988,-0.7988,-0.7988,-0.7988,-0.7988,-0.7988,-0.7988,-0.7988,-0.7988,-0.7906,-0.774,-0.7553,-0.7438,-0.7309,-0.7109,-0.7095,-0.7095,-0.7095,-0.7095,-0.7095,-0.7095,-0.7095,-0.7095,-0.7095,-0.7095,-0.7095,-0.7095,-0.7095,-0.7095,-0.7095,-0.7095,-0.7095,0.0133,0.0,0.0,0.0,0.0,0.0,0.0,0.0,0.0,0.0,0.0,0.0,0.0,0.0,0.0,0.0,0.0,0.0,0.0,0.0,0.0,0.0,0.0,0.0,0.0,0.0,0.0,0.0,0.0,0.0,0.0,-0.4418,-0.4794,-0.6535,-0.7101,-0.7448,-0.7525,-0.8046,-0.8306,-0.8306,-0.837,-0.8445,-0.854,-0.8689,-0.8757,-0.8757,-0.8757,-0.8791,-0.8849,-0.8849,-0.8828,-0.8885,-0.8885,-0.8885,-0.8885,-0.8885,-0.8885,-0.8885,-0.8885,-0.8885,-0.8885,-0.8885,-0.8844,-0.8849,-0.8849,-0.874,-0.8618,-0.8618,-0.8513,-0.8377,-0.8344,-0.8225,-0.8177,-0.8177,-0.8106,-0.7988,-0.7988,-0.7988,-0.7988,-0.7988,-0.7988,-0.7988,-0.7988,-0.7988,-0.7988,-0.7988,-0.7988,-0.7988,-0.7988,-0.7911,-0.7845,-0.7699,-0.755,-0.74,-0.7244,-0.7132,-0.7095,-0.7095,-0.7095,-0.7095,-0.7095,-0.7095,-0.7095,-0.7095,-0.7095,-0.7095,-0.7095,-0.7095,-0.7095,-0.7095,-0.7095,-0.7095,0.0,0.0,0.0,0.0,0.0,0.0,0.0,0.0,0.0,0.0,0.0,0.0,0.0,0.0,0.0,0.0,0.0,0.0,0.0,0.0,0.0,0.0,0.0,0.0,0.0,0.0,0.0,0.0,0.0,0.0,0.0,-0.3815,-0.3865,-0.4016,-0.5172,-0.5827,-0.5827,-0.7033,-0.7686,-0.7839,-0.7873,-0.8041,-0.8255,-0.8411,-0.8482,-0.8482,-0.8482,-0.856,-0.8689,-0.8689,-0.8771,-0.8841,-0.8841,-0.8841,-0.8841,-0.8841,-0.8841,-0.8841,-0.8841,-0.8841,-0.8841,-0.8841,-0.8804,-0.8689,-0.8689,-0.8584,-0.8462,-0.8462,-0.836,-0.8248,-0.8248,-0.8143,-0.7988,-0.7988,-0.7988,-0.7988,-0.7988,-0.7988,-0.7988,-0.7988,-0.7988,-0.7988,-0.7988,-0.7988,-0.7988,-0.7988,-0.7988,-0.7988,-0.7988,-0.7988,-0.7931,-0.7828,-0.7695,-0.7553,-0.7433,-0.7241,-0.7109,-0.7098,-0.7095,-0.7095,-0.7095,-0.7095,-0.7095,-0.7095,-0.7095,-0.7095,-0.7095,-0.7095,-0.7095,-0.7095,-0.7095,-0.7095,0.0,0.0,0.0,0.0,0.0,0.0,0.0,0.0,0.0,0.0,0.0,0.0,0.0,0.0,0.0,0.0,0.0,0.0,0.0,0.0,0.0,0.0,0.0,0.0,0.0,0.0,0.0,0.0,0.0,0.0,-0.2363,-0.2414,-0.2914,-0.3966,-0.4268,-0.4418,-0.4418,-0.4718,-0.5372,-0.6431,-0.5393,-0.601,-0.8099,-0.836,-0.8482,-0.8482,-0.8482,-0.8503,-0.853,-0.853,-0.855,-0.8581,-0.8581,-0.8581,-0.8581,-0.8581,-0.8581,-0.8581,-0.8581,-0.8581,-0.8581,-0.8581,-0.8557,-0.853,-0.853,-0.8431,-0.8368,-0.8368,-0.8208,-0.8089,-0.8089,-0.8015,-0.7988,-0.7988,-0.7988,-0.7988,-0.7988,-0.7988,-0.7988,-0.7988,-0.7988,-0.7988,-0.7988,-0.7988,-0.7988,-0.7988,-0.7988,-0.7988,-0.7988,-0.7988,-0.7931,-0.7828,-0.7784,-0.7658,-0.7439,-0.7343,-0.7272,-0.7102,-0.7095,-0.7095,-0.7095,-0.7095,-0.7095,-0.7095,-0.7095,-0.7095,-0.7095,-0.7095,-0.7095,-0.7095,-0.7095,-0.7095,0.0,0.0,0.0,0.0,0.0,0.0,0.0,0.0,0.0,0.0,0.0,0.0,0.0,0.0,0.0,0.0,0.0,0.0,0.0,0.0,0.0,0.0,0.0,0.0,0.0,0.0,0.0,0.0,0.0,-0.0296,-0.0994,-0.1044,-0.1347,-0.2063,-0.2715,-0.3065,-0.3065,-0.3665,-0.4368,-0.5022,-0.4318,-0.4718,-0.6126,-0.7582,-0.8269,-0.8269,-0.8269,-0.8313,-0.8381,-0.8381,-0.8421,-0.8482,-0.8482,-0.8482,-0.8482,-0.8482,-0.8482,-0.8482,-0.8482,-0.8482,-0.8482,-0.8482,-0.8435,-0.8381,-0.8381,-0.8279,-0.816,-0.816,-0.8102,-0.7839,-0.7185,-0.7537,-0.7839,-0.7185,-0.7537,-0.7988,-0.7988,-0.7988,-0.7988,-0.7988,-0.7988,-0.7988,-0.7988,-0.7988,-0.7988,-0.7988,-0.7988,-0.7988,-0.7988,-0.7988,-0.7961,-0.788,-0.7855,-0.7723,-0.7499,-0.746,-0.7305,-0.7105,-0.7095,-0.7095,-0.7095,-0.7095,-0.7095,-0.7095,-0.7095,-0.7095,-0.7095,-0.7095,-0.7095,-0.7095,-0.7095,-0.7095,0.0,0.0,0.0,0.0,0.0,0.0,0.0,0.0,0.0,0.0,0.0,0.0,0.0,0.0,0.0,0.0,0.0,0.0,0.0,0.0,0.0,0.0,0.0,0.0,0.0,0.0,0.0,0.0,0.0,0.0,0.0,0.0,0.0,0.0,-0.1051,-0.1653,-0.1653,-0.276,-0.3416,-0.3665,-0.3865,-0.3865,-0.3715,-0.6174,-0.7332,-0.7332,-0.7332,-0.74,-0.7559,-0.7559,-0.7622,-0.7718,-0.7718,-0.7718,-0.7718,-0.7718,-0.7718,-0.7718,-0.7718,-0.7718,-0.7718,-0.7718,-0.7646,-0.7559,-0.7559,-0.7425,-0.7332,-0.7332,-0.7332,-0.7033,-0.5927,-0.6478,-0.703,-0.5927,-0.6478,-0.7434,-0.7889,-0.7637,-0.7385,-0.7587,-0.7637,-0.7739,-0.7939,-0.7789,-0.7637,-0.7637,-0.7434,-0.7332,-0.7332,-0.7332,-0.7332,-0.7332,-0.7229,-0.7106,-0.6975,-0.6839,-0.6697,-0.6513,-0.6482,-0.6514,-0.6514,-0.6514,-0.6514,-0.6514,-0.6871,-0.7095,-0.7095,-0.7095,-0.7095,-0.7095,-0.7095,-0.7095,0.0,0.0,0.0,0.0,0.0,0.0,0.0,0.0,0.0,0.0,0.0,0.0,0.0,0.0,0.0,0.0,0.0,0.0,0.0,0.0,0.0,0.0,0.0,0.0,0.0,0.0,0.0,0.0,0.0,0.0,0.0,0.0,0.0,0.0,-0.0195,-0.0246,-0.0246,-0.045,-0.1109,-0.2264,-0.3466,-0.3416,-0.2314,-0.3817,-0.4516,-0.4516,-0.4516,-0.4574,-0.4583,-0.4583,-0.4591,-0.4601,-0.4601,-0.4601,-0.4601,-0.4601,-0.4601,-0.4601,-0.4601,-0.4601,-0.4601,-0.4601,-0.4593,-0.4583,-0.4583,-0.4576,-0.4516,-0.4516,-0.4516,-0.4516,-0.4316,-0.4416,-0.4466,-0.4316,-0.4416,-0.5168,-0.7484,-0.6174,-0.4868,-0.6027,-0.6279,-0.6631,-0.7789,-0.7033,-0.6279,-0.6279,-0.527,-0.4516,-0.4516,-0.4516,-0.4516,-0.4516,-0.4506,-0.4468,-0.4339,-0.4304,-0.4215,-0.4084,-0.4057,-0.4059,-0.4059,-0.4059,-0.4059,-0.4059,-0.6065,-0.7095,-0.7095,-0.7095,-0.7095,-0.7095,-0.7095,-0.7095,0.0,0.0,0.0,0.0,0.0,0.0,0.0,0.0,0.0,0.0,0.0,0.0,0.0,0.0,0.0,0.0,0.0,0.0,0.0,0.0,0.0,0.0,0.0,0.0,0.0,0.0,0.0,0.0,0.0,0.0,0.0,0.0,0.0,0.0,0.0,0.0,0.0,0.0,-0.03,-0.0907,-0.146,-0.1461,-0.0907,-0.1511,-0.2564,-0.4016,-0.4016,-0.4016,-0.4016,-0.4016,-0.4016,-0.4016,-0.4016,-0.4016,-0.4016,-0.4016,-0.4016,-0.4016,-0.4016,-0.4016,-0.4016,-0.4016,-0.4016,-0.4016,-0.4016,-0.4016,-0.4016,-0.4016,-0.4016,-0.3815,-0.3065,-0.3416,-0.3815,-0.3065,-0.2864,-0.3416,-0.532,-0.4818,-0.4166,-0.477,-0.487,-0.507,-0.5672,-0.527,-0.487,-0.487,-0.4368,-0.4016,-0.4016,-0.4016,-0.4016,-0.4016,-0.4016,-0.3937,-0.3819,-0.3783,-0.3762,-0.3598,-0.3606,-0.3614,-0.3616,-0.3614,-0.3614,-0.3614,-0.4594,-0.5487,-0.616,-0.616,-0.647,-0.7095,-0.7095,-0.7095,0.0,0.0,0.0,0.0,0.0,0.0,0.0,0.0,0.0,0.0,0.0,0.0,0.0,0.0,0.0,0.0,0.0,0.0,0.0,0.0,0.0,0.0,0.0,0.0,0.0,0.0,0.0,0.0,0.0,0.0,0.0,0.0,0.0,0.0,0.0,0.0,0.0,0.0,0.0,0.0,0.0,0.0,0.0,0.0,-0.1109,-0.2964,-0.2964,-0.2964,-0.2964,-0.2964,-0.2964,-0.2964,-0.2964,-0.2964,-0.2964,-0.2964,-0.2964,-0.2964,-0.2964,-0.2964,-0.2964,-0.2964,-0.2964,-0.2964,-0.2964,-0.2964,-0.2964,-0.2964,-0.2964,-0.2764,-0.1762,-0.2213,-0.2715,-0.1712,-0.1511,-0.1762,-0.2764,-0.3265,-0.3515,-0.3515,-0.3515,-0.3615,-0.3966,-0.3715,-0.3515,-0.3515,-0.3215,-0.2964,-0.2964,-0.2964,-0.2964,-0.2964,-0.2964,-0.2949,-0.2861,-0.2844,-0.2796,-0.2698,-0.268,-0.2693,-0.2684,-0.2681,-0.2681,-0.2681,-0.2681,-0.3438,-0.4956,-0.4956,-0.5398,-0.6201,-0.6201,-0.6201,0.0,0.0,0.0,0.0,0.0,0.0,0.0,0.0,0.0,0.0,0.0,0.0,0.0,0.0,0.0,0.0,0.0,0.0,0.0,0.0,0.0,0.0,0.0,0.0,0.0,0.0,0.0,0.0,0.0,0.0,0.0,0.0,0.0,0.0,0.0,0.0,0.0,0.0,0.0,0.0,0.0,0.0,0.0,0.0,-0.0101,-0.0202,-0.0202,-0.0202,-0.0202,-0.0202,-0.0202,-0.0202,-0.0202,-0.0202,-0.0202,-0.0202,-0.0202,-0.0202,-0.0202,-0.0202,-0.0202,-0.0202,-0.0202,-0.0202,-0.0202,-0.0202,-0.0202,-0.0202,-0.0202,-0.0202,-0.0101,-0.0151,-0.0202,-0.0101,-0.0101,-0.0101,-0.0202,-0.1209,-0.2113,-0.2113,-0.2113,-0.2514,-0.3765,-0.2966,-0.2113,-0.2113,-0.1008,-0.0202,-0.0202,-0.0202,-0.0202,-0.0202,-0.0202,-0.0202,-0.0202,-0.0198,-0.0195,-0.0191,-0.0187,-0.0183,-0.018,-0.018,-0.018,-0.018,-0.018,-0.1344,-0.3703,-0.3703,-0.3703,-0.3792,-0.3792,-0.3792,0.0,0.0,0.0,0.0,0.0,0.0,0.0,0.0,0.0,0.0,0.0,0.0,0.0,0.0,0.0,0.0,0.0,0.0,0.0,0.0,0.0,0.0,0.0,0.0,0.0,0.0,0.0,0.0,0.0,0.0,0.0,0.0,0.0,0.0,0.0,0.0,0.0,0.0,0.0,0.0,0.0,0.0,0.0,0.0,0.0,0.0,0.0,0.0,0.0,0.0,0.0,0.0,0.0,0.0,0.0,0.0,0.0,0.0,0.0,0.0,0.0,0.0,0.0,0.0,0.0,0.0,0.0,0.0,0.0,0.0,0.0,0.0,0.0,0.0,0.0,0.0,0.0,-0.0353,-0.0706,-0.0706,-0.0706,-0.0857,-0.136,-0.1058,-0.0706,-0.0706,-0.0303,0.0,0.0,0.0,0.0,0.0,0.0,0.0,0.0,0.0,0.0,0.0,0.0,0.0,0.0,0.0,0.0,0.0,0.0,-0.0807,-0.2458,-0.2458,-0.2858,-0.3614,-0.3614,-0.3614,0.0,0.0,0.0,0.0,0.0,0.0,0.0,0.0,0.0,0.0,0.0,0.0,0.0,0.0,0.0,0.0,0.0,0.0,0.0,0.0,0.0,0.0,0.0,0.0,0.0,0.0,0.0,0.0,0.0,0.0,0.0,0.0,0.0,0.0,0.0,0.0,0.0,0.0,0.0,0.0,0.0,0.0,0.0,0.0,0.0,0.0,0.0,0.0,0.0,0.0,0.0,0.0,0.0,0.0,0.0,0.0,0.0,0.0,0.0,0.0,0.0,0.0,0.0,0.0,0.0,0.0,0.0,0.0,0.0,0.0,0.0,0.0,0.0,0.0,0.0,0.0,0.0,0.0,0.0,0.0,0.0,0.0,0.0,0.0,0.0,0.0,0.0,0.0,0.0,0.0,0.0,0.0,0.0,0.0,0.0,0.0,0.0,0.0,0.0,0.0,0.0,0.0,0.0,0.0,0.0,-0.0404,-0.121,-0.121,-0.1612,-0.2413,-0.2413,-0.2413,0.0,0.0,0.0,0.0,0.0,0.0,0.0,0.0,0.0,0.0,0.0,0.0,0.0,0.0,0.0,0.0,0.0,0.0,0.0,0.0,0.0,0.0,0.0,0.0,0.0,0.0,0.0,0.0,0.0,0.0,0.0,0.0,0.0,0.0,0.0,0.0,0.0,0.0,0.0,0.0,0.0,0.0,0.0,0.0,0.0,0.0,0.0,0.0,0.0,0.0,0.0,0.0,0.0,0.0,0.0,0.0,0.0,0.0,0.0,0.0,0.0,0.0,0.0,0.0,0.0,0.0,0.0,0.0,0.0,0.0,0.0,0.0,0.0,0.0,0.0,0.0,0.0,0.0,0.0,0.0,0.0,0.0,0.0,0.0,0.0,0.0,0.0,0.0,0.0,0.0,0.0,0.0,0.0,0.0,0.0,0.0,0.0,0.0,0.0,0.0,0.0,0.0,0.0,0.0,0.0,0.0,0.0,0.0,0.0,0.0,0.0,0.0,0.7095,0.0,0.0,0.0,0.0,0.0,0.0,0.0,0.0,0.0,0.0,0.0,0.0,0.0,0.0,0.0,0.0,0.0,0.0,0.0,0.0,0.0,0.0,0.0,0.0,0.0,0.0,0.0,0.0494,0.0,0.0,0.0,0.0,0.0,0.0,0.0,0.0,0.0,0.0,0.0,0.0,0.0,0.0,0.0,0.0,0.0,0.0,0.0,0.0,0.0,0.0,0.0,0.0,0.0,0.0,0.0,0.0,0.0,0.0,0.0,0.0,0.0,0.0,0.0,0.0,0.0,0.0,0.0,0.0,0.0,0.0,0.0,0.0,0.0,0.0,0.0,0.0,0.0,0.0,0.0,0.0,0.0,0.0,0.0,0.0,0.0,0.0,0.0,0.0,0.0,0.0,0.0,0.0,0.0,0.0,0.0,0.0,0.0,0.0,0.0,0.0,0.0,0.0,0.0,0.0,0.0,0.0,0.0,0.0,0.0,0.0,0.0,0.0,0.0,0.0,0.0,0.0,0.0,0.7095,0.7095,0.0,0.0,0.0,0.0,0.0,0.0,0.0,0.0,0.0,0.0,0.0,0.0,0.0,0.0,0.0,0.0,0.0,0.3707,0.3084,0.2592,0.1879,0.1299,0.0762,0.0763,0.0539,0.0,0.0,0.0,0.0,0.0,0.0,0.0,0.0,0.0,0.0,0.0,0.0,0.0,0.0,0.0,0.0,0.0,0.0,0.0,0.0,0.0,0.0,0.0,0.0,0.0,0.0,0.0,0.0,0.0,0.0,0.0,0.0,0.0,0.0,0.0,0.0,0.0,0.0,0.0,0.0,0.0,0.0,0.0,0.0,0.0,0.0,0.0,0.0,0.0,0.0,0.0,0.0,0.0,0.0,0.0,0.0,0.0,0.0,0.0,0.0,0.0,0.0,0.0,0.0,0.0,0.0,0.0,0.0,0.0,0.0,0.0,0.0,0.0,0.0,0.0,0.0,0.0,0.0,0.0,0.0,0.0,0.0,0.0,0.0,0.0,0.7095,0.7095,0.7095,0.0,0.0,0.0,0.0,0.0,0.0,0.0,0.0,0.0,0.0,0.0,0.0,0.0,0.0,0.0,0.5672,0.5492,0.4954,0.3881,0.3659,0.3126,0.2057,0.2013,0.1433,0.0225,0.018,0.0135,0.0,0.0,0.0,0.0,0.0,0.0,0.0,0.0,0.0,0.0,0.0,0.0,0.0,0.0,0.0,0.0,0.0,0.0,0.0,0.0,0.0,0.0,0.0,0.0,0.0,0.0,0.0,0.0,0.0,0.0,0.0,0.0,0.0,0.0,0.0,0.0,0.0,0.0,0.0,0.0,0.0,0.0,0.0,0.0,0.0,0.0,0.0,0.0,0.0,0.0,0.0,0.0,0.0,0.0,0.0,0.0,0.0,0.0,0.0,0.0,0.0,0.0,0.0,0.0,0.0,0.0,0.0,0.0,0.0,0.0,0.0,0.0,0.0,0.0,0.0,0.0,0.0,0.0,0.0,0.0,0.0,0.0,0.7095,0.7095,0.7095,0.0,0.0,0.0,0.0,0.0,0.0,0.0,0.0,0.0,0.0,0.0,0.0,0.0,0.0,0.0,0.6786,0.5938,0.5314,0.5045,0.415,0.3481,0.326,0.326,0.2681,0.1478,0.1433,0.0986,0.0,0.0,0.0,0.0,0.0,0.0,0.0,0.0,0.0,0.0,0.0,0.0,0.0,0.0,0.0,0.0,0.0,0.0,0.0,0.0,0.0,0.0,0.0,0.0,0.0,0.0,0.0,0.0,0.0,0.0,0.0,0.0,0.0,0.0,0.0,0.0,0.0,0.0,0.0,0.0,0.0,0.0,0.0,0.0,0.0,0.0,0.0,0.0,0.0,0.0,0.0,0.0,0.0,0.0,0.0,0.0,0.0,0.0,0.0,0.0,0.0,0.0,0.0,0.0,0.0,0.0,0.0,0.0,0.0,0.0,0.0,0.0,0.0,0.0,0.0,0.0,0.0,0.0,0.0,0.6902,0.0,0.0,0.0,0.6991,0.7011,0.0,0.0,0.0,0.0,0.0,0.0,0.0,0.0,0.0,0.0,0.0,0.0,0.0,0.0,0.0,0.7095,0.6605,0.6248,0.6248,0.5667,0.5085,0.4508,0.4508,0.3929,0.2726,0.2681,0.2413,0.179,0.179,0.179,0.179,0.1165,0.0897,0.0897,0.0269,0.0,0.0,0.0,0.0359,0.0897,0.0906,0.1235,0.1664,0.0473,0.0,0.0,0.0,0.0,0.0,0.0,0.0,0.0,0.0,0.0,0.0,0.0,0.0,0.0,0.0,0.0,0.0,0.0,0.0,0.0,0.0,0.0,0.0,0.0,0.0,0.0,0.0,0.0,0.0,0.0,0.0,0.0,0.0,0.0,0.0,0.0,0.0,0.0,0.0,0.0,0.0,0.0,0.0,0.0,0.0,0.0,0.0,0.0,0.0,0.0,0.0,0.0,0.0,0.0,0.0,0.0,0.0,0.0,0.0,0.0,0.0,0.0,0.0,0.0,0.6732,0.0,0.0,0.0,0.0,0.0,0.0,0.0,0.0,0.0,0.0,0.0,0.0,0.0,0.0,0.0,0.0,0.0,0.0,0.0,0.7095,0.7095,0.7095,0.7095,0.6694,0.5761,0.5714,0.5179,0.3972,0.3927,0.3838,0.3614,0.3614,0.3614,0.357,0.2592,0.2147,0.2102,0.1121,0.0673,0.0673,0.0673,0.1254,0.2147,0.2147,0.2726,0.3403,0.1439,0.0708,0.071,0.071,0.0528,0.039,0.0634,0.0395,0.01,0.0552,0.0754,0.0756,0.0756,0.0756,0.0756,0.0756,0.0756,0.0756,0.0756,0.0555,0.0454,0.0706,0.0555,0.0454,0.0706,0.0756,0.0756,0.0756,0.0756,0.0605,0.0101,0.0,0.0,0.0,0.0,0.0,0.0,0.0,0.0,0.0,0.0,0.0,0.0,0.0,0.0,0.0,0.0,0.0,0.0,0.0,0.0,0.0,0.0,0.0,0.0,0.0,0.0,0.0,0.0,0.0,0.0,0.0,0.0,0.0,0.6702,0.0,0.0,0.0,0.0,0.0,0.0,0.0,0.0,0.0,0.0,0.0,0.0,0.0,0.0,0.0,0.0,0.0,0.0,0.0,0.0,0.7095,0.7095,0.7095,0.7095,0.7051,0.6918,0.6918,0.6381,0.5223,0.5179,0.4688,0.3614,0.3614,0.3614,0.3614,0.3481,0.3392,0.3392,0.326,0.317,0.317,0.317,0.326,0.3392,0.3392,0.3481,0.3571,0.332,0.3182,0.3188,0.3188,0.2531,0.1766,0.2811,0.1787,0.0394,0.265,0.347,0.3566,0.3566,0.3566,0.3566,0.3566,0.3566,0.3566,0.3566,0.2665,0.2063,0.3265,0.2614,0.2113,0.3265,0.3566,0.3566,0.3566,0.3566,0.2815,0.0404,0.0,0.0,0.0,0.0,0.0,0.0,0.0,0.0,0.0,0.0,0.0,0.0,0.0,0.0,0.0,0.0,0.0,0.0,0.0,0.0,0.0,0.0,0.0,0.0,0.0,0.0,0.0,0.0,0.0,0.0,0.0,0.0,0.0,0.0,0.0,0.6569,0.0,0.661,0.0,0.0,0.0,0.0,0.0,0.0,0.0,0.7058,0.0,0.0,0.0,0.0,0.0,0.0,0.0,0.0,0.0,0.0,0.0,0.7095,0.7095,0.7095,0.7095,0.6874,0.6381,0.6381,0.6157,0.562,0.562,0.562,0.562,0.4952,0.4641,0.4641,0.3927,0.3614,0.3614,0.3614,0.4016,0.4641,0.4641,0.5043,0.562,0.562,0.4797,0.3617,0.3617,0.3299,0.2893,0.3406,0.2932,0.2261,0.3316,0.3798,0.3905,0.3905,0.3934,0.4016,0.4016,0.4016,0.4016,0.4016,0.3565,0.3316,0.3865,0.3565,0.3316,0.3865,0.4016,0.4016,0.4016,0.4016,0.3667,0.2514,0.2314,0.2314,0.2314,0.2314,0.2314,0.2314,0.2314,0.2314,0.2314,0.2314,0.2314,0.2314,0.2314,0.2314,0.2314,0.2234,0.2163,0.2112,0.2076,0.2102,0.2102,0.2102,0.2102,0.2102,0.1389,0.1031,0.1031,0.0314,0.0,0.6916,0.0,0.0,0.0,0.0,0.0,0.0,0.0,0.0,0.0,0.0,0.0,0.0,0.0,0.0,0.0,0.0,0.0,0.0,0.0,0.0,0.0,0.0,0.0,0.0,0.0,0.0,0.7038,0.7075,0.7095,0.7095,0.7095,0.7095,0.7095,0.7095,0.7095,0.7095,0.7095,0.7095,0.7095,0.6248,0.5849,0.5849,0.4952,0.455,0.455,0.455,0.5041,0.5849,0.5849,0.634,0.7095,0.7095,0.6065,0.455,0.455,0.4369,0.4154,0.4472,0.4579,0.4567,0.4261,0.4454,0.4852,0.4876,0.4978,0.5034,0.5062,0.5118,0.5118,0.5118,0.4818,0.4618,0.5018,0.4818,0.4668,0.502,0.5118,0.5118,0.5118,0.5118,0.5118,0.5118,0.4466,0.4016,0.4016,0.4016,0.4016,0.4016,0.4016,0.4016,0.4016,0.4016,0.4016,0.4016,0.4016,0.4007,0.3988,0.3868,0.3738,0.3652,0.3626,0.3614,0.3614,0.3614,0.3614,0.3614,0.2726,0.2281,0.2236,0.0718,0.0,0.0,0.0,0.0,0.7559,0.0,0.0,0.0,0.0,0.8985,0.0,0.0,0.0,0.0,0.0,0.0,0.0,0.0,0.0,0.0,0.0,0.0,0.0,0.0,0.0,0.0,0.0,0.6893,0.6893,0.7018,0.7095,0.7095,0.7095,0.7095,0.7095,0.7095,0.7095,0.7095,0.7095,0.7095,0.7095,0.7051,0.7051,0.7051,0.7007,0.7007,0.7007,0.7007,0.7007,0.7051,0.7051,0.7051,0.7095,0.7095,0.7051,0.7007,0.7007,0.6296,0.5497,0.6612,0.7113,0.7076,0.5935,0.6405,0.7489,0.7622,0.7666,0.7702,0.7845,0.7889,0.7889,0.7889,0.6933,0.6279,0.7587,0.6883,0.6279,0.7587,0.7889,0.7889,0.7889,0.7889,0.7889,0.7889,0.5722,0.4016,0.4016,0.4016,0.4016,0.4016,0.4016,0.4016,0.4016,0.4016,0.4016,0.4016,0.4016,0.3987,0.4016,0.3888,0.3809,0.3776,0.3654,0.3614,0.3614,0.3614,0.3614,0.3614,0.357,0.3525,0.3481,0.1121,0.0,0.0,0.0,0.7818,0.8001,0.0,0.0,0.0,0.0,0.0,0.0,0.0,0.0,0.0,0.0,0.0,0.0,0.0,0.0,0.0,0.0,0.0,0.0,0.0,0.0,0.0,0.0,0.0,0.6886,0.7018,0.7095,0.7095,0.7095,0.7095,0.7095,0.7095,0.7095,0.7095,0.7095,0.7095,0.7095,0.7095,0.7095,0.7095,0.7095,0.7095,0.7095,0.7095,0.7095,0.7095,0.7095,0.7095,0.7095,0.7095,0.7095,0.7095,0.7095,0.6874,0.6561,0.6962,0.7129,0.7135,0.6728,0.6992,0.7458,0.7506,0.7655,0.7821,0.7875,0.7914,0.7988,0.7988,0.7686,0.7437,0.7889,0.7637,0.7437,0.7889,0.7988,0.7988,0.7988,0.7988,0.7988,0.7988,0.7232,0.6625,0.6625,0.6625,0.6625,0.6625,0.6625,0.6625,0.6625,0.6625,0.6625,0.6625,0.6625,0.659,0.639,0.6336,0.6218,0.6006,0.5955,0.5933,0.5933,0.5933,0.5933,0.5933,0.5176,0.4776,0.4732,0.3127,0.237,1.0381,0.9774,0.0,0.9396,0.9446,0.0,0.9072,0.0,0.0,0.0,0.0,0.0,0.0,0.0,0.0,0.0,0.0,0.0,0.0,0.9623,0.0,0.0,0.0,0.0,0.0,0.0,0.7135,0.6766,0.691,0.7021,0.0,0.7068,0.7095,0.7095,0.7095,0.7095,0.7095,0.7095,0.7095,0.7095,0.7095,0.7095,0.7095,0.7095,0.7095,0.7095,0.7095,0.7095,0.7095,0.7095,0.7095,0.7095,0.7095,0.7095,0.7095,0.7095,0.7095,0.7095,0.7095,0.7095,0.7095,0.7095,0.7207,0.7299,0.7356,0.7502,0.7668,0.7723,0.7841,0.7911,0.7911,0.7948,0.7988,0.7988,0.7988,0.7988,0.7988,0.7988,0.7988,0.7988,0.7988,0.7988,0.7988,0.7988,0.7988,0.7988,0.7988,0.7988,0.7988,0.7988,0.7988,0.7988,0.7988,0.7988,0.7988,0.7988,0.7887,0.7689,0.7628,0.7485,0.7231,0.7125,0.7122,0.7221,0.7125,0.7122,0.7221,0.6405,0.6027,0.5983,0.5218,0.4861]}]]